<?xml version="1.0" encoding="UTF-8" standalone="no" ?>
<gpx xmlns="http://www.topografix.com/GPX/1/1" xmlns:xsi="http://www.w3.org/2001/XMLSchema-instance" xsi:schemaLocation="http://www.topografix.com/GPX/1/1 http://www.topografix.com/GPX/1/1/gpx.xsd" version="1.1" creator="VisuGPX - https://www.visugpx.com">
  <metadata>
    <name>Engins-SaintNizier-Lans-Engins</name>
    <desc><![CDATA[Engins, Le barrage, Saint Nizier, Chemin forestier jusqu'Ã?Â  Lans puis retour sur Engins]]></desc>
  </metadata>
  <trk>
    <name><![CDATA[Engins-SaintNizier-Lans-Engins]]></name>
    <trkseg>
      <trkpt lat="45.18827" lon="5.61841">
        <ele>866.27946666667</ele>
        <time>2018-08-29T15:09:54Z</time>
      </trkpt>
      <trkpt lat="45.18827" lon="5.61838">
        <ele>866.07954</ele>
        <time>2018-08-29T15:10:03Z</time>
      </trkpt>
      <trkpt lat="45.18828" lon="5.61856">
        <ele>866.47884666667</ele>
        <time>2018-08-29T15:10:07Z</time>
      </trkpt>
      <trkpt lat="45.18828" lon="5.61861">
        <ele>866.67866</ele>
        <time>2018-08-29T15:10:54Z</time>
      </trkpt>
      <trkpt lat="45.18822" lon="5.61852">
        <ele>866.37882</ele>
        <time>2018-08-29T15:10:58Z</time>
      </trkpt>
      <trkpt lat="45.18818" lon="5.61835">
        <ele>866.17932</ele>
        <time>2018-08-29T15:11:02Z</time>
      </trkpt>
      <trkpt lat="45.18815" lon="5.61812">
        <ele>865.98010666667</ele>
        <time>2018-08-29T15:11:05Z</time>
      </trkpt>
      <trkpt lat="45.18811" lon="5.61774">
        <ele>865.28147333333</ele>
        <time>2018-08-29T15:11:10Z</time>
      </trkpt>
      <trkpt lat="45.18806" lon="5.6175">
        <ele>864.48226</ele>
        <time>2018-08-29T15:11:13Z</time>
      </trkpt>
      <trkpt lat="45.18801" lon="5.61726">
        <ele>863.68296666667</ele>
        <time>2018-08-29T15:11:16Z</time>
      </trkpt>
      <trkpt lat="45.18793" lon="5.61689">
        <ele>862.78415333333</ele>
        <time>2018-08-29T15:11:21Z</time>
      </trkpt>
      <trkpt lat="45.18787" lon="5.61665">
        <ele>862.0849</ele>
        <time>2018-08-29T15:11:24Z</time>
      </trkpt>
      <trkpt lat="45.18779" lon="5.61621">
        <ele>860.98629333333</ele>
        <time>2018-08-29T15:11:29Z</time>
      </trkpt>
      <trkpt lat="45.18773" lon="5.61596">
        <ele>860.28709333333</ele>
        <time>2018-08-29T15:11:32Z</time>
      </trkpt>
      <trkpt lat="45.18762" lon="5.61566">
        <ele>859.68786</ele>
        <time>2018-08-29T15:11:36Z</time>
      </trkpt>
      <trkpt lat="45.18753" lon="5.61544">
        <ele>858.88837333333</ele>
        <time>2018-08-29T15:11:39Z</time>
      </trkpt>
      <trkpt lat="45.1874" lon="5.61514">
        <ele>857.68902666667</ele>
        <time>2018-08-29T15:11:43Z</time>
      </trkpt>
      <trkpt lat="45.18717" lon="5.61484">
        <ele>855.88930666667</ele>
        <time>2018-08-29T15:11:48Z</time>
      </trkpt>
      <trkpt lat="45.18691" lon="5.61497">
        <ele>854.08774</ele>
        <time>2018-08-29T15:11:52Z</time>
      </trkpt>
      <trkpt lat="45.18684" lon="5.61536">
        <ele>853.08589333333</ele>
        <time>2018-08-29T15:11:56Z</time>
      </trkpt>
      <trkpt lat="45.18674" lon="5.61573">
        <ele>851.98404666667</ele>
        <time>2018-08-29T15:12:00Z</time>
      </trkpt>
      <trkpt lat="45.18655" lon="5.61612">
        <ele>850.3817</ele>
        <time>2018-08-29T15:12:05Z</time>
      </trkpt>
      <trkpt lat="45.18637" lon="5.61637">
        <ele>849.87999333333</ele>
        <time>2018-08-29T15:12:09Z</time>
      </trkpt>
      <trkpt lat="45.18623" lon="5.61651">
        <ele>850.7789</ele>
        <time>2018-08-29T15:12:12Z</time>
      </trkpt>
      <trkpt lat="45.18599" lon="5.61671">
        <ele>850.67712</ele>
        <time>2018-08-29T15:12:17Z</time>
      </trkpt>
      <trkpt lat="45.18585" lon="5.61687">
        <ele>850.77593333333</ele>
        <time>2018-08-29T15:12:20Z</time>
      </trkpt>
      <trkpt lat="45.18559" lon="5.61714">
        <ele>851.47381333333</ele>
        <time>2018-08-29T15:12:25Z</time>
      </trkpt>
      <trkpt lat="45.18536" lon="5.61745">
        <ele>852.37164</ele>
        <time>2018-08-29T15:12:30Z</time>
      </trkpt>
      <trkpt lat="45.1852" lon="5.61778">
        <ele>853.96968</ele>
        <time>2018-08-29T15:12:35Z</time>
      </trkpt>
      <trkpt lat="45.18512" lon="5.61799">
        <ele>853.76849333333</ele>
        <time>2018-08-29T15:12:38Z</time>
      </trkpt>
      <trkpt lat="45.18498" lon="5.61832">
        <ele>854.26663333333</ele>
        <time>2018-08-29T15:12:43Z</time>
      </trkpt>
      <trkpt lat="45.18478" lon="5.61863">
        <ele>853.46462</ele>
        <time>2018-08-29T15:12:48Z</time>
      </trkpt>
      <trkpt lat="45.18453" lon="5.61876">
        <ele>852.86306</ele>
        <time>2018-08-29T15:12:52Z</time>
      </trkpt>
      <trkpt lat="45.18424" lon="5.61875">
        <ele>855.16195333333</ele>
        <time>2018-08-29T15:12:56Z</time>
      </trkpt>
      <trkpt lat="45.18398" lon="5.61861">
        <ele>857.56148</ele>
        <time>2018-08-29T15:13:01Z</time>
      </trkpt>
      <trkpt lat="45.18385" lon="5.61853">
        <ele>859.86126666667</ele>
        <time>2018-08-29T15:13:04Z</time>
      </trkpt>
      <trkpt lat="45.18369" lon="5.61843">
        <ele>860.76105333333</ele>
        <time>2018-08-29T15:13:08Z</time>
      </trkpt>
      <trkpt lat="45.1835" lon="5.6183">
        <ele>861.96078666667</ele>
        <time>2018-08-29T15:13:13Z</time>
      </trkpt>
      <trkpt lat="45.18331" lon="5.61821">
        <ele>861.96039333333</ele>
        <time>2018-08-29T15:13:17Z</time>
      </trkpt>
      <trkpt lat="45.18315" lon="5.61813">
        <ele>861.56007333333</ele>
        <time>2018-08-29T15:13:20Z</time>
      </trkpt>
      <trkpt lat="45.18298" lon="5.61806">
        <ele>861.35969333333</ele>
        <time>2018-08-29T15:13:23Z</time>
      </trkpt>
      <trkpt lat="45.18265" lon="5.61801">
        <ele>858.95854</ele>
        <time>2018-08-29T15:13:28Z</time>
      </trkpt>
      <trkpt lat="45.18234" lon="5.61787">
        <ele>856.65786</ele>
        <time>2018-08-29T15:13:32Z</time>
      </trkpt>
      <trkpt lat="45.18185" lon="5.61774">
        <ele>852.85641333333</ele>
        <time>2018-08-29T15:13:37Z</time>
      </trkpt>
      <trkpt lat="45.18139" lon="5.61787">
        <ele>848.95407333333</ele>
        <time>2018-08-29T15:13:41Z</time>
      </trkpt>
      <trkpt lat="45.18078" lon="5.61802">
        <ele>843.45106666667</ele>
        <time>2018-08-29T15:13:46Z</time>
      </trkpt>
      <trkpt lat="45.18031" lon="5.61809">
        <ele>839.34886666667</ele>
        <time>2018-08-29T15:13:50Z</time>
      </trkpt>
      <trkpt lat="45.17986" lon="5.61826">
        <ele>834.24638</ele>
        <time>2018-08-29T15:13:54Z</time>
      </trkpt>
      <trkpt lat="45.17925" lon="5.61832">
        <ele>828.94373333333</ele>
        <time>2018-08-29T15:13:59Z</time>
      </trkpt>
      <trkpt lat="45.17863" lon="5.61842">
        <ele>822.04085333333</ele>
        <time>2018-08-29T15:14:04Z</time>
      </trkpt>
      <trkpt lat="45.17812" lon="5.6184">
        <ele>817.53886666667</ele>
        <time>2018-08-29T15:14:08Z</time>
      </trkpt>
      <trkpt lat="45.17768" lon="5.61853">
        <ele>812.0366</ele>
        <time>2018-08-29T15:14:12Z</time>
      </trkpt>
      <trkpt lat="45.17724" lon="5.61864">
        <ele>806.73438666667</ele>
        <time>2018-08-29T15:14:16Z</time>
      </trkpt>
      <trkpt lat="45.17701" lon="5.61864">
        <ele>805.43347333333</ele>
        <time>2018-08-29T15:14:19Z</time>
      </trkpt>
      <trkpt lat="45.17694" lon="5.61885">
        <ele>802.93234666667</ele>
        <time>2018-08-29T15:14:24Z</time>
      </trkpt>
      <trkpt lat="45.17711" lon="5.61893">
        <ele>801.03271333333</ele>
        <time>2018-08-29T15:14:28Z</time>
      </trkpt>
      <trkpt lat="45.17732" lon="5.61893">
        <ele>801.63354</ele>
        <time>2018-08-29T15:14:32Z</time>
      </trkpt>
      <trkpt lat="45.17755" lon="5.61891">
        <ele>802.03456666667</ele>
        <time>2018-08-29T15:14:36Z</time>
      </trkpt>
      <trkpt lat="45.17779" lon="5.61889">
        <ele>801.53560666667</ele>
        <time>2018-08-29T15:14:40Z</time>
      </trkpt>
      <trkpt lat="45.17809" lon="5.61898">
        <ele>800.13645333333</ele>
        <time>2018-08-29T15:14:45Z</time>
      </trkpt>
      <trkpt lat="45.17833" lon="5.61911">
        <ele>799.33690666667</ele>
        <time>2018-08-29T15:14:49Z</time>
      </trkpt>
      <trkpt lat="45.17851" lon="5.61921">
        <ele>799.03722</ele>
        <time>2018-08-29T15:14:52Z</time>
      </trkpt>
      <trkpt lat="45.17875" lon="5.61932">
        <ele>797.93772</ele>
        <time>2018-08-29T15:14:56Z</time>
      </trkpt>
      <trkpt lat="45.17888" lon="5.61941">
        <ele>797.13787333333</ele>
        <time>2018-08-29T15:15:00Z</time>
      </trkpt>
      <trkpt lat="45.17906" lon="5.61956">
        <ele>793.23797333333</ele>
        <time>2018-08-29T15:15:05Z</time>
      </trkpt>
      <trkpt lat="45.17923" lon="5.61966">
        <ele>790.53827333333</ele>
        <time>2018-08-29T15:15:09Z</time>
      </trkpt>
      <trkpt lat="45.17942" lon="5.61977">
        <ele>786.93858666667</ele>
        <time>2018-08-29T15:15:14Z</time>
      </trkpt>
      <trkpt lat="45.1795" lon="5.61984">
        <ele>783.33865333333</ele>
        <time>2018-08-29T15:15:18Z</time>
      </trkpt>
      <trkpt lat="45.17947" lon="5.61985">
        <ele>780.23849333333</ele>
        <time>2018-08-29T15:15:24Z</time>
      </trkpt>
      <trkpt lat="45.17941" lon="5.61983">
        <ele>778.13832</ele>
        <time>2018-08-29T15:15:28Z</time>
      </trkpt>
      <trkpt lat="45.17937" lon="5.6199">
        <ele>777.63789333333</ele>
        <time>2018-08-29T15:15:32Z</time>
      </trkpt>
      <trkpt lat="45.17935" lon="5.62008">
        <ele>777.03709333333</ele>
        <time>2018-08-29T15:15:36Z</time>
      </trkpt>
      <trkpt lat="45.1793" lon="5.62026">
        <ele>776.83617333333</ele>
        <time>2018-08-29T15:15:40Z</time>
      </trkpt>
      <trkpt lat="45.17929" lon="5.6204">
        <ele>776.23557333333</ele>
        <time>2018-08-29T15:15:43Z</time>
      </trkpt>
      <trkpt lat="45.17939" lon="5.62061">
        <ele>775.43512</ele>
        <time>2018-08-29T15:15:48Z</time>
      </trkpt>
      <trkpt lat="45.17955" lon="5.62074">
        <ele>774.93524</ele>
        <time>2018-08-29T15:15:53Z</time>
      </trkpt>
      <trkpt lat="45.17966" lon="5.62076">
        <ele>775.53558666667</ele>
        <time>2018-08-29T15:15:56Z</time>
      </trkpt>
      <trkpt lat="45.17983" lon="5.62075">
        <ele>776.63634666667</ele>
        <time>2018-08-29T15:16:00Z</time>
      </trkpt>
      <trkpt lat="45.17997" lon="5.62068">
        <ele>779.13717333333</ele>
        <time>2018-08-29T15:16:05Z</time>
      </trkpt>
      <trkpt lat="45.18008" lon="5.62065">
        <ele>780.03772</ele>
        <time>2018-08-29T15:16:09Z</time>
      </trkpt>
      <trkpt lat="45.18021" lon="5.62065">
        <ele>781.33821333333</ele>
        <time>2018-08-29T15:16:14Z</time>
      </trkpt>
      <trkpt lat="45.18029" lon="5.62071">
        <ele>780.93832</ele>
        <time>2018-08-29T15:16:18Z</time>
      </trkpt>
      <trkpt lat="45.18036" lon="5.6208">
        <ele>782.03827333333</ele>
        <time>2018-08-29T15:16:23Z</time>
      </trkpt>
      <trkpt lat="45.18042" lon="5.62086">
        <ele>782.53824</ele>
        <time>2018-08-29T15:16:27Z</time>
      </trkpt>
      <trkpt lat="45.18048" lon="5.62093">
        <ele>784.13818</ele>
        <time>2018-08-29T15:16:32Z</time>
      </trkpt>
      <trkpt lat="45.18051" lon="5.62097">
        <ele>785.43818</ele>
        <time>2018-08-29T15:16:36Z</time>
      </trkpt>
      <trkpt lat="45.18055" lon="5.62104">
        <ele>786.63803333333</ele>
        <time>2018-08-29T15:16:40Z</time>
      </trkpt>
      <trkpt lat="45.18059" lon="5.62109">
        <ele>787.33798666667</ele>
        <time>2018-08-29T15:16:44Z</time>
      </trkpt>
      <trkpt lat="45.18066" lon="5.62118">
        <ele>788.33789333333</ele>
        <time>2018-08-29T15:16:49Z</time>
      </trkpt>
      <trkpt lat="45.18072" lon="5.62124">
        <ele>788.93794</ele>
        <time>2018-08-29T15:16:54Z</time>
      </trkpt>
      <trkpt lat="45.18079" lon="5.62131">
        <ele>789.73792</ele>
        <time>2018-08-29T15:16:58Z</time>
      </trkpt>
      <trkpt lat="45.18086" lon="5.62135">
        <ele>790.53807333333</ele>
        <time>2018-08-29T15:17:03Z</time>
      </trkpt>
      <trkpt lat="45.18094" lon="5.62138">
        <ele>791.13822</ele>
        <time>2018-08-29T15:17:07Z</time>
      </trkpt>
      <trkpt lat="45.181" lon="5.62141">
        <ele>791.73838666667</ele>
        <time>2018-08-29T15:17:11Z</time>
      </trkpt>
      <trkpt lat="45.18108" lon="5.62143">
        <ele>792.43858</ele>
        <time>2018-08-29T15:17:16Z</time>
      </trkpt>
      <trkpt lat="45.18115" lon="5.62147">
        <ele>793.03874</ele>
        <time>2018-08-29T15:17:21Z</time>
      </trkpt>
      <trkpt lat="45.18123" lon="5.62148">
        <ele>794.13903333333</ele>
        <time>2018-08-29T15:17:26Z</time>
      </trkpt>
      <trkpt lat="45.18131" lon="5.62149">
        <ele>795.23927333333</ele>
        <time>2018-08-29T15:17:30Z</time>
      </trkpt>
      <trkpt lat="45.18137" lon="5.62152">
        <ele>795.53939333333</ele>
        <time>2018-08-29T15:17:34Z</time>
      </trkpt>
      <trkpt lat="45.1814" lon="5.62159">
        <ele>795.83924</ele>
        <time>2018-08-29T15:17:38Z</time>
      </trkpt>
      <trkpt lat="45.18146" lon="5.6217">
        <ele>795.93905333333</ele>
        <time>2018-08-29T15:17:43Z</time>
      </trkpt>
      <trkpt lat="45.1815" lon="5.62183">
        <ele>796.13866666667</ele>
        <time>2018-08-29T15:17:48Z</time>
      </trkpt>
      <trkpt lat="45.18153" lon="5.62198">
        <ele>796.33820666667</ele>
        <time>2018-08-29T15:17:52Z</time>
      </trkpt>
      <trkpt lat="45.18159" lon="5.62214">
        <ele>796.43780666667</ele>
        <time>2018-08-29T15:17:56Z</time>
      </trkpt>
      <trkpt lat="45.18169" lon="5.62234">
        <ele>796.43740666667</ele>
        <time>2018-08-29T15:18:01Z</time>
      </trkpt>
      <trkpt lat="45.18183" lon="5.62252">
        <ele>796.43721333333</ele>
        <time>2018-08-29T15:18:06Z</time>
      </trkpt>
      <trkpt lat="45.18192" lon="5.6227">
        <ele>796.93687333333</ele>
        <time>2018-08-29T15:18:11Z</time>
      </trkpt>
      <trkpt lat="45.18196" lon="5.62283">
        <ele>797.5365</ele>
        <time>2018-08-29T15:18:15Z</time>
      </trkpt>
      <trkpt lat="45.18202" lon="5.62293">
        <ele>797.83638666667</ele>
        <time>2018-08-29T15:18:19Z</time>
      </trkpt>
      <trkpt lat="45.18209" lon="5.623">
        <ele>797.63635333333</ele>
        <time>2018-08-29T15:18:23Z</time>
      </trkpt>
      <trkpt lat="45.18217" lon="5.6231">
        <ele>797.63627333333</ele>
        <time>2018-08-29T15:18:28Z</time>
      </trkpt>
      <trkpt lat="45.18224" lon="5.62316">
        <ele>797.93628666667</ele>
        <time>2018-08-29T15:18:32Z</time>
      </trkpt>
      <trkpt lat="45.1823" lon="5.62324">
        <ele>798.33625333333</ele>
        <time>2018-08-29T15:18:36Z</time>
      </trkpt>
      <trkpt lat="45.18236" lon="5.62329">
        <ele>799.43628</ele>
        <time>2018-08-29T15:18:39Z</time>
      </trkpt>
      <trkpt lat="45.18247" lon="5.62344">
        <ele>799.43614666667</ele>
        <time>2018-08-29T15:18:44Z</time>
      </trkpt>
      <trkpt lat="45.18265" lon="5.62362">
        <ele>798.53612</ele>
        <time>2018-08-29T15:18:49Z</time>
      </trkpt>
      <trkpt lat="45.18282" lon="5.6238">
        <ele>798.23605333333</ele>
        <time>2018-08-29T15:18:53Z</time>
      </trkpt>
      <trkpt lat="45.18296" lon="5.62405">
        <ele>796.63564</ele>
        <time>2018-08-29T15:18:57Z</time>
      </trkpt>
      <trkpt lat="45.18309" lon="5.62435">
        <ele>795.73495333333</ele>
        <time>2018-08-29T15:19:02Z</time>
      </trkpt>
      <trkpt lat="45.18311" lon="5.62458">
        <ele>795.53412666667</ele>
        <time>2018-08-29T15:19:06Z</time>
      </trkpt>
      <trkpt lat="45.18318" lon="5.62478">
        <ele>795.6336</ele>
        <time>2018-08-29T15:19:10Z</time>
      </trkpt>
      <trkpt lat="45.18328" lon="5.62483">
        <ele>795.73378</ele>
        <time>2018-08-29T15:19:13Z</time>
      </trkpt>
      <trkpt lat="45.18339" lon="5.62485">
        <ele>796.43417333333</ele>
        <time>2018-08-29T15:19:18Z</time>
      </trkpt>
      <trkpt lat="45.18346" lon="5.62482">
        <ele>796.33455333333</ele>
        <time>2018-08-29T15:19:22Z</time>
      </trkpt>
      <trkpt lat="45.18354" lon="5.62478">
        <ele>797.43505333333</ele>
        <time>2018-08-29T15:19:27Z</time>
      </trkpt>
      <trkpt lat="45.18362" lon="5.62474">
        <ele>798.53550666667</ele>
        <time>2018-08-29T15:19:31Z</time>
      </trkpt>
      <trkpt lat="45.18368" lon="5.62471">
        <ele>799.33588</ele>
        <time>2018-08-29T15:19:35Z</time>
      </trkpt>
      <trkpt lat="45.18377" lon="5.62467">
        <ele>800.6364</ele>
        <time>2018-08-29T15:19:40Z</time>
      </trkpt>
      <trkpt lat="45.18384" lon="5.62462">
        <ele>801.83684666667</ele>
        <time>2018-08-29T15:19:44Z</time>
      </trkpt>
      <trkpt lat="45.18389" lon="5.62458">
        <ele>802.63723333333</ele>
        <time>2018-08-29T15:19:48Z</time>
      </trkpt>
      <trkpt lat="45.18395" lon="5.62454">
        <ele>803.53760666667</ele>
        <time>2018-08-29T15:19:52Z</time>
      </trkpt>
      <trkpt lat="45.184" lon="5.62449">
        <ele>804.43804666667</ele>
        <time>2018-08-29T15:19:56Z</time>
      </trkpt>
      <trkpt lat="45.18406" lon="5.62441">
        <ele>805.33861333333</ele>
        <time>2018-08-29T15:20:01Z</time>
      </trkpt>
      <trkpt lat="45.18413" lon="5.62436">
        <ele>806.63908</ele>
        <time>2018-08-29T15:20:05Z</time>
      </trkpt>
      <trkpt lat="45.1842" lon="5.62434">
        <ele>807.53941333333</ele>
        <time>2018-08-29T15:20:09Z</time>
      </trkpt>
      <trkpt lat="45.18426" lon="5.62443">
        <ele>808.63928666667</ele>
        <time>2018-08-29T15:20:14Z</time>
      </trkpt>
      <trkpt lat="45.18424" lon="5.62455">
        <ele>809.63877333333</ele>
        <time>2018-08-29T15:20:18Z</time>
      </trkpt>
      <trkpt lat="45.18423" lon="5.62469">
        <ele>810.43819333333</ele>
        <time>2018-08-29T15:20:23Z</time>
      </trkpt>
      <trkpt lat="45.18422" lon="5.62476">
        <ele>810.53785333333</ele>
        <time>2018-08-29T15:20:26Z</time>
      </trkpt>
      <trkpt lat="45.18422" lon="5.6249">
        <ele>810.83728</ele>
        <time>2018-08-29T15:20:31Z</time>
      </trkpt>
      <trkpt lat="45.18423" lon="5.62497">
        <ele>811.23701333333</ele>
        <time>2018-08-29T15:20:34Z</time>
      </trkpt>
      <trkpt lat="45.18425" lon="5.62512">
        <ele>811.53650666667</ele>
        <time>2018-08-29T15:20:39Z</time>
      </trkpt>
      <trkpt lat="45.18429" lon="5.62524">
        <ele>811.73618</ele>
        <time>2018-08-29T15:20:43Z</time>
      </trkpt>
      <trkpt lat="45.18434" lon="5.62536">
        <ele>811.83592</ele>
        <time>2018-08-29T15:20:48Z</time>
      </trkpt>
      <trkpt lat="45.18438" lon="5.62544">
        <ele>812.33577333333</ele>
        <time>2018-08-29T15:20:52Z</time>
      </trkpt>
      <trkpt lat="45.18445" lon="5.62555">
        <ele>812.43562</ele>
        <time>2018-08-29T15:20:57Z</time>
      </trkpt>
      <trkpt lat="45.1845" lon="5.62563">
        <ele>813.23550666667</ele>
        <time>2018-08-29T15:21:01Z</time>
      </trkpt>
      <trkpt lat="45.18458" lon="5.62574">
        <ele>812.73533333333</ele>
        <time>2018-08-29T15:21:06Z</time>
      </trkpt>
      <trkpt lat="45.18464" lon="5.62583">
        <ele>812.33522</ele>
        <time>2018-08-29T15:21:10Z</time>
      </trkpt>
      <trkpt lat="45.1847" lon="5.62599">
        <ele>811.63484666667</ele>
        <time>2018-08-29T15:21:15Z</time>
      </trkpt>
      <trkpt lat="45.18474" lon="5.62615">
        <ele>811.43435333333</ele>
        <time>2018-08-29T15:21:19Z</time>
      </trkpt>
      <trkpt lat="45.18479" lon="5.62632">
        <ele>811.93388666667</ele>
        <time>2018-08-29T15:21:23Z</time>
      </trkpt>
      <trkpt lat="45.18489" lon="5.62649">
        <ele>811.43358</ele>
        <time>2018-08-29T15:21:27Z</time>
      </trkpt>
      <trkpt lat="45.18502" lon="5.62665">
        <ele>810.93345333333</ele>
        <time>2018-08-29T15:21:31Z</time>
      </trkpt>
      <trkpt lat="45.1852" lon="5.62687">
        <ele>809.93330666667</ele>
        <time>2018-08-29T15:21:36Z</time>
      </trkpt>
      <trkpt lat="45.18537" lon="5.6271">
        <ele>808.53308</ele>
        <time>2018-08-29T15:21:41Z</time>
      </trkpt>
      <trkpt lat="45.18551" lon="5.62724">
        <ele>808.33305333333</ele>
        <time>2018-08-29T15:21:45Z</time>
      </trkpt>
      <trkpt lat="45.18564" lon="5.62742">
        <ele>807.53288666667</ele>
        <time>2018-08-29T15:21:49Z</time>
      </trkpt>
      <trkpt lat="45.18584" lon="5.62761">
        <ele>805.73291333333</ele>
        <time>2018-08-29T15:21:54Z</time>
      </trkpt>
      <trkpt lat="45.18598" lon="5.62774">
        <ele>803.53296</ele>
        <time>2018-08-29T15:21:58Z</time>
      </trkpt>
      <trkpt lat="45.18614" lon="5.62789">
        <ele>800.633</ele>
        <time>2018-08-29T15:22:03Z</time>
      </trkpt>
      <trkpt lat="45.18624" lon="5.62798">
        <ele>798.63306</ele>
        <time>2018-08-29T15:22:07Z</time>
      </trkpt>
      <trkpt lat="45.18631" lon="5.62806">
        <ele>797.133</ele>
        <time>2018-08-29T15:22:12Z</time>
      </trkpt>
      <trkpt lat="45.18636" lon="5.62814">
        <ele>796.13288666667</ele>
        <time>2018-08-29T15:22:16Z</time>
      </trkpt>
      <trkpt lat="45.18642" lon="5.62821">
        <ele>795.23287333333</ele>
        <time>2018-08-29T15:22:20Z</time>
      </trkpt>
      <trkpt lat="45.1865" lon="5.62832">
        <ele>793.83272</ele>
        <time>2018-08-29T15:22:25Z</time>
      </trkpt>
      <trkpt lat="45.18653" lon="5.62835">
        <ele>793.0327</ele>
        <time>2018-08-29T15:22:28Z</time>
      </trkpt>
      <trkpt lat="45.1866" lon="5.6284">
        <ele>792.0328</ele>
        <time>2018-08-29T15:22:32Z</time>
      </trkpt>
      <trkpt lat="45.1867" lon="5.6285">
        <ele>790.73281333333</ele>
        <time>2018-08-29T15:22:37Z</time>
      </trkpt>
      <trkpt lat="45.18674" lon="5.62855">
        <ele>790.23278</ele>
        <time>2018-08-29T15:22:40Z</time>
      </trkpt>
      <trkpt lat="45.18679" lon="5.62858">
        <ele>789.83284</ele>
        <time>2018-08-29T15:22:44Z</time>
      </trkpt>
      <trkpt lat="45.18686" lon="5.62861">
        <ele>789.83302666667</ele>
        <time>2018-08-29T15:22:47Z</time>
      </trkpt>
      <trkpt lat="45.18692" lon="5.62864">
        <ele>789.33313333333</ele>
        <time>2018-08-29T15:22:50Z</time>
      </trkpt>
      <trkpt lat="45.187" lon="5.62871">
        <ele>788.93316666667</ele>
        <time>2018-08-29T15:22:54Z</time>
      </trkpt>
      <trkpt lat="45.18706" lon="5.62877">
        <ele>788.83318</ele>
        <time>2018-08-29T15:22:58Z</time>
      </trkpt>
      <trkpt lat="45.18712" lon="5.62881">
        <ele>788.73324</ele>
        <time>2018-08-29T15:23:01Z</time>
      </trkpt>
      <trkpt lat="45.18715" lon="5.62885">
        <ele>788.23320666667</ele>
        <time>2018-08-29T15:23:04Z</time>
      </trkpt>
      <trkpt lat="45.18719" lon="5.62891">
        <ele>787.63312666667</ele>
        <time>2018-08-29T15:23:09Z</time>
      </trkpt>
      <trkpt lat="45.18723" lon="5.62894">
        <ele>786.93316</ele>
        <time>2018-08-29T15:23:12Z</time>
      </trkpt>
      <trkpt lat="45.18729" lon="5.62896">
        <ele>785.6333</ele>
        <time>2018-08-29T15:23:16Z</time>
      </trkpt>
      <trkpt lat="45.18737" lon="5.62902">
        <ele>784.63341333333</ele>
        <time>2018-08-29T15:23:21Z</time>
      </trkpt>
      <trkpt lat="45.18743" lon="5.62906">
        <ele>783.93346666667</ele>
        <time>2018-08-29T15:23:25Z</time>
      </trkpt>
      <trkpt lat="45.18751" lon="5.62913">
        <ele>783.43354</ele>
        <time>2018-08-29T15:23:30Z</time>
      </trkpt>
      <trkpt lat="45.18758" lon="5.62919">
        <ele>782.83354</ele>
        <time>2018-08-29T15:23:34Z</time>
      </trkpt>
      <trkpt lat="45.18766" lon="5.62927">
        <ele>782.43357333333</ele>
        <time>2018-08-29T15:23:38Z</time>
      </trkpt>
      <trkpt lat="45.18772" lon="5.62932">
        <ele>782.03359333333</ele>
        <time>2018-08-29T15:23:41Z</time>
      </trkpt>
      <trkpt lat="45.1878" lon="5.62941">
        <ele>781.43355333333</ele>
        <time>2018-08-29T15:23:45Z</time>
      </trkpt>
      <trkpt lat="45.18791" lon="5.62953">
        <ele>780.73352</ele>
        <time>2018-08-29T15:23:49Z</time>
      </trkpt>
      <trkpt lat="45.18806" lon="5.6297">
        <ele>780.43346</ele>
        <time>2018-08-29T15:23:54Z</time>
      </trkpt>
      <trkpt lat="45.18814" lon="5.62981">
        <ele>779.93330666667</ele>
        <time>2018-08-29T15:23:58Z</time>
      </trkpt>
      <trkpt lat="45.18823" lon="5.62989">
        <ele>780.33337333333</ele>
        <time>2018-08-29T15:24:02Z</time>
      </trkpt>
      <trkpt lat="45.18826" lon="5.62994">
        <ele>780.23329333333</ele>
        <time>2018-08-29T15:24:06Z</time>
      </trkpt>
      <trkpt lat="45.18832" lon="5.63001">
        <ele>780.13324</ele>
        <time>2018-08-29T15:24:10Z</time>
      </trkpt>
      <trkpt lat="45.18838" lon="5.63009">
        <ele>780.03316</ele>
        <time>2018-08-29T15:24:14Z</time>
      </trkpt>
      <trkpt lat="45.18843" lon="5.63013">
        <ele>780.1332</ele>
        <time>2018-08-29T15:24:18Z</time>
      </trkpt>
      <trkpt lat="45.1885" lon="5.63018">
        <ele>780.43330666667</ele>
        <time>2018-08-29T15:24:22Z</time>
      </trkpt>
      <trkpt lat="45.18855" lon="5.63023">
        <ele>780.73331333333</ele>
        <time>2018-08-29T15:24:26Z</time>
      </trkpt>
      <trkpt lat="45.18863" lon="5.63028">
        <ele>781.23337333333</ele>
        <time>2018-08-29T15:24:31Z</time>
      </trkpt>
      <trkpt lat="45.18868" lon="5.63033">
        <ele>781.63340666667</ele>
        <time>2018-08-29T15:24:35Z</time>
      </trkpt>
      <trkpt lat="45.18872" lon="5.63035">
        <ele>782.23351333333</ele>
        <time>2018-08-29T15:24:39Z</time>
      </trkpt>
      <trkpt lat="45.18878" lon="5.63038">
        <ele>782.73358</ele>
        <time>2018-08-29T15:24:42Z</time>
      </trkpt>
      <trkpt lat="45.18886" lon="5.63044">
        <ele>784.13369333333</ele>
        <time>2018-08-29T15:24:47Z</time>
      </trkpt>
      <trkpt lat="45.18892" lon="5.63051">
        <ele>784.83362</ele>
        <time>2018-08-29T15:24:51Z</time>
      </trkpt>
      <trkpt lat="45.18893" lon="5.63054">
        <ele>785.43355333333</ele>
        <time>2018-08-29T15:24:55Z</time>
      </trkpt>
      <trkpt lat="45.18896" lon="5.63057">
        <ele>785.83353333333</ele>
        <time>2018-08-29T15:24:58Z</time>
      </trkpt>
      <trkpt lat="45.18901" lon="5.63061">
        <ele>786.43363333333</ele>
        <time>2018-08-29T15:25:02Z</time>
      </trkpt>
      <trkpt lat="45.18906" lon="5.63068">
        <ele>787.03350666667</ele>
        <time>2018-08-29T15:25:06Z</time>
      </trkpt>
      <trkpt lat="45.18908" lon="5.63071">
        <ele>787.63347333333</ele>
        <time>2018-08-29T15:25:10Z</time>
      </trkpt>
      <trkpt lat="45.18906" lon="5.63077">
        <ele>790.53316666667</ele>
        <time>2018-08-29T15:25:15Z</time>
      </trkpt>
      <trkpt lat="45.1891" lon="5.63079">
        <ele>791.73324666667</ele>
        <time>2018-08-29T15:25:19Z</time>
      </trkpt>
      <trkpt lat="45.18914" lon="5.63078">
        <ele>793.13343333333</ele>
        <time>2018-08-29T15:25:24Z</time>
      </trkpt>
      <trkpt lat="45.1892" lon="5.63081">
        <ele>794.33354666667</ele>
        <time>2018-08-29T15:25:28Z</time>
      </trkpt>
      <trkpt lat="45.18925" lon="5.63083">
        <ele>795.63366</ele>
        <time>2018-08-29T15:25:32Z</time>
      </trkpt>
      <trkpt lat="45.18929" lon="5.63082">
        <ele>800.53387333333</ele>
        <time>2018-08-29T15:25:38Z</time>
      </trkpt>
      <trkpt lat="45.18933" lon="5.63083">
        <ele>803.834</ele>
        <time>2018-08-29T15:25:42Z</time>
      </trkpt>
      <trkpt lat="45.18936" lon="5.63085">
        <ele>806.63407333333</ele>
        <time>2018-08-29T15:25:47Z</time>
      </trkpt>
      <trkpt lat="45.18941" lon="5.63087">
        <ele>809.43417333333</ele>
        <time>2018-08-29T15:25:52Z</time>
      </trkpt>
      <trkpt lat="45.18947" lon="5.63091">
        <ele>811.43424</ele>
        <time>2018-08-29T15:25:56Z</time>
      </trkpt>
      <trkpt lat="45.18952" lon="5.63095">
        <ele>813.03426</ele>
        <time>2018-08-29T15:26:00Z</time>
      </trkpt>
      <trkpt lat="45.18955" lon="5.631">
        <ele>814.13422</ele>
        <time>2018-08-29T15:26:04Z</time>
      </trkpt>
      <trkpt lat="45.1896" lon="5.63104">
        <ele>814.83424666667</ele>
        <time>2018-08-29T15:26:08Z</time>
      </trkpt>
      <trkpt lat="45.18964" lon="5.63107">
        <ele>815.63428666667</ele>
        <time>2018-08-29T15:26:12Z</time>
      </trkpt>
      <trkpt lat="45.18967" lon="5.6311">
        <ele>816.53426666667</ele>
        <time>2018-08-29T15:26:16Z</time>
      </trkpt>
      <trkpt lat="45.18969" lon="5.63114">
        <ele>817.83420666667</ele>
        <time>2018-08-29T15:26:20Z</time>
      </trkpt>
      <trkpt lat="45.18971" lon="5.63116">
        <ele>819.03420666667</ele>
        <time>2018-08-29T15:26:23Z</time>
      </trkpt>
      <trkpt lat="45.18975" lon="5.6312">
        <ele>820.53422</ele>
        <time>2018-08-29T15:26:27Z</time>
      </trkpt>
      <trkpt lat="45.18978" lon="5.63122">
        <ele>821.83425333333</ele>
        <time>2018-08-29T15:26:31Z</time>
      </trkpt>
      <trkpt lat="45.18981" lon="5.63118">
        <ele>823.53455333333</ele>
        <time>2018-08-29T15:26:34Z</time>
      </trkpt>
      <trkpt lat="45.18985" lon="5.63118">
        <ele>824.9347</ele>
        <time>2018-08-29T15:26:38Z</time>
      </trkpt>
      <trkpt lat="45.18991" lon="5.6312">
        <ele>826.63484666667</ele>
        <time>2018-08-29T15:26:43Z</time>
      </trkpt>
      <trkpt lat="45.18993" lon="5.63123">
        <ele>829.93478</ele>
        <time>2018-08-29T15:26:49Z</time>
      </trkpt>
      <trkpt lat="45.18999" lon="5.63127">
        <ele>832.93486</ele>
        <time>2018-08-29T15:26:54Z</time>
      </trkpt>
      <trkpt lat="45.19002" lon="5.63129">
        <ele>834.93492666667</ele>
        <time>2018-08-29T15:26:59Z</time>
      </trkpt>
      <trkpt lat="45.19005" lon="5.6313">
        <ele>835.93498</ele>
        <time>2018-08-29T15:27:02Z</time>
      </trkpt>
      <trkpt lat="45.19008" lon="5.63134">
        <ele>838.03494666667</ele>
        <time>2018-08-29T15:27:07Z</time>
      </trkpt>
      <trkpt lat="45.1901" lon="5.63138">
        <ele>839.33488</ele>
        <time>2018-08-29T15:27:10Z</time>
      </trkpt>
      <trkpt lat="45.19014" lon="5.63142">
        <ele>840.73488</ele>
        <time>2018-08-29T15:27:14Z</time>
      </trkpt>
      <trkpt lat="45.19019" lon="5.63149">
        <ele>842.13481333333</ele>
        <time>2018-08-29T15:27:18Z</time>
      </trkpt>
      <trkpt lat="45.19027" lon="5.6315">
        <ele>843.23504666667</ele>
        <time>2018-08-29T15:27:22Z</time>
      </trkpt>
      <trkpt lat="45.19035" lon="5.6316">
        <ele>844.23502</ele>
        <time>2018-08-29T15:27:27Z</time>
      </trkpt>
      <trkpt lat="45.19041" lon="5.63169">
        <ele>844.8349</ele>
        <time>2018-08-29T15:27:30Z</time>
      </trkpt>
      <trkpt lat="45.19051" lon="5.63187">
        <ele>845.33454</ele>
        <time>2018-08-29T15:27:34Z</time>
      </trkpt>
      <trkpt lat="45.19061" lon="5.63199">
        <ele>845.53448666667</ele>
        <time>2018-08-29T15:27:38Z</time>
      </trkpt>
      <trkpt lat="45.19072" lon="5.63207">
        <ele>845.8346</ele>
        <time>2018-08-29T15:27:42Z</time>
      </trkpt>
      <trkpt lat="45.19082" lon="5.63215">
        <ele>846.53468</ele>
        <time>2018-08-29T15:27:46Z</time>
      </trkpt>
      <trkpt lat="45.19095" lon="5.63226">
        <ele>847.03474</ele>
        <time>2018-08-29T15:27:50Z</time>
      </trkpt>
      <trkpt lat="45.1911" lon="5.63241">
        <ele>847.83476666667</ele>
        <time>2018-08-29T15:27:55Z</time>
      </trkpt>
      <trkpt lat="45.19118" lon="5.63248">
        <ele>848.13479333333</ele>
        <time>2018-08-29T15:27:58Z</time>
      </trkpt>
      <trkpt lat="45.19125" lon="5.63254">
        <ele>848.33482</ele>
        <time>2018-08-29T15:28:02Z</time>
      </trkpt>
      <trkpt lat="45.19132" lon="5.63258">
        <ele>848.83498666667</ele>
        <time>2018-08-29T15:28:06Z</time>
      </trkpt>
      <trkpt lat="45.19139" lon="5.63255">
        <ele>849.83534</ele>
        <time>2018-08-29T15:28:10Z</time>
      </trkpt>
      <trkpt lat="45.19146" lon="5.63259">
        <ele>850.93545333333</ele>
        <time>2018-08-29T15:28:14Z</time>
      </trkpt>
      <trkpt lat="45.19151" lon="5.63262">
        <ele>852.13555333333</ele>
        <time>2018-08-29T15:28:17Z</time>
      </trkpt>
      <trkpt lat="45.1916" lon="5.63266">
        <ele>853.73579333333</ele>
        <time>2018-08-29T15:28:20Z</time>
      </trkpt>
      <trkpt lat="45.19172" lon="5.63266">
        <ele>854.73624666667</ele>
        <time>2018-08-29T15:28:25Z</time>
      </trkpt>
      <trkpt lat="45.19183" lon="5.63268">
        <ele>854.53661333333</ele>
        <time>2018-08-29T15:28:28Z</time>
      </trkpt>
      <trkpt lat="45.19214" lon="5.63273">
        <ele>852.53765333333</ele>
        <time>2018-08-29T15:28:33Z</time>
      </trkpt>
      <trkpt lat="45.19245" lon="5.63293">
        <ele>849.73806666667</ele>
        <time>2018-08-29T15:28:37Z</time>
      </trkpt>
      <trkpt lat="45.19264" lon="5.63316">
        <ele>848.33791333333</ele>
        <time>2018-08-29T15:28:41Z</time>
      </trkpt>
      <trkpt lat="45.19268" lon="5.63322">
        <ele>847.73784666667</ele>
        <time>2018-08-29T15:28:44Z</time>
      </trkpt>
      <trkpt lat="45.19273" lon="5.63328">
        <ele>848.63781333333</ele>
        <time>2018-08-29T15:28:49Z</time>
      </trkpt>
      <trkpt lat="45.19274" lon="5.63334">
        <ele>849.23762</ele>
        <time>2018-08-29T15:28:52Z</time>
      </trkpt>
      <trkpt lat="45.19279" lon="5.63341">
        <ele>850.33751333333</ele>
        <time>2018-08-29T15:28:56Z</time>
      </trkpt>
      <trkpt lat="45.19284" lon="5.63347">
        <ele>850.93749333333</ele>
        <time>2018-08-29T15:29:00Z</time>
      </trkpt>
      <trkpt lat="45.19289" lon="5.63356">
        <ele>851.63729333333</ele>
        <time>2018-08-29T15:29:05Z</time>
      </trkpt>
      <trkpt lat="45.19292" lon="5.63362">
        <ele>851.53721333333</ele>
        <time>2018-08-29T15:29:08Z</time>
      </trkpt>
      <trkpt lat="45.19298" lon="5.63369">
        <ele>852.43716</ele>
        <time>2018-08-29T15:29:12Z</time>
      </trkpt>
      <trkpt lat="45.19301" lon="5.63374">
        <ele>852.53708</ele>
        <time>2018-08-29T15:29:15Z</time>
      </trkpt>
      <trkpt lat="45.19308" lon="5.63384">
        <ele>853.03696</ele>
        <time>2018-08-29T15:29:20Z</time>
      </trkpt>
      <trkpt lat="45.19313" lon="5.63394">
        <ele>853.93675333333</ele>
        <time>2018-08-29T15:29:24Z</time>
      </trkpt>
      <trkpt lat="45.1932" lon="5.63405">
        <ele>854.53658666667</ele>
        <time>2018-08-29T15:29:29Z</time>
      </trkpt>
      <trkpt lat="45.19324" lon="5.6341">
        <ele>854.73654</ele>
        <time>2018-08-29T15:29:32Z</time>
      </trkpt>
      <trkpt lat="45.19328" lon="5.63417">
        <ele>855.53641333333</ele>
        <time>2018-08-29T15:29:37Z</time>
      </trkpt>
      <trkpt lat="45.19333" lon="5.6342">
        <ele>856.23650666667</ele>
        <time>2018-08-29T15:29:40Z</time>
      </trkpt>
      <trkpt lat="45.19338" lon="5.63425">
        <ele>856.53651333333</ele>
        <time>2018-08-29T15:29:44Z</time>
      </trkpt>
      <trkpt lat="45.19343" lon="5.63432">
        <ele>856.73644</ele>
        <time>2018-08-29T15:29:48Z</time>
      </trkpt>
      <trkpt lat="45.19348" lon="5.63441">
        <ele>856.73630666667</ele>
        <time>2018-08-29T15:29:53Z</time>
      </trkpt>
      <trkpt lat="45.19358" lon="5.63449">
        <ele>857.13638</ele>
        <time>2018-08-29T15:29:57Z</time>
      </trkpt>
      <trkpt lat="45.19364" lon="5.63458">
        <ele>856.83624666667</ele>
        <time>2018-08-29T15:30:01Z</time>
      </trkpt>
      <trkpt lat="45.19368" lon="5.63465">
        <ele>857.73612666667</ele>
        <time>2018-08-29T15:30:05Z</time>
      </trkpt>
      <trkpt lat="45.19372" lon="5.63471">
        <ele>857.73602666667</ele>
        <time>2018-08-29T15:30:08Z</time>
      </trkpt>
      <trkpt lat="45.19376" lon="5.63481">
        <ele>858.03580666667</ele>
        <time>2018-08-29T15:30:13Z</time>
      </trkpt>
      <trkpt lat="45.19379" lon="5.63487">
        <ele>857.83570666667</ele>
        <time>2018-08-29T15:30:17Z</time>
      </trkpt>
      <trkpt lat="45.19381" lon="5.63493">
        <ele>857.63554666667</ele>
        <time>2018-08-29T15:30:20Z</time>
      </trkpt>
      <trkpt lat="45.19385" lon="5.63504">
        <ele>857.33525333333</ele>
        <time>2018-08-29T15:30:25Z</time>
      </trkpt>
      <trkpt lat="45.19387" lon="5.63512">
        <ele>857.23499333333</ele>
        <time>2018-08-29T15:30:28Z</time>
      </trkpt>
      <trkpt lat="45.1939" lon="5.63523">
        <ele>857.13466666667</ele>
        <time>2018-08-29T15:30:32Z</time>
      </trkpt>
      <trkpt lat="45.19392" lon="5.63534">
        <ele>857.33434</ele>
        <time>2018-08-29T15:30:36Z</time>
      </trkpt>
      <trkpt lat="45.19395" lon="5.63545">
        <ele>857.23398666667</ele>
        <time>2018-08-29T15:30:40Z</time>
      </trkpt>
      <trkpt lat="45.19394" lon="5.63553">
        <ele>857.23362</ele>
        <time>2018-08-29T15:30:44Z</time>
      </trkpt>
      <trkpt lat="45.19394" lon="5.63559">
        <ele>857.63336666667</ele>
        <time>2018-08-29T15:30:49Z</time>
      </trkpt>
      <trkpt lat="45.1939" lon="5.63563">
        <ele>857.63307333333</ele>
        <time>2018-08-29T15:30:52Z</time>
      </trkpt>
      <trkpt lat="45.19385" lon="5.63558">
        <ele>856.73306666667</ele>
        <time>2018-08-29T15:30:56Z</time>
      </trkpt>
      <trkpt lat="45.19383" lon="5.63553">
        <ele>856.73320666667</ele>
        <time>2018-08-29T15:31:00Z</time>
      </trkpt>
      <trkpt lat="45.19381" lon="5.63544">
        <ele>857.73345333333</ele>
        <time>2018-08-29T15:31:04Z</time>
      </trkpt>
      <trkpt lat="45.19377" lon="5.63538">
        <ele>858.33357333333</ele>
        <time>2018-08-29T15:31:08Z</time>
      </trkpt>
      <trkpt lat="45.19371" lon="5.63531">
        <ele>857.93362</ele>
        <time>2018-08-29T15:31:13Z</time>
      </trkpt>
      <trkpt lat="45.19367" lon="5.63526">
        <ele>857.63367333333</ele>
        <time>2018-08-29T15:31:16Z</time>
      </trkpt>
      <trkpt lat="45.19363" lon="5.63518">
        <ele>857.13379333333</ele>
        <time>2018-08-29T15:31:20Z</time>
      </trkpt>
      <trkpt lat="45.1936" lon="5.63509">
        <ele>857.13406</ele>
        <time>2018-08-29T15:31:23Z</time>
      </trkpt>
      <trkpt lat="45.19358" lon="5.63505">
        <ele>857.53414</ele>
        <time>2018-08-29T15:31:26Z</time>
      </trkpt>
      <trkpt lat="45.19354" lon="5.63503">
        <ele>857.33407333333</ele>
        <time>2018-08-29T15:31:30Z</time>
      </trkpt>
      <trkpt lat="45.19351" lon="5.63501">
        <ele>857.83401333333</ele>
        <time>2018-08-29T15:31:34Z</time>
      </trkpt>
      <trkpt lat="45.19345" lon="5.63492">
        <ele>858.73409333333</ele>
        <time>2018-08-29T15:31:38Z</time>
      </trkpt>
      <trkpt lat="45.19337" lon="5.63484">
        <ele>858.83412</ele>
        <time>2018-08-29T15:31:43Z</time>
      </trkpt>
      <trkpt lat="45.1933" lon="5.6348">
        <ele>859.23400666667</ele>
        <time>2018-08-29T15:31:46Z</time>
      </trkpt>
      <trkpt lat="45.19325" lon="5.63484">
        <ele>858.93364</ele>
        <time>2018-08-29T15:31:51Z</time>
      </trkpt>
      <trkpt lat="45.19325" lon="5.63495">
        <ele>858.63318666667</ele>
        <time>2018-08-29T15:31:56Z</time>
      </trkpt>
      <trkpt lat="45.19326" lon="5.63502">
        <ele>858.23296666667</ele>
        <time>2018-08-29T15:32:01Z</time>
      </trkpt>
      <trkpt lat="45.19328" lon="5.63505">
        <ele>858.23288666667</ele>
        <time>2018-08-29T15:32:04Z</time>
      </trkpt>
      <trkpt lat="45.1933" lon="5.63512">
        <ele>859.03274</ele>
        <time>2018-08-29T15:32:08Z</time>
      </trkpt>
      <trkpt lat="45.19336" lon="5.63519">
        <ele>860.13267333333</ele>
        <time>2018-08-29T15:32:12Z</time>
      </trkpt>
      <trkpt lat="45.19338" lon="5.63525">
        <ele>860.93252666667</ele>
        <time>2018-08-29T15:32:16Z</time>
      </trkpt>
      <trkpt lat="45.19342" lon="5.63532">
        <ele>861.73241333333</ele>
        <time>2018-08-29T15:32:20Z</time>
      </trkpt>
      <trkpt lat="45.19345" lon="5.63539">
        <ele>861.93222666667</ele>
        <time>2018-08-29T15:32:24Z</time>
      </trkpt>
      <trkpt lat="45.19347" lon="5.63548">
        <ele>861.53195333333</ele>
        <time>2018-08-29T15:32:28Z</time>
      </trkpt>
      <trkpt lat="45.19349" lon="5.63557">
        <ele>861.13168</ele>
        <time>2018-08-29T15:32:32Z</time>
      </trkpt>
      <trkpt lat="45.19351" lon="5.63565">
        <ele>860.73143333333</ele>
        <time>2018-08-29T15:32:36Z</time>
      </trkpt>
      <trkpt lat="45.19353" lon="5.63571">
        <ele>860.73128666667</ele>
        <time>2018-08-29T15:32:40Z</time>
      </trkpt>
      <trkpt lat="45.19357" lon="5.63579">
        <ele>860.73111333333</ele>
        <time>2018-08-29T15:32:45Z</time>
      </trkpt>
      <trkpt lat="45.19358" lon="5.6359">
        <ele>861.13075333333</ele>
        <time>2018-08-29T15:32:48Z</time>
      </trkpt>
      <trkpt lat="45.19361" lon="5.63598">
        <ele>860.53053333333</ele>
        <time>2018-08-29T15:32:52Z</time>
      </trkpt>
      <trkpt lat="45.19363" lon="5.63609">
        <ele>862.03015333333</ele>
        <time>2018-08-29T15:32:56Z</time>
      </trkpt>
      <trkpt lat="45.19367" lon="5.63618">
        <ele>863.12996</ele>
        <time>2018-08-29T15:33:01Z</time>
      </trkpt>
      <trkpt lat="45.19369" lon="5.63624">
        <ele>863.1298</ele>
        <time>2018-08-29T15:33:04Z</time>
      </trkpt>
      <trkpt lat="45.1937" lon="5.63629">
        <ele>864.72964</ele>
        <time>2018-08-29T15:33:08Z</time>
      </trkpt>
      <trkpt lat="45.1937" lon="5.63635">
        <ele>865.72940666667</ele>
        <time>2018-08-29T15:33:13Z</time>
      </trkpt>
      <trkpt lat="45.19371" lon="5.63641">
        <ele>866.12920666667</ele>
        <time>2018-08-29T15:33:18Z</time>
      </trkpt>
      <trkpt lat="45.19369" lon="5.63646">
        <ele>866.52890666667</ele>
        <time>2018-08-29T15:33:22Z</time>
      </trkpt>
      <trkpt lat="45.19369" lon="5.63651">
        <ele>867.02869333333</ele>
        <time>2018-08-29T15:33:26Z</time>
      </trkpt>
      <trkpt lat="45.19369" lon="5.63655">
        <ele>867.42855333333</ele>
        <time>2018-08-29T15:33:29Z</time>
      </trkpt>
      <trkpt lat="45.19371" lon="5.63663">
        <ele>868.12831333333</ele>
        <time>2018-08-29T15:33:33Z</time>
      </trkpt>
      <trkpt lat="45.19374" lon="5.63671">
        <ele>869.32812</ele>
        <time>2018-08-29T15:33:37Z</time>
      </trkpt>
      <trkpt lat="45.19377" lon="5.6368">
        <ele>870.72786</ele>
        <time>2018-08-29T15:33:42Z</time>
      </trkpt>
      <trkpt lat="45.19379" lon="5.63691">
        <ele>871.42752</ele>
        <time>2018-08-29T15:33:46Z</time>
      </trkpt>
      <trkpt lat="45.19381" lon="5.637">
        <ele>871.82725333333</ele>
        <time>2018-08-29T15:33:50Z</time>
      </trkpt>
      <trkpt lat="45.19381" lon="5.63709">
        <ele>872.22688666667</ele>
        <time>2018-08-29T15:33:54Z</time>
      </trkpt>
      <trkpt lat="45.19381" lon="5.63718">
        <ele>872.52653333333</ele>
        <time>2018-08-29T15:33:58Z</time>
      </trkpt>
      <trkpt lat="45.19381" lon="5.6373">
        <ele>872.72603333333</ele>
        <time>2018-08-29T15:34:02Z</time>
      </trkpt>
      <trkpt lat="45.19382" lon="5.6374">
        <ele>873.22566</ele>
        <time>2018-08-29T15:34:07Z</time>
      </trkpt>
      <trkpt lat="45.19383" lon="5.6375">
        <ele>873.32530666667</ele>
        <time>2018-08-29T15:34:10Z</time>
      </trkpt>
      <trkpt lat="45.19383" lon="5.63763">
        <ele>873.6248</ele>
        <time>2018-08-29T15:34:14Z</time>
      </trkpt>
      <trkpt lat="45.19382" lon="5.63778">
        <ele>874.32418</ele>
        <time>2018-08-29T15:34:19Z</time>
      </trkpt>
      <trkpt lat="45.19384" lon="5.63791">
        <ele>875.12373333333</ele>
        <time>2018-08-29T15:34:24Z</time>
      </trkpt>
      <trkpt lat="45.19387" lon="5.638">
        <ele>875.4235</ele>
        <time>2018-08-29T15:34:28Z</time>
      </trkpt>
      <trkpt lat="45.19391" lon="5.63813">
        <ele>875.72314</ele>
        <time>2018-08-29T15:34:32Z</time>
      </trkpt>
      <trkpt lat="45.19393" lon="5.63824">
        <ele>876.72273333333</ele>
        <time>2018-08-29T15:34:35Z</time>
      </trkpt>
      <trkpt lat="45.19394" lon="5.63845">
        <ele>881.22192666667</ele>
        <time>2018-08-29T15:34:40Z</time>
      </trkpt>
      <trkpt lat="45.19397" lon="5.63856">
        <ele>883.82164</ele>
        <time>2018-08-29T15:34:44Z</time>
      </trkpt>
      <trkpt lat="45.19404" lon="5.63864">
        <ele>886.12158</ele>
        <time>2018-08-29T15:34:49Z</time>
      </trkpt>
      <trkpt lat="45.19412" lon="5.63871">
        <ele>888.02162</ele>
        <time>2018-08-29T15:34:54Z</time>
      </trkpt>
      <trkpt lat="45.19418" lon="5.63876">
        <ele>889.22167333333</ele>
        <time>2018-08-29T15:34:58Z</time>
      </trkpt>
      <trkpt lat="45.19422" lon="5.63885">
        <ele>890.52144666667</ele>
        <time>2018-08-29T15:35:02Z</time>
      </trkpt>
      <trkpt lat="45.19426" lon="5.63892">
        <ele>891.92138666667</ele>
        <time>2018-08-29T15:35:05Z</time>
      </trkpt>
      <trkpt lat="45.19432" lon="5.63896">
        <ele>893.02142666667</ele>
        <time>2018-08-29T15:35:09Z</time>
      </trkpt>
      <trkpt lat="45.1944" lon="5.63902">
        <ele>894.02152</ele>
        <time>2018-08-29T15:35:14Z</time>
      </trkpt>
      <trkpt lat="45.19445" lon="5.63905">
        <ele>895.22159333333</ele>
        <time>2018-08-29T15:35:17Z</time>
      </trkpt>
      <trkpt lat="45.19448" lon="5.63912">
        <ele>896.02145333333</ele>
        <time>2018-08-29T15:35:20Z</time>
      </trkpt>
      <trkpt lat="45.19456" lon="5.63923">
        <ele>897.02131333333</ele>
        <time>2018-08-29T15:35:24Z</time>
      </trkpt>
      <trkpt lat="45.19462" lon="5.63932">
        <ele>897.72118</ele>
        <time>2018-08-29T15:35:28Z</time>
      </trkpt>
      <trkpt lat="45.19469" lon="5.63942">
        <ele>898.22109333333</ele>
        <time>2018-08-29T15:35:32Z</time>
      </trkpt>
      <trkpt lat="45.19478" lon="5.63957">
        <ele>898.52085333333</ele>
        <time>2018-08-29T15:35:37Z</time>
      </trkpt>
      <trkpt lat="45.19481" lon="5.63966">
        <ele>899.22061333333</ele>
        <time>2018-08-29T15:35:40Z</time>
      </trkpt>
      <trkpt lat="45.19485" lon="5.63975">
        <ele>899.82041333333</ele>
        <time>2018-08-29T15:35:44Z</time>
      </trkpt>
      <trkpt lat="45.19493" lon="5.63986">
        <ele>902.32026666667</ele>
        <time>2018-08-29T15:35:49Z</time>
      </trkpt>
      <trkpt lat="45.19497" lon="5.63997">
        <ele>903.12002666667</ele>
        <time>2018-08-29T15:35:54Z</time>
      </trkpt>
      <trkpt lat="45.19503" lon="5.64007">
        <ele>905.91985333333</ele>
        <time>2018-08-29T15:35:58Z</time>
      </trkpt>
      <trkpt lat="45.19509" lon="5.64017">
        <ele>909.01968</ele>
        <time>2018-08-29T15:36:02Z</time>
      </trkpt>
      <trkpt lat="45.19516" lon="5.64029">
        <ele>910.61946666667</ele>
        <time>2018-08-29T15:36:07Z</time>
      </trkpt>
      <trkpt lat="45.19519" lon="5.64035">
        <ele>911.71934666667</ele>
        <time>2018-08-29T15:36:10Z</time>
      </trkpt>
      <trkpt lat="45.19524" lon="5.64043">
        <ele>912.81922</ele>
        <time>2018-08-29T15:36:14Z</time>
      </trkpt>
      <trkpt lat="45.19528" lon="5.64054">
        <ele>913.81899333333</ele>
        <time>2018-08-29T15:36:18Z</time>
      </trkpt>
      <trkpt lat="45.19533" lon="5.64063">
        <ele>913.81879333333</ele>
        <time>2018-08-29T15:36:22Z</time>
      </trkpt>
      <trkpt lat="45.19538" lon="5.64074">
        <ele>914.61858</ele>
        <time>2018-08-29T15:36:26Z</time>
      </trkpt>
      <trkpt lat="45.19542" lon="5.64084">
        <ele>915.91835333333</ele>
        <time>2018-08-29T15:36:30Z</time>
      </trkpt>
      <trkpt lat="45.19547" lon="5.64094">
        <ele>916.61811333333</ele>
        <time>2018-08-29T15:36:34Z</time>
      </trkpt>
      <trkpt lat="45.1955" lon="5.64105">
        <ele>917.21782</ele>
        <time>2018-08-29T15:36:38Z</time>
      </trkpt>
      <trkpt lat="45.19553" lon="5.64118">
        <ele>918.01739333333</ele>
        <time>2018-08-29T15:36:43Z</time>
      </trkpt>
      <trkpt lat="45.19555" lon="5.64127">
        <ele>918.71710666667</ele>
        <time>2018-08-29T15:36:46Z</time>
      </trkpt>
      <trkpt lat="45.19555" lon="5.64137">
        <ele>919.71672666667</ele>
        <time>2018-08-29T15:36:50Z</time>
      </trkpt>
      <trkpt lat="45.19555" lon="5.64149">
        <ele>920.31624666667</ele>
        <time>2018-08-29T15:36:54Z</time>
      </trkpt>
      <trkpt lat="45.19555" lon="5.64158">
        <ele>920.71586666667</ele>
        <time>2018-08-29T15:36:58Z</time>
      </trkpt>
      <trkpt lat="45.19554" lon="5.64166">
        <ele>921.31550666667</ele>
        <time>2018-08-29T15:37:02Z</time>
      </trkpt>
      <trkpt lat="45.1955" lon="5.64179">
        <ele>921.91484666667</ele>
        <time>2018-08-29T15:37:07Z</time>
      </trkpt>
      <trkpt lat="45.19545" lon="5.64186">
        <ele>922.61433333333</ele>
        <time>2018-08-29T15:37:10Z</time>
      </trkpt>
      <trkpt lat="45.19533" lon="5.64188">
        <ele>924.11382</ele>
        <time>2018-08-29T15:37:14Z</time>
      </trkpt>
      <trkpt lat="45.19521" lon="5.64181">
        <ele>925.61358</ele>
        <time>2018-08-29T15:37:19Z</time>
      </trkpt>
      <trkpt lat="45.19515" lon="5.64175">
        <ele>926.21362</ele>
        <time>2018-08-29T15:37:22Z</time>
      </trkpt>
      <trkpt lat="45.19507" lon="5.64163">
        <ele>927.11377333333</ele>
        <time>2018-08-29T15:37:27Z</time>
      </trkpt>
      <trkpt lat="45.19501" lon="5.64152">
        <ele>927.21395333333</ele>
        <time>2018-08-29T15:37:31Z</time>
      </trkpt>
      <trkpt lat="45.19493" lon="5.64138">
        <ele>927.81417333333</ele>
        <time>2018-08-29T15:37:36Z</time>
      </trkpt>
      <trkpt lat="45.19486" lon="5.64128">
        <ele>928.01431333333</ele>
        <time>2018-08-29T15:37:40Z</time>
      </trkpt>
      <trkpt lat="45.19479" lon="5.64118">
        <ele>928.31444666667</ele>
        <time>2018-08-29T15:37:44Z</time>
      </trkpt>
      <trkpt lat="45.19471" lon="5.64106">
        <ele>928.51458</ele>
        <time>2018-08-29T15:37:49Z</time>
      </trkpt>
      <trkpt lat="45.19466" lon="5.64099">
        <ele>928.81466666667</ele>
        <time>2018-08-29T15:37:52Z</time>
      </trkpt>
      <trkpt lat="45.1946" lon="5.6409">
        <ele>928.51481333333</ele>
        <time>2018-08-29T15:37:56Z</time>
      </trkpt>
      <trkpt lat="45.19455" lon="5.64081">
        <ele>928.11496</ele>
        <time>2018-08-29T15:38:00Z</time>
      </trkpt>
      <trkpt lat="45.1945" lon="5.64072">
        <ele>928.31511333333</ele>
        <time>2018-08-29T15:38:04Z</time>
      </trkpt>
      <trkpt lat="45.19447" lon="5.64067">
        <ele>928.61522</ele>
        <time>2018-08-29T15:38:07Z</time>
      </trkpt>
      <trkpt lat="45.19442" lon="5.64059">
        <ele>928.61532666667</ele>
        <time>2018-08-29T15:38:12Z</time>
      </trkpt>
      <trkpt lat="45.19438" lon="5.64054">
        <ele>928.61534</ele>
        <time>2018-08-29T15:38:16Z</time>
      </trkpt>
      <trkpt lat="45.19432" lon="5.64049">
        <ele>928.21532666667</ele>
        <time>2018-08-29T15:38:20Z</time>
      </trkpt>
      <trkpt lat="45.19427" lon="5.64043">
        <ele>928.01538</ele>
        <time>2018-08-29T15:38:24Z</time>
      </trkpt>
      <trkpt lat="45.19423" lon="5.64038">
        <ele>927.81539333333</ele>
        <time>2018-08-29T15:38:28Z</time>
      </trkpt>
      <trkpt lat="45.19418" lon="5.64033">
        <ele>927.81542</ele>
        <time>2018-08-29T15:38:32Z</time>
      </trkpt>
      <trkpt lat="45.19412" lon="5.64027">
        <ele>927.91540666667</ele>
        <time>2018-08-29T15:38:36Z</time>
      </trkpt>
      <trkpt lat="45.19407" lon="5.64022">
        <ele>927.81542</ele>
        <time>2018-08-29T15:38:40Z</time>
      </trkpt>
      <trkpt lat="45.19403" lon="5.64017">
        <ele>927.71544666667</ele>
        <time>2018-08-29T15:38:44Z</time>
      </trkpt>
      <trkpt lat="45.19398" lon="5.6401">
        <ele>927.7155</ele>
        <time>2018-08-29T15:38:48Z</time>
      </trkpt>
      <trkpt lat="45.19393" lon="5.64004">
        <ele>927.81557333333</ele>
        <time>2018-08-29T15:38:52Z</time>
      </trkpt>
      <trkpt lat="45.19387" lon="5.63995">
        <ele>927.91568</ele>
        <time>2018-08-29T15:38:57Z</time>
      </trkpt>
      <trkpt lat="45.19379" lon="5.63983">
        <ele>927.71582</ele>
        <time>2018-08-29T15:39:02Z</time>
      </trkpt>
      <trkpt lat="45.19373" lon="5.63975">
        <ele>927.21592666667</ele>
        <time>2018-08-29T15:39:06Z</time>
      </trkpt>
      <trkpt lat="45.19365" lon="5.63965">
        <ele>926.91603333333</ele>
        <time>2018-08-29T15:39:10Z</time>
      </trkpt>
      <trkpt lat="45.19358" lon="5.63955">
        <ele>926.01613333333</ele>
        <time>2018-08-29T15:39:14Z</time>
      </trkpt>
      <trkpt lat="45.19351" lon="5.63947">
        <ele>926.41615333333</ele>
        <time>2018-08-29T15:39:18Z</time>
      </trkpt>
      <trkpt lat="45.19345" lon="5.63941">
        <ele>926.91616</ele>
        <time>2018-08-29T15:39:23Z</time>
      </trkpt>
      <trkpt lat="45.19342" lon="5.63936">
        <ele>927.01625333333</ele>
        <time>2018-08-29T15:39:27Z</time>
      </trkpt>
      <trkpt lat="45.19339" lon="5.6393">
        <ele>927.31634666667</ele>
        <time>2018-08-29T15:39:31Z</time>
      </trkpt>
      <trkpt lat="45.19334" lon="5.63924">
        <ele>928.21636666667</ele>
        <time>2018-08-29T15:39:36Z</time>
      </trkpt>
      <trkpt lat="45.19327" lon="5.6392">
        <ele>929.21631333333</ele>
        <time>2018-08-29T15:39:40Z</time>
      </trkpt>
      <trkpt lat="45.19322" lon="5.63912">
        <ele>929.8164</ele>
        <time>2018-08-29T15:39:44Z</time>
      </trkpt>
      <trkpt lat="45.19313" lon="5.63901">
        <ele>932.6165</ele>
        <time>2018-08-29T15:39:49Z</time>
      </trkpt>
      <trkpt lat="45.19309" lon="5.63894">
        <ele>933.51657333333</ele>
        <time>2018-08-29T15:39:52Z</time>
      </trkpt>
      <trkpt lat="45.19303" lon="5.63889">
        <ele>934.51655333333</ele>
        <time>2018-08-29T15:39:56Z</time>
      </trkpt>
      <trkpt lat="45.19297" lon="5.63884">
        <ele>936.01652666667</ele>
        <time>2018-08-29T15:40:00Z</time>
      </trkpt>
      <trkpt lat="45.1929" lon="5.63878">
        <ele>938.61651333333</ele>
        <time>2018-08-29T15:40:04Z</time>
      </trkpt>
      <trkpt lat="45.19286" lon="5.63874">
        <ele>939.7165</ele>
        <time>2018-08-29T15:40:07Z</time>
      </trkpt>
      <trkpt lat="45.19278" lon="5.63866">
        <ele>941.01648666667</ele>
        <time>2018-08-29T15:40:12Z</time>
      </trkpt>
      <trkpt lat="45.19273" lon="5.6386">
        <ele>942.21650666667</ele>
        <time>2018-08-29T15:40:16Z</time>
      </trkpt>
      <trkpt lat="45.19266" lon="5.63852">
        <ele>942.81656</ele>
        <time>2018-08-29T15:40:21Z</time>
      </trkpt>
      <trkpt lat="45.1926" lon="5.63845">
        <ele>943.61659333333</ele>
        <time>2018-08-29T15:40:25Z</time>
      </trkpt>
      <trkpt lat="45.19255" lon="5.6384">
        <ele>943.91662666667</ele>
        <time>2018-08-29T15:40:28Z</time>
      </trkpt>
      <trkpt lat="45.1925" lon="5.63833">
        <ele>944.41667333333</ele>
        <time>2018-08-29T15:40:32Z</time>
      </trkpt>
      <trkpt lat="45.19242" lon="5.63823">
        <ele>944.81678666667</ele>
        <time>2018-08-29T15:40:37Z</time>
      </trkpt>
      <trkpt lat="45.19236" lon="5.63812">
        <ele>945.71693333333</ele>
        <time>2018-08-29T15:40:42Z</time>
      </trkpt>
      <trkpt lat="45.19232" lon="5.63806">
        <ele>946.01702666667</ele>
        <time>2018-08-29T15:40:45Z</time>
      </trkpt>
      <trkpt lat="45.19226" lon="5.63795">
        <ele>945.71725333333</ele>
        <time>2018-08-29T15:40:49Z</time>
      </trkpt>
      <trkpt lat="45.19222" lon="5.63785">
        <ele>945.11744666667</ele>
        <time>2018-08-29T15:40:52Z</time>
      </trkpt>
      <trkpt lat="45.19215" lon="5.63773">
        <ele>945.31768666667</ele>
        <time>2018-08-29T15:40:56Z</time>
      </trkpt>
      <trkpt lat="45.19209" lon="5.6376">
        <ele>945.31794666667</ele>
        <time>2018-08-29T15:41:00Z</time>
      </trkpt>
      <trkpt lat="45.19201" lon="5.63746">
        <ele>945.9182</ele>
        <time>2018-08-29T15:41:04Z</time>
      </trkpt>
      <trkpt lat="45.19197" lon="5.63736">
        <ele>945.81843333333</ele>
        <time>2018-08-29T15:41:07Z</time>
      </trkpt>
      <trkpt lat="45.19192" lon="5.63726">
        <ele>946.31864</ele>
        <time>2018-08-29T15:41:10Z</time>
      </trkpt>
      <trkpt lat="45.19186" lon="5.63714">
        <ele>946.4189</ele>
        <time>2018-08-29T15:41:14Z</time>
      </trkpt>
      <trkpt lat="45.19182" lon="5.63705">
        <ele>946.41909333333</ele>
        <time>2018-08-29T15:41:17Z</time>
      </trkpt>
      <trkpt lat="45.19178" lon="5.63696">
        <ele>946.01926666667</ele>
        <time>2018-08-29T15:41:20Z</time>
      </trkpt>
      <trkpt lat="45.19171" lon="5.63683">
        <ele>946.11951333333</ele>
        <time>2018-08-29T15:41:24Z</time>
      </trkpt>
      <trkpt lat="45.19166" lon="5.63672">
        <ele>946.41974666667</ele>
        <time>2018-08-29T15:41:28Z</time>
      </trkpt>
      <trkpt lat="45.19161" lon="5.63662">
        <ele>945.31994666667</ele>
        <time>2018-08-29T15:41:32Z</time>
      </trkpt>
      <trkpt lat="45.19155" lon="5.63651">
        <ele>944.32019333333</ele>
        <time>2018-08-29T15:41:36Z</time>
      </trkpt>
      <trkpt lat="45.1915" lon="5.6364">
        <ele>943.92042666667</ele>
        <time>2018-08-29T15:41:40Z</time>
      </trkpt>
      <trkpt lat="45.19147" lon="5.63632">
        <ele>943.12060666667</ele>
        <time>2018-08-29T15:41:43Z</time>
      </trkpt>
      <trkpt lat="45.19139" lon="5.63617">
        <ele>942.62086666667</ele>
        <time>2018-08-29T15:41:48Z</time>
      </trkpt>
      <trkpt lat="45.19133" lon="5.63605">
        <ele>942.22108666667</ele>
        <time>2018-08-29T15:41:52Z</time>
      </trkpt>
      <trkpt lat="45.19127" lon="5.63592">
        <ele>941.72140666667</ele>
        <time>2018-08-29T15:41:56Z</time>
      </trkpt>
      <trkpt lat="45.19123" lon="5.63582">
        <ele>940.72161333333</ele>
        <time>2018-08-29T15:42:00Z</time>
      </trkpt>
      <trkpt lat="45.19119" lon="5.63572">
        <ele>939.82188</ele>
        <time>2018-08-29T15:42:04Z</time>
      </trkpt>
      <trkpt lat="45.19115" lon="5.63563">
        <ele>939.02208666667</ele>
        <time>2018-08-29T15:42:08Z</time>
      </trkpt>
      <trkpt lat="45.19112" lon="5.63555">
        <ele>938.42226</ele>
        <time>2018-08-29T15:42:12Z</time>
      </trkpt>
      <trkpt lat="45.19107" lon="5.63548">
        <ele>938.62236666667</ele>
        <time>2018-08-29T15:42:16Z</time>
      </trkpt>
      <trkpt lat="45.19103" lon="5.63538">
        <ele>939.32259333333</ele>
        <time>2018-08-29T15:42:20Z</time>
      </trkpt>
      <trkpt lat="45.19098" lon="5.63527">
        <ele>939.42283333333</ele>
        <time>2018-08-29T15:42:24Z</time>
      </trkpt>
      <trkpt lat="45.19093" lon="5.63516">
        <ele>939.82309333333</ele>
        <time>2018-08-29T15:42:28Z</time>
      </trkpt>
      <trkpt lat="45.19089" lon="5.63506">
        <ele>939.82334</ele>
        <time>2018-08-29T15:42:32Z</time>
      </trkpt>
      <trkpt lat="45.19083" lon="5.63489">
        <ele>940.72376666667</ele>
        <time>2018-08-29T15:42:37Z</time>
      </trkpt>
      <trkpt lat="45.19078" lon="5.63474">
        <ele>942.02417333333</ele>
        <time>2018-08-29T15:42:42Z</time>
      </trkpt>
      <trkpt lat="45.19073" lon="5.63461">
        <ele>943.02448666667</ele>
        <time>2018-08-29T15:42:46Z</time>
      </trkpt>
      <trkpt lat="45.19068" lon="5.6345">
        <ele>944.22474666667</ele>
        <time>2018-08-29T15:42:50Z</time>
      </trkpt>
      <trkpt lat="45.19062" lon="5.63438">
        <ele>946.32497333333</ele>
        <time>2018-08-29T15:42:55Z</time>
      </trkpt>
      <trkpt lat="45.19058" lon="5.63428">
        <ele>949.1252</ele>
        <time>2018-08-29T15:43:00Z</time>
      </trkpt>
      <trkpt lat="45.19053" lon="5.63425">
        <ele>950.02514666667</ele>
        <time>2018-08-29T15:43:04Z</time>
      </trkpt>
      <trkpt lat="45.19049" lon="5.63422">
        <ele>951.12507333333</ele>
        <time>2018-08-29T15:43:07Z</time>
      </trkpt>
      <trkpt lat="45.19042" lon="5.6342">
        <ele>952.22491333333</ele>
        <time>2018-08-29T15:43:12Z</time>
      </trkpt>
      <trkpt lat="45.19037" lon="5.6342">
        <ele>953.02465333333</ele>
        <time>2018-08-29T15:43:16Z</time>
      </trkpt>
      <trkpt lat="45.19032" lon="5.63424">
        <ele>953.82434</ele>
        <time>2018-08-29T15:43:20Z</time>
      </trkpt>
      <trkpt lat="45.19028" lon="5.63427">
        <ele>954.62405333333</ele>
        <time>2018-08-29T15:43:24Z</time>
      </trkpt>
      <trkpt lat="45.19023" lon="5.6343">
        <ele>955.32374666667</ele>
        <time>2018-08-29T15:43:28Z</time>
      </trkpt>
      <trkpt lat="45.19019" lon="5.63431">
        <ele>956.22352666667</ele>
        <time>2018-08-29T15:43:32Z</time>
      </trkpt>
      <trkpt lat="45.19015" lon="5.63434">
        <ele>956.52324666667</ele>
        <time>2018-08-29T15:43:36Z</time>
      </trkpt>
      <trkpt lat="45.1901" lon="5.63435">
        <ele>957.52298</ele>
        <time>2018-08-29T15:43:40Z</time>
      </trkpt>
      <trkpt lat="45.19005" lon="5.63438">
        <ele>958.12267333333</ele>
        <time>2018-08-29T15:43:44Z</time>
      </trkpt>
      <trkpt lat="45.19" lon="5.63442">
        <ele>958.82231333333</ele>
        <time>2018-08-29T15:43:48Z</time>
      </trkpt>
      <trkpt lat="45.18996" lon="5.63445">
        <ele>959.72204666667</ele>
        <time>2018-08-29T15:43:52Z</time>
      </trkpt>
      <trkpt lat="45.18991" lon="5.63447">
        <ele>960.92174666667</ele>
        <time>2018-08-29T15:43:56Z</time>
      </trkpt>
      <trkpt lat="45.18984" lon="5.63445">
        <ele>962.62156</ele>
        <time>2018-08-29T15:44:00Z</time>
      </trkpt>
      <trkpt lat="45.1898" lon="5.63443">
        <ele>963.12146666667</ele>
        <time>2018-08-29T15:44:03Z</time>
      </trkpt>
      <trkpt lat="45.18975" lon="5.63438">
        <ele>963.62146666667</ele>
        <time>2018-08-29T15:44:07Z</time>
      </trkpt>
      <trkpt lat="45.1897" lon="5.63434">
        <ele>964.22142666667</ele>
        <time>2018-08-29T15:44:11Z</time>
      </trkpt>
      <trkpt lat="45.18963" lon="5.63428">
        <ele>964.52141333333</ele>
        <time>2018-08-29T15:44:16Z</time>
      </trkpt>
      <trkpt lat="45.18958" lon="5.63423">
        <ele>964.72141333333</ele>
        <time>2018-08-29T15:44:20Z</time>
      </trkpt>
      <trkpt lat="45.18952" lon="5.63417">
        <ele>965.22141333333</ele>
        <time>2018-08-29T15:44:25Z</time>
      </trkpt>
      <trkpt lat="45.18947" lon="5.63414">
        <ele>966.32135333333</ele>
        <time>2018-08-29T15:44:29Z</time>
      </trkpt>
      <trkpt lat="45.1894" lon="5.63413">
        <ele>967.02110666667</ele>
        <time>2018-08-29T15:44:34Z</time>
      </trkpt>
      <trkpt lat="45.18935" lon="5.63411">
        <ele>968.02094</ele>
        <time>2018-08-29T15:44:38Z</time>
      </trkpt>
      <trkpt lat="45.1893" lon="5.63414">
        <ele>968.42062</ele>
        <time>2018-08-29T15:44:42Z</time>
      </trkpt>
      <trkpt lat="45.18924" lon="5.63419">
        <ele>969.02020666667</ele>
        <time>2018-08-29T15:44:47Z</time>
      </trkpt>
      <trkpt lat="45.18921" lon="5.63422">
        <ele>969.21993333333</ele>
        <time>2018-08-29T15:44:50Z</time>
      </trkpt>
      <trkpt lat="45.18915" lon="5.63428">
        <ele>969.4195</ele>
        <time>2018-08-29T15:44:54Z</time>
      </trkpt>
      <trkpt lat="45.18909" lon="5.63431">
        <ele>969.61911333333</ele>
        <time>2018-08-29T15:44:58Z</time>
      </trkpt>
      <trkpt lat="45.18903" lon="5.63435">
        <ele>969.81871333333</ele>
        <time>2018-08-29T15:45:02Z</time>
      </trkpt>
      <trkpt lat="45.18896" lon="5.63438">
        <ele>969.91832666667</ele>
        <time>2018-08-29T15:45:06Z</time>
      </trkpt>
      <trkpt lat="45.1889" lon="5.63443">
        <ele>969.91787333333</ele>
        <time>2018-08-29T15:45:10Z</time>
      </trkpt>
      <trkpt lat="45.18883" lon="5.63447">
        <ele>969.91742</ele>
        <time>2018-08-29T15:45:14Z</time>
      </trkpt>
      <trkpt lat="45.18879" lon="5.63447">
        <ele>970.21729333333</ele>
        <time>2018-08-29T15:45:38Z</time>
      </trkpt>
      <trkpt lat="45.18876" lon="5.63451">
        <ele>969.717</ele>
        <time>2018-08-29T15:45:48Z</time>
      </trkpt>
      <trkpt lat="45.18879" lon="5.63461">
        <ele>969.11675333333</ele>
        <time>2018-08-29T15:45:53Z</time>
      </trkpt>
      <trkpt lat="45.18878" lon="5.63469">
        <ele>968.81636666667</ele>
        <time>2018-08-29T15:45:57Z</time>
      </trkpt>
      <trkpt lat="45.18878" lon="5.63475">
        <ele>968.81613333333</ele>
        <time>2018-08-29T15:46:01Z</time>
      </trkpt>
      <trkpt lat="45.1888" lon="5.63484">
        <ele>968.91583333333</ele>
        <time>2018-08-29T15:46:05Z</time>
      </trkpt>
      <trkpt lat="45.1888" lon="5.63491">
        <ele>969.41556</ele>
        <time>2018-08-29T15:46:10Z</time>
      </trkpt>
      <trkpt lat="45.18881" lon="5.63497">
        <ele>969.71538</ele>
        <time>2018-08-29T15:46:14Z</time>
      </trkpt>
      <trkpt lat="45.18883" lon="5.63504">
        <ele>969.91516666667</ele>
        <time>2018-08-29T15:46:19Z</time>
      </trkpt>
      <trkpt lat="45.18887" lon="5.63507">
        <ele>970.21516666667</ele>
        <time>2018-08-29T15:46:22Z</time>
      </trkpt>
      <trkpt lat="45.18889" lon="5.63513">
        <ele>970.61506666667</ele>
        <time>2018-08-29T15:46:26Z</time>
      </trkpt>
      <trkpt lat="45.18892" lon="5.63521">
        <ele>970.91484</ele>
        <time>2018-08-29T15:46:30Z</time>
      </trkpt>
      <trkpt lat="45.18895" lon="5.6353">
        <ele>971.21461333333</ele>
        <time>2018-08-29T15:46:34Z</time>
      </trkpt>
      <trkpt lat="45.18898" lon="5.63538">
        <ele>971.41441333333</ele>
        <time>2018-08-29T15:46:38Z</time>
      </trkpt>
      <trkpt lat="45.18899" lon="5.63543">
        <ele>971.61424</ele>
        <time>2018-08-29T15:46:41Z</time>
      </trkpt>
      <trkpt lat="45.18902" lon="5.63553">
        <ele>972.01396</ele>
        <time>2018-08-29T15:46:46Z</time>
      </trkpt>
      <trkpt lat="45.18904" lon="5.63562">
        <ele>972.51368666667</ele>
        <time>2018-08-29T15:46:50Z</time>
      </trkpt>
      <trkpt lat="45.18905" lon="5.63569">
        <ele>972.71345333333</ele>
        <time>2018-08-29T15:46:54Z</time>
      </trkpt>
      <trkpt lat="45.18907" lon="5.63578">
        <ele>972.81316</ele>
        <time>2018-08-29T15:46:59Z</time>
      </trkpt>
      <trkpt lat="45.18907" lon="5.63584">
        <ele>973.31294</ele>
        <time>2018-08-29T15:47:02Z</time>
      </trkpt>
      <trkpt lat="45.18908" lon="5.63589">
        <ele>973.91278</ele>
        <time>2018-08-29T15:47:06Z</time>
      </trkpt>
      <trkpt lat="45.18912" lon="5.63597">
        <ele>974.21259333333</ele>
        <time>2018-08-29T15:47:10Z</time>
      </trkpt>
      <trkpt lat="45.18917" lon="5.63607">
        <ele>974.61238</ele>
        <time>2018-08-29T15:47:14Z</time>
      </trkpt>
      <trkpt lat="45.18919" lon="5.6362">
        <ele>974.71196666667</ele>
        <time>2018-08-29T15:47:19Z</time>
      </trkpt>
      <trkpt lat="45.18922" lon="5.6363">
        <ele>974.91168666667</ele>
        <time>2018-08-29T15:47:23Z</time>
      </trkpt>
      <trkpt lat="45.18924" lon="5.63639">
        <ele>974.9114</ele>
        <time>2018-08-29T15:47:26Z</time>
      </trkpt>
      <trkpt lat="45.18927" lon="5.63652">
        <ele>974.81102</ele>
        <time>2018-08-29T15:47:30Z</time>
      </trkpt>
      <trkpt lat="45.1893" lon="5.63662">
        <ele>974.81072</ele>
        <time>2018-08-29T15:47:34Z</time>
      </trkpt>
      <trkpt lat="45.18934" lon="5.63674">
        <ele>975.21038666667</ele>
        <time>2018-08-29T15:47:38Z</time>
      </trkpt>
      <trkpt lat="45.18937" lon="5.63687">
        <ele>976.31002666667</ele>
        <time>2018-08-29T15:47:42Z</time>
      </trkpt>
      <trkpt lat="45.1894" lon="5.63697">
        <ele>976.9097</ele>
        <time>2018-08-29T15:47:46Z</time>
      </trkpt>
      <trkpt lat="45.18943" lon="5.63704">
        <ele>976.30954666667</ele>
        <time>2018-08-29T15:47:49Z</time>
      </trkpt>
      <trkpt lat="45.18947" lon="5.63714">
        <ele>976.60930666667</ele>
        <time>2018-08-29T15:47:53Z</time>
      </trkpt>
      <trkpt lat="45.18955" lon="5.63731">
        <ele>977.20893333333</ele>
        <time>2018-08-29T15:47:58Z</time>
      </trkpt>
      <trkpt lat="45.18959" lon="5.63745">
        <ele>977.20856666667</ele>
        <time>2018-08-29T15:48:03Z</time>
      </trkpt>
      <trkpt lat="45.18962" lon="5.63753">
        <ele>977.40836</ele>
        <time>2018-08-29T15:48:07Z</time>
      </trkpt>
      <trkpt lat="45.18964" lon="5.63759">
        <ele>977.80816666667</ele>
        <time>2018-08-29T15:48:10Z</time>
      </trkpt>
      <trkpt lat="45.18968" lon="5.63769">
        <ele>978.50795333333</ele>
        <time>2018-08-29T15:48:14Z</time>
      </trkpt>
      <trkpt lat="45.18973" lon="5.63779">
        <ele>979.80777333333</ele>
        <time>2018-08-29T15:48:18Z</time>
      </trkpt>
      <trkpt lat="45.18976" lon="5.63795">
        <ele>980.40722666667</ele>
        <time>2018-08-29T15:48:23Z</time>
      </trkpt>
      <trkpt lat="45.18976" lon="5.63804">
        <ele>980.60688666667</ele>
        <time>2018-08-29T15:48:26Z</time>
      </trkpt>
      <trkpt lat="45.18977" lon="5.6382">
        <ele>981.60628666667</ele>
        <time>2018-08-29T15:48:31Z</time>
      </trkpt>
      <trkpt lat="45.18977" lon="5.63829">
        <ele>981.80593333333</ele>
        <time>2018-08-29T15:48:34Z</time>
      </trkpt>
      <trkpt lat="45.18978" lon="5.63844">
        <ele>982.80536</ele>
        <time>2018-08-29T15:48:38Z</time>
      </trkpt>
      <trkpt lat="45.18979" lon="5.63856">
        <ele>983.40489333333</ele>
        <time>2018-08-29T15:48:42Z</time>
      </trkpt>
      <trkpt lat="45.1898" lon="5.63869">
        <ele>983.20444</ele>
        <time>2018-08-29T15:48:46Z</time>
      </trkpt>
      <trkpt lat="45.18982" lon="5.63883">
        <ele>984.00398</ele>
        <time>2018-08-29T15:48:50Z</time>
      </trkpt>
      <trkpt lat="45.18984" lon="5.63898">
        <ele>983.80346</ele>
        <time>2018-08-29T15:48:54Z</time>
      </trkpt>
      <trkpt lat="45.18987" lon="5.6391">
        <ele>983.70304666667</ele>
        <time>2018-08-29T15:48:58Z</time>
      </trkpt>
      <trkpt lat="45.18988" lon="5.63926">
        <ele>984.10246666667</ele>
        <time>2018-08-29T15:49:02Z</time>
      </trkpt>
      <trkpt lat="45.18989" lon="5.6394">
        <ele>984.80194666667</ele>
        <time>2018-08-29T15:49:06Z</time>
      </trkpt>
      <trkpt lat="45.18989" lon="5.63953">
        <ele>985.50144</ele>
        <time>2018-08-29T15:49:10Z</time>
      </trkpt>
      <trkpt lat="45.18987" lon="5.63965">
        <ele>986.10087333333</ele>
        <time>2018-08-29T15:49:15Z</time>
      </trkpt>
      <trkpt lat="45.18976" lon="5.63969">
        <ele>987.20026</ele>
        <time>2018-08-29T15:49:20Z</time>
      </trkpt>
      <trkpt lat="45.18968" lon="5.63971">
        <ele>987.79986666667</ele>
        <time>2018-08-29T15:49:23Z</time>
      </trkpt>
      <trkpt lat="45.18955" lon="5.63976">
        <ele>989.19916</ele>
        <time>2018-08-29T15:49:28Z</time>
      </trkpt>
      <trkpt lat="45.18944" lon="5.63981">
        <ele>989.09853333333</ele>
        <time>2018-08-29T15:49:32Z</time>
      </trkpt>
      <trkpt lat="45.18931" lon="5.63988">
        <ele>987.79770666667</ele>
        <time>2018-08-29T15:49:37Z</time>
      </trkpt>
      <trkpt lat="45.1892" lon="5.63993">
        <ele>986.59707333333</ele>
        <time>2018-08-29T15:49:40Z</time>
      </trkpt>
      <trkpt lat="45.18901" lon="5.63995">
        <ele>984.89623333333</ele>
        <time>2018-08-29T15:49:45Z</time>
      </trkpt>
      <trkpt lat="45.18887" lon="5.63993">
        <ele>983.29572666667</ele>
        <time>2018-08-29T15:49:49Z</time>
      </trkpt>
      <trkpt lat="45.18871" lon="5.63993">
        <ele>982.69511333333</ele>
        <time>2018-08-29T15:49:54Z</time>
      </trkpt>
      <trkpt lat="45.18861" lon="5.63991">
        <ele>982.09477333333</ele>
        <time>2018-08-29T15:49:58Z</time>
      </trkpt>
      <trkpt lat="45.18851" lon="5.63989">
        <ele>981.99448</ele>
        <time>2018-08-29T15:50:02Z</time>
      </trkpt>
      <trkpt lat="45.18841" lon="5.63986">
        <ele>982.0942</ele>
        <time>2018-08-29T15:50:06Z</time>
      </trkpt>
      <trkpt lat="45.18828" lon="5.63982">
        <ele>981.99382666667</ele>
        <time>2018-08-29T15:50:11Z</time>
      </trkpt>
      <trkpt lat="45.18818" lon="5.63981">
        <ele>981.59348666667</ele>
        <time>2018-08-29T15:50:15Z</time>
      </trkpt>
      <trkpt lat="45.18804" lon="5.63981">
        <ele>983.59293333333</ele>
        <time>2018-08-29T15:50:20Z</time>
      </trkpt>
      <trkpt lat="45.18792" lon="5.63981">
        <ele>983.89242666667</ele>
        <time>2018-08-29T15:50:24Z</time>
      </trkpt>
      <trkpt lat="45.18773" lon="5.63978">
        <ele>983.19182</ele>
        <time>2018-08-29T15:50:28Z</time>
      </trkpt>
      <trkpt lat="45.18754" lon="5.63975">
        <ele>982.49117333333</ele>
        <time>2018-08-29T15:50:32Z</time>
      </trkpt>
      <trkpt lat="45.1874" lon="5.63972">
        <ele>982.39070666667</ele>
        <time>2018-08-29T15:50:36Z</time>
      </trkpt>
      <trkpt lat="45.18728" lon="5.63968">
        <ele>982.09037333333</ele>
        <time>2018-08-29T15:50:40Z</time>
      </trkpt>
      <trkpt lat="45.18715" lon="5.63967">
        <ele>981.18991333333</ele>
        <time>2018-08-29T15:50:44Z</time>
      </trkpt>
      <trkpt lat="45.18702" lon="5.63964">
        <ele>981.08950666667</ele>
        <time>2018-08-29T15:50:48Z</time>
      </trkpt>
      <trkpt lat="45.18691" lon="5.63962">
        <ele>981.88916</ele>
        <time>2018-08-29T15:50:52Z</time>
      </trkpt>
      <trkpt lat="45.18678" lon="5.6396">
        <ele>982.08868666667</ele>
        <time>2018-08-29T15:50:56Z</time>
      </trkpt>
      <trkpt lat="45.18666" lon="5.63958">
        <ele>982.78830666667</ele>
        <time>2018-08-29T15:50:59Z</time>
      </trkpt>
      <trkpt lat="45.1865" lon="5.63954">
        <ele>983.38785333333</ele>
        <time>2018-08-29T15:51:03Z</time>
      </trkpt>
      <trkpt lat="45.18635" lon="5.63948">
        <ele>983.28747333333</ele>
        <time>2018-08-29T15:51:07Z</time>
      </trkpt>
      <trkpt lat="45.18622" lon="5.63942">
        <ele>983.48722</ele>
        <time>2018-08-29T15:51:11Z</time>
      </trkpt>
      <trkpt lat="45.18608" lon="5.63933">
        <ele>983.58696666667</ele>
        <time>2018-08-29T15:51:16Z</time>
      </trkpt>
      <trkpt lat="45.18596" lon="5.63929">
        <ele>983.68666666667</ele>
        <time>2018-08-29T15:51:20Z</time>
      </trkpt>
      <trkpt lat="45.18582" lon="5.63925">
        <ele>983.98628</ele>
        <time>2018-08-29T15:51:24Z</time>
      </trkpt>
      <trkpt lat="45.18563" lon="5.6392">
        <ele>984.88573333333</ele>
        <time>2018-08-29T15:51:28Z</time>
      </trkpt>
      <trkpt lat="45.18549" lon="5.63916">
        <ele>985.18531333333</ele>
        <time>2018-08-29T15:51:31Z</time>
      </trkpt>
      <trkpt lat="45.18533" lon="5.63919">
        <ele>984.88457333333</ele>
        <time>2018-08-29T15:51:36Z</time>
      </trkpt>
      <trkpt lat="45.18521" lon="5.63923">
        <ele>984.58389333333</ele>
        <time>2018-08-29T15:51:40Z</time>
      </trkpt>
      <trkpt lat="45.18511" lon="5.63927">
        <ele>985.78334666667</ele>
        <time>2018-08-29T15:51:44Z</time>
      </trkpt>
      <trkpt lat="45.18503" lon="5.6393">
        <ele>984.78291333333</ele>
        <time>2018-08-29T15:51:47Z</time>
      </trkpt>
      <trkpt lat="45.18493" lon="5.63935">
        <ele>983.78232</ele>
        <time>2018-08-29T15:51:50Z</time>
      </trkpt>
      <trkpt lat="45.18483" lon="5.63937">
        <ele>983.28182</ele>
        <time>2018-08-29T15:51:53Z</time>
      </trkpt>
      <trkpt lat="45.18462" lon="5.63935">
        <ele>983.28109333333</ele>
        <time>2018-08-29T15:51:58Z</time>
      </trkpt>
      <trkpt lat="45.18441" lon="5.63932">
        <ele>983.28036</ele>
        <time>2018-08-29T15:52:03Z</time>
      </trkpt>
      <trkpt lat="45.18418" lon="5.6393">
        <ele>983.27951333333</ele>
        <time>2018-08-29T15:52:08Z</time>
      </trkpt>
      <trkpt lat="45.18405" lon="5.63931">
        <ele>983.07895333333</ele>
        <time>2018-08-29T15:52:12Z</time>
      </trkpt>
      <trkpt lat="45.18393" lon="5.63931">
        <ele>983.47846</ele>
        <time>2018-08-29T15:52:16Z</time>
      </trkpt>
      <trkpt lat="45.18381" lon="5.63938">
        <ele>984.37772</ele>
        <time>2018-08-29T15:52:21Z</time>
      </trkpt>
      <trkpt lat="45.18373" lon="5.63941">
        <ele>984.67728666667</ele>
        <time>2018-08-29T15:52:24Z</time>
      </trkpt>
      <trkpt lat="45.18364" lon="5.63944">
        <ele>983.97680666667</ele>
        <time>2018-08-29T15:52:28Z</time>
      </trkpt>
      <trkpt lat="45.18354" lon="5.63948">
        <ele>983.67624</ele>
        <time>2018-08-29T15:52:32Z</time>
      </trkpt>
      <trkpt lat="45.1834" lon="5.63952">
        <ele>984.47552</ele>
        <time>2018-08-29T15:52:37Z</time>
      </trkpt>
      <trkpt lat="45.1833" lon="5.63955">
        <ele>984.17502</ele>
        <time>2018-08-29T15:52:41Z</time>
      </trkpt>
      <trkpt lat="45.18314" lon="5.63953">
        <ele>984.57446666667</ele>
        <time>2018-08-29T15:52:46Z</time>
      </trkpt>
      <trkpt lat="45.18296" lon="5.63947">
        <ele>985.17396666667</ele>
        <time>2018-08-29T15:52:50Z</time>
      </trkpt>
      <trkpt lat="45.1828" lon="5.63941">
        <ele>985.47354</ele>
        <time>2018-08-29T15:52:54Z</time>
      </trkpt>
      <trkpt lat="45.18269" lon="5.63935">
        <ele>986.17336</ele>
        <time>2018-08-29T15:52:58Z</time>
      </trkpt>
      <trkpt lat="45.1826" lon="5.63927">
        <ele>987.17329333333</ele>
        <time>2018-08-29T15:53:02Z</time>
      </trkpt>
      <trkpt lat="45.18252" lon="5.63913">
        <ele>987.87353333333</ele>
        <time>2018-08-29T15:53:06Z</time>
      </trkpt>
      <trkpt lat="45.18243" lon="5.63892">
        <ele>988.17402666667</ele>
        <time>2018-08-29T15:53:10Z</time>
      </trkpt>
      <trkpt lat="45.18233" lon="5.63867">
        <ele>989.27466</ele>
        <time>2018-08-29T15:53:14Z</time>
      </trkpt>
      <trkpt lat="45.18212" lon="5.63842">
        <ele>989.17481333333</ele>
        <time>2018-08-29T15:53:18Z</time>
      </trkpt>
      <trkpt lat="45.18205" lon="5.63797">
        <ele>989.87629333333</ele>
        <time>2018-08-29T15:53:22Z</time>
      </trkpt>
      <trkpt lat="45.18203" lon="5.63765">
        <ele>991.5775</ele>
        <time>2018-08-29T15:53:26Z</time>
      </trkpt>
      <trkpt lat="45.18201" lon="5.63744">
        <ele>991.47828666667</ele>
        <time>2018-08-29T15:53:31Z</time>
      </trkpt>
      <trkpt lat="45.182" lon="5.63733">
        <ele>992.27868</ele>
        <time>2018-08-29T15:53:36Z</time>
      </trkpt>
      <trkpt lat="45.18199" lon="5.63724">
        <ele>992.27901333333</ele>
        <time>2018-08-29T15:53:40Z</time>
      </trkpt>
      <trkpt lat="45.182" lon="5.63712">
        <ele>992.27953333333</ele>
        <time>2018-08-29T15:53:45Z</time>
      </trkpt>
      <trkpt lat="45.182" lon="5.63704">
        <ele>992.47986</ele>
        <time>2018-08-29T15:53:49Z</time>
      </trkpt>
      <trkpt lat="45.18201" lon="5.63692">
        <ele>992.48036666667</ele>
        <time>2018-08-29T15:53:54Z</time>
      </trkpt>
      <trkpt lat="45.18201" lon="5.63679">
        <ele>992.88090666667</ele>
        <time>2018-08-29T15:53:59Z</time>
      </trkpt>
      <trkpt lat="45.18202" lon="5.6367">
        <ele>992.78126</ele>
        <time>2018-08-29T15:54:02Z</time>
      </trkpt>
      <trkpt lat="45.18202" lon="5.63659">
        <ele>992.48171333333</ele>
        <time>2018-08-29T15:54:06Z</time>
      </trkpt>
      <trkpt lat="45.18203" lon="5.63649">
        <ele>992.38214</ele>
        <time>2018-08-29T15:54:10Z</time>
      </trkpt>
      <trkpt lat="45.18206" lon="5.63641">
        <ele>992.5826</ele>
        <time>2018-08-29T15:54:14Z</time>
      </trkpt>
      <trkpt lat="45.18207" lon="5.63629">
        <ele>992.88314666667</ele>
        <time>2018-08-29T15:54:19Z</time>
      </trkpt>
      <trkpt lat="45.18206" lon="5.63617">
        <ele>993.38353333333</ele>
        <time>2018-08-29T15:54:24Z</time>
      </trkpt>
      <trkpt lat="45.18203" lon="5.63609">
        <ele>993.38377333333</ele>
        <time>2018-08-29T15:54:28Z</time>
      </trkpt>
      <trkpt lat="45.18199" lon="5.63601">
        <ele>993.98392</ele>
        <time>2018-08-29T15:54:32Z</time>
      </trkpt>
      <trkpt lat="45.18194" lon="5.63595">
        <ele>994.78392666667</ele>
        <time>2018-08-29T15:54:36Z</time>
      </trkpt>
      <trkpt lat="45.18189" lon="5.6359">
        <ele>995.78394666667</ele>
        <time>2018-08-29T15:54:40Z</time>
      </trkpt>
      <trkpt lat="45.18181" lon="5.63583">
        <ele>996.18392</ele>
        <time>2018-08-29T15:54:45Z</time>
      </trkpt>
      <trkpt lat="45.18177" lon="5.63578">
        <ele>996.48395333333</ele>
        <time>2018-08-29T15:54:48Z</time>
      </trkpt>
      <trkpt lat="45.18171" lon="5.63573">
        <ele>997.3839</ele>
        <time>2018-08-29T15:54:52Z</time>
      </trkpt>
      <trkpt lat="45.18165" lon="5.63565">
        <ele>998.08400666667</ele>
        <time>2018-08-29T15:54:56Z</time>
      </trkpt>
      <trkpt lat="45.18161" lon="5.63559">
        <ele>998.48406</ele>
        <time>2018-08-29T15:54:59Z</time>
      </trkpt>
      <trkpt lat="45.18157" lon="5.63554">
        <ele>999.28411333333</ele>
        <time>2018-08-29T15:55:02Z</time>
      </trkpt>
      <trkpt lat="45.18151" lon="5.63546">
        <ele>999.48418</ele>
        <time>2018-08-29T15:55:06Z</time>
      </trkpt>
      <trkpt lat="45.18145" lon="5.63534">
        <ele>999.98441333333</ele>
        <time>2018-08-29T15:55:11Z</time>
      </trkpt>
      <trkpt lat="45.18139" lon="5.63522">
        <ele>1000.5847066667</ele>
        <time>2018-08-29T15:55:16Z</time>
      </trkpt>
      <trkpt lat="45.18136" lon="5.63514">
        <ele>1001.28488</ele>
        <time>2018-08-29T15:55:19Z</time>
      </trkpt>
      <trkpt lat="45.18131" lon="5.63502">
        <ele>1001.1851733333</ele>
        <time>2018-08-29T15:55:24Z</time>
      </trkpt>
      <trkpt lat="45.18123" lon="5.63493">
        <ele>1001.5851933333</ele>
        <time>2018-08-29T15:55:28Z</time>
      </trkpt>
      <trkpt lat="45.18113" lon="5.63493">
        <ele>1001.8847733333</ele>
        <time>2018-08-29T15:55:32Z</time>
      </trkpt>
      <trkpt lat="45.18099" lon="5.63496">
        <ele>1001.0841</ele>
        <time>2018-08-29T15:55:36Z</time>
      </trkpt>
      <trkpt lat="45.18083" lon="5.63499">
        <ele>999.78337333333</ele>
        <time>2018-08-29T15:55:40Z</time>
      </trkpt>
      <trkpt lat="45.18066" lon="5.63504">
        <ele>999.18246666667</ele>
        <time>2018-08-29T15:55:44Z</time>
      </trkpt>
      <trkpt lat="45.18054" lon="5.63508">
        <ele>998.38181333333</ele>
        <time>2018-08-29T15:55:47Z</time>
      </trkpt>
      <trkpt lat="45.18042" lon="5.63513">
        <ele>997.88114666667</ele>
        <time>2018-08-29T15:55:50Z</time>
      </trkpt>
      <trkpt lat="45.18024" lon="5.63517">
        <ele>996.88026</ele>
        <time>2018-08-29T15:55:54Z</time>
      </trkpt>
      <trkpt lat="45.18007" lon="5.63525">
        <ele>996.07929333333</ele>
        <time>2018-08-29T15:55:58Z</time>
      </trkpt>
      <trkpt lat="45.17991" lon="5.63533">
        <ele>995.67829333333</ele>
        <time>2018-08-29T15:56:02Z</time>
      </trkpt>
      <trkpt lat="45.17974" lon="5.63541">
        <ele>997.17732</ele>
        <time>2018-08-29T15:56:06Z</time>
      </trkpt>
      <trkpt lat="45.1796" lon="5.6355">
        <ele>998.37638</ele>
        <time>2018-08-29T15:56:10Z</time>
      </trkpt>
      <trkpt lat="45.17943" lon="5.6356">
        <ele>1000.7753</ele>
        <time>2018-08-29T15:56:15Z</time>
      </trkpt>
      <trkpt lat="45.1793" lon="5.63566">
        <ele>1002.3745866667</ele>
        <time>2018-08-29T15:56:19Z</time>
      </trkpt>
      <trkpt lat="45.17922" lon="5.6357">
        <ele>1003.3741</ele>
        <time>2018-08-29T15:56:22Z</time>
      </trkpt>
      <trkpt lat="45.17909" lon="5.63575">
        <ele>1004.8733333333</ele>
        <time>2018-08-29T15:56:27Z</time>
      </trkpt>
      <trkpt lat="45.17898" lon="5.6358">
        <ele>1005.37272</ele>
        <time>2018-08-29T15:56:31Z</time>
      </trkpt>
      <trkpt lat="45.17884" lon="5.63586">
        <ele>1006.17192</ele>
        <time>2018-08-29T15:56:36Z</time>
      </trkpt>
      <trkpt lat="45.17875" lon="5.63589">
        <ele>1006.3714333333</ele>
        <time>2018-08-29T15:56:39Z</time>
      </trkpt>
      <trkpt lat="45.17861" lon="5.63593">
        <ele>1006.9707133333</ele>
        <time>2018-08-29T15:56:44Z</time>
      </trkpt>
      <trkpt lat="45.1785" lon="5.63597">
        <ele>1007.1701133333</ele>
        <time>2018-08-29T15:56:48Z</time>
      </trkpt>
      <trkpt lat="45.17838" lon="5.63601">
        <ele>1007.8695</ele>
        <time>2018-08-29T15:56:52Z</time>
      </trkpt>
      <trkpt lat="45.17827" lon="5.63605">
        <ele>1008.3688666667</ele>
        <time>2018-08-29T15:56:56Z</time>
      </trkpt>
      <trkpt lat="45.17816" lon="5.63609">
        <ele>1008.4682733333</ele>
        <time>2018-08-29T15:57:00Z</time>
      </trkpt>
      <trkpt lat="45.17805" lon="5.63613">
        <ele>1008.6676666667</ele>
        <time>2018-08-29T15:57:04Z</time>
      </trkpt>
      <trkpt lat="45.17793" lon="5.63617">
        <ele>1008.5670666667</ele>
        <time>2018-08-29T15:57:08Z</time>
      </trkpt>
      <trkpt lat="45.17781" lon="5.63621">
        <ele>1009.06638</ele>
        <time>2018-08-29T15:57:12Z</time>
      </trkpt>
      <trkpt lat="45.17767" lon="5.63626">
        <ele>1008.9656266667</ele>
        <time>2018-08-29T15:57:16Z</time>
      </trkpt>
      <trkpt lat="45.17753" lon="5.63631">
        <ele>1008.0648933333</ele>
        <time>2018-08-29T15:57:20Z</time>
      </trkpt>
      <trkpt lat="45.17744" lon="5.63634">
        <ele>1007.1643933333</ele>
        <time>2018-08-29T15:57:23Z</time>
      </trkpt>
      <trkpt lat="45.17732" lon="5.63636">
        <ele>1006.6638666667</ele>
        <time>2018-08-29T15:57:26Z</time>
      </trkpt>
      <trkpt lat="45.17718" lon="5.63639">
        <ele>1006.2631533333</ele>
        <time>2018-08-29T15:57:30Z</time>
      </trkpt>
      <trkpt lat="45.17704" lon="5.63643">
        <ele>1006.2624466667</ele>
        <time>2018-08-29T15:57:34Z</time>
      </trkpt>
      <trkpt lat="45.17691" lon="5.63648">
        <ele>1006.76172</ele>
        <time>2018-08-29T15:57:38Z</time>
      </trkpt>
      <trkpt lat="45.17679" lon="5.63648">
        <ele>1008.4612533333</ele>
        <time>2018-08-29T15:57:42Z</time>
      </trkpt>
      <trkpt lat="45.17672" lon="5.63647">
        <ele>1009.6610066667</ele>
        <time>2018-08-29T15:57:46Z</time>
      </trkpt>
      <trkpt lat="45.17666" lon="5.63646">
        <ele>1010.7607866667</ele>
        <time>2018-08-29T15:57:50Z</time>
      </trkpt>
      <trkpt lat="45.17661" lon="5.63644">
        <ele>1011.1606533333</ele>
        <time>2018-08-29T15:57:54Z</time>
      </trkpt>
      <trkpt lat="45.17655" lon="5.63642">
        <ele>1012.1605066667</ele>
        <time>2018-08-29T15:57:58Z</time>
      </trkpt>
      <trkpt lat="45.17651" lon="5.6364">
        <ele>1012.5604133333</ele>
        <time>2018-08-29T15:58:01Z</time>
      </trkpt>
      <trkpt lat="45.17645" lon="5.63638">
        <ele>1013.1603</ele>
        <time>2018-08-29T15:58:05Z</time>
      </trkpt>
      <trkpt lat="45.17641" lon="5.63635">
        <ele>1013.76022</ele>
        <time>2018-08-29T15:58:08Z</time>
      </trkpt>
      <trkpt lat="45.17635" lon="5.63632">
        <ele>1014.8600933333</ele>
        <time>2018-08-29T15:58:12Z</time>
      </trkpt>
      <trkpt lat="45.17627" lon="5.63629">
        <ele>1015.5599466667</ele>
        <time>2018-08-29T15:58:17Z</time>
      </trkpt>
      <trkpt lat="45.17621" lon="5.63625">
        <ele>1016.5598333333</ele>
        <time>2018-08-29T15:58:22Z</time>
      </trkpt>
      <trkpt lat="45.17616" lon="5.63622">
        <ele>1017.2597666667</ele>
        <time>2018-08-29T15:58:26Z</time>
      </trkpt>
      <trkpt lat="45.17611" lon="5.63621">
        <ele>1017.95962</ele>
        <time>2018-08-29T15:58:30Z</time>
      </trkpt>
      <trkpt lat="45.17605" lon="5.6362">
        <ele>1018.4594266667</ele>
        <time>2018-08-29T15:58:34Z</time>
      </trkpt>
      <trkpt lat="45.176" lon="5.63618">
        <ele>1018.8592866667</ele>
        <time>2018-08-29T15:58:38Z</time>
      </trkpt>
      <trkpt lat="45.17595" lon="5.63618">
        <ele>1019.55906</ele>
        <time>2018-08-29T15:58:43Z</time>
      </trkpt>
      <trkpt lat="45.17591" lon="5.63617">
        <ele>1020.2589333333</ele>
        <time>2018-08-29T15:58:47Z</time>
      </trkpt>
      <trkpt lat="45.17587" lon="5.63617">
        <ele>1021.0588133333</ele>
        <time>2018-08-29T15:58:50Z</time>
      </trkpt>
      <trkpt lat="45.17582" lon="5.63616">
        <ele>1021.3586533333</ele>
        <time>2018-08-29T15:58:54Z</time>
      </trkpt>
      <trkpt lat="45.17578" lon="5.63615">
        <ele>1021.7585333333</ele>
        <time>2018-08-29T15:58:57Z</time>
      </trkpt>
      <trkpt lat="45.17575" lon="5.63613">
        <ele>1022.45848</ele>
        <time>2018-08-29T15:59:00Z</time>
      </trkpt>
      <trkpt lat="45.17572" lon="5.63614">
        <ele>1023.35832</ele>
        <time>2018-08-29T15:59:04Z</time>
      </trkpt>
      <trkpt lat="45.17567" lon="5.63615">
        <ele>1023.8581066667</ele>
        <time>2018-08-29T15:59:08Z</time>
      </trkpt>
      <trkpt lat="45.17563" lon="5.63616">
        <ele>1024.6578733333</ele>
        <time>2018-08-29T15:59:12Z</time>
      </trkpt>
      <trkpt lat="45.17557" lon="5.63617">
        <ele>1025.1575933333</ele>
        <time>2018-08-29T15:59:16Z</time>
      </trkpt>
      <trkpt lat="45.17551" lon="5.63617">
        <ele>1025.8573733333</ele>
        <time>2018-08-29T15:59:20Z</time>
      </trkpt>
      <trkpt lat="45.17546" lon="5.63618">
        <ele>1026.7571333333</ele>
        <time>2018-08-29T15:59:24Z</time>
      </trkpt>
      <trkpt lat="45.17541" lon="5.63618">
        <ele>1027.55694</ele>
        <time>2018-08-29T15:59:28Z</time>
      </trkpt>
      <trkpt lat="45.17537" lon="5.63619">
        <ele>1028.7567333333</ele>
        <time>2018-08-29T15:59:32Z</time>
      </trkpt>
      <trkpt lat="45.17532" lon="5.6362">
        <ele>1029.7565066667</ele>
        <time>2018-08-29T15:59:36Z</time>
      </trkpt>
      <trkpt lat="45.17528" lon="5.6362">
        <ele>1030.7563133333</ele>
        <time>2018-08-29T15:59:40Z</time>
      </trkpt>
      <trkpt lat="45.17523" lon="5.63621">
        <ele>1031.3560733333</ele>
        <time>2018-08-29T15:59:44Z</time>
      </trkpt>
      <trkpt lat="45.17519" lon="5.63622">
        <ele>1031.7559066667</ele>
        <time>2018-08-29T15:59:47Z</time>
      </trkpt>
      <trkpt lat="45.17515" lon="5.63623">
        <ele>1032.25568</ele>
        <time>2018-08-29T15:59:51Z</time>
      </trkpt>
      <trkpt lat="45.1751" lon="5.63624">
        <ele>1032.8554333333</ele>
        <time>2018-08-29T15:59:55Z</time>
      </trkpt>
      <trkpt lat="45.17506" lon="5.63625">
        <ele>1032.9552466667</ele>
        <time>2018-08-29T15:59:58Z</time>
      </trkpt>
      <trkpt lat="45.17502" lon="5.63626">
        <ele>1033.25502</ele>
        <time>2018-08-29T16:00:02Z</time>
      </trkpt>
      <trkpt lat="45.17498" lon="5.63627">
        <ele>1033.5548133333</ele>
        <time>2018-08-29T16:00:06Z</time>
      </trkpt>
      <trkpt lat="45.17494" lon="5.63628">
        <ele>1033.9546666667</ele>
        <time>2018-08-29T16:00:09Z</time>
      </trkpt>
      <trkpt lat="45.17489" lon="5.63628">
        <ele>1034.9544333333</ele>
        <time>2018-08-29T16:00:14Z</time>
      </trkpt>
      <trkpt lat="45.17484" lon="5.63628">
        <ele>1035.4542266667</ele>
        <time>2018-08-29T16:00:18Z</time>
      </trkpt>
      <trkpt lat="45.17479" lon="5.6363">
        <ele>1036.1539733333</ele>
        <time>2018-08-29T16:00:22Z</time>
      </trkpt>
      <trkpt lat="45.17474" lon="5.63632">
        <ele>1037.0536933333</ele>
        <time>2018-08-29T16:00:26Z</time>
      </trkpt>
      <trkpt lat="45.17469" lon="5.63634">
        <ele>1038.0533933333</ele>
        <time>2018-08-29T16:00:30Z</time>
      </trkpt>
      <trkpt lat="45.17465" lon="5.63637">
        <ele>1038.75314</ele>
        <time>2018-08-29T16:00:33Z</time>
      </trkpt>
      <trkpt lat="45.17459" lon="5.6364">
        <ele>1039.7527533333</ele>
        <time>2018-08-29T16:00:38Z</time>
      </trkpt>
      <trkpt lat="45.17454" lon="5.63644">
        <ele>1040.3523866667</ele>
        <time>2018-08-29T16:00:42Z</time>
      </trkpt>
      <trkpt lat="45.17448" lon="5.63649">
        <ele>1040.6519666667</ele>
        <time>2018-08-29T16:00:47Z</time>
      </trkpt>
      <trkpt lat="45.17443" lon="5.63653">
        <ele>1041.05158</ele>
        <time>2018-08-29T16:00:52Z</time>
      </trkpt>
      <trkpt lat="45.17438" lon="5.63657">
        <ele>1041.2512333333</ele>
        <time>2018-08-29T16:00:56Z</time>
      </trkpt>
      <trkpt lat="45.17431" lon="5.63659">
        <ele>1041.3509</ele>
        <time>2018-08-29T16:01:00Z</time>
      </trkpt>
      <trkpt lat="45.17424" lon="5.63661">
        <ele>1041.5505</ele>
        <time>2018-08-29T16:01:05Z</time>
      </trkpt>
      <trkpt lat="45.17417" lon="5.63662">
        <ele>1041.4501733333</ele>
        <time>2018-08-29T16:01:09Z</time>
      </trkpt>
      <trkpt lat="45.17408" lon="5.63665">
        <ele>1041.4497066667</ele>
        <time>2018-08-29T16:01:14Z</time>
      </trkpt>
      <trkpt lat="45.17402" lon="5.63667">
        <ele>1041.7494066667</ele>
        <time>2018-08-29T16:01:18Z</time>
      </trkpt>
      <trkpt lat="45.17396" lon="5.63659">
        <ele>1042.24948</ele>
        <time>2018-08-29T16:01:23Z</time>
      </trkpt>
      <trkpt lat="45.17391" lon="5.63651">
        <ele>1042.4496066667</ele>
        <time>2018-08-29T16:01:27Z</time>
      </trkpt>
      <trkpt lat="45.17383" lon="5.63644">
        <ele>1041.9495466667</ele>
        <time>2018-08-29T16:01:32Z</time>
      </trkpt>
      <trkpt lat="45.17377" lon="5.63644">
        <ele>1041.94934</ele>
        <time>2018-08-29T16:01:35Z</time>
      </trkpt>
      <trkpt lat="45.1737" lon="5.63648">
        <ele>1041.64888</ele>
        <time>2018-08-29T16:01:39Z</time>
      </trkpt>
      <trkpt lat="45.17361" lon="5.63655">
        <ele>1041.64824</ele>
        <time>2018-08-29T16:01:44Z</time>
      </trkpt>
      <trkpt lat="45.17354" lon="5.63659">
        <ele>1042.0477666667</ele>
        <time>2018-08-29T16:01:48Z</time>
      </trkpt>
      <trkpt lat="45.17345" lon="5.63664">
        <ele>1042.74724</ele>
        <time>2018-08-29T16:01:53Z</time>
      </trkpt>
      <trkpt lat="45.17341" lon="5.63667">
        <ele>1043.5469333333</ele>
        <time>2018-08-29T16:01:56Z</time>
      </trkpt>
      <trkpt lat="45.17335" lon="5.63674">
        <ele>1044.54644</ele>
        <time>2018-08-29T16:02:00Z</time>
      </trkpt>
      <trkpt lat="45.17329" lon="5.6368">
        <ele>1045.8459733333</ele>
        <time>2018-08-29T16:02:04Z</time>
      </trkpt>
      <trkpt lat="45.17323" lon="5.63683">
        <ele>1046.84558</ele>
        <time>2018-08-29T16:02:08Z</time>
      </trkpt>
      <trkpt lat="45.17317" lon="5.63683">
        <ele>1047.5453866667</ele>
        <time>2018-08-29T16:02:11Z</time>
      </trkpt>
      <trkpt lat="45.17309" lon="5.63678">
        <ele>1048.34526</ele>
        <time>2018-08-29T16:02:16Z</time>
      </trkpt>
      <trkpt lat="45.17305" lon="5.63674">
        <ele>1048.64524</ele>
        <time>2018-08-29T16:02:20Z</time>
      </trkpt>
      <trkpt lat="45.173" lon="5.63668">
        <ele>1049.7452933333</ele>
        <time>2018-08-29T16:02:24Z</time>
      </trkpt>
      <trkpt lat="45.17299" lon="5.63659">
        <ele>1050.54558</ele>
        <time>2018-08-29T16:02:28Z</time>
      </trkpt>
      <trkpt lat="45.17298" lon="5.6365">
        <ele>1051.2459266667</ele>
        <time>2018-08-29T16:02:32Z</time>
      </trkpt>
      <trkpt lat="45.17298" lon="5.63641">
        <ele>1051.5463</ele>
        <time>2018-08-29T16:02:36Z</time>
      </trkpt>
      <trkpt lat="45.17299" lon="5.63632">
        <ele>1051.9466733333</ele>
        <time>2018-08-29T16:02:40Z</time>
      </trkpt>
      <trkpt lat="45.173" lon="5.63625">
        <ele>1052.04698</ele>
        <time>2018-08-29T16:02:43Z</time>
      </trkpt>
      <trkpt lat="45.17299" lon="5.63618">
        <ele>1052.1472533333</ele>
        <time>2018-08-29T16:02:46Z</time>
      </trkpt>
      <trkpt lat="45.173" lon="5.63608">
        <ele>1052.34766</ele>
        <time>2018-08-29T16:02:50Z</time>
      </trkpt>
      <trkpt lat="45.173" lon="5.63598">
        <ele>1052.64806</ele>
        <time>2018-08-29T16:02:54Z</time>
      </trkpt>
      <trkpt lat="45.17296" lon="5.63592">
        <ele>1053.0481533333</ele>
        <time>2018-08-29T16:02:58Z</time>
      </trkpt>
      <trkpt lat="45.17289" lon="5.6359">
        <ele>1053.64794</ele>
        <time>2018-08-29T16:03:03Z</time>
      </trkpt>
      <trkpt lat="45.17284" lon="5.63592">
        <ele>1054.0477</ele>
        <time>2018-08-29T16:03:06Z</time>
      </trkpt>
      <trkpt lat="45.1728" lon="5.63597">
        <ele>1054.54732</ele>
        <time>2018-08-29T16:03:10Z</time>
      </trkpt>
      <trkpt lat="45.17274" lon="5.63605">
        <ele>1054.6467866667</ele>
        <time>2018-08-29T16:03:15Z</time>
      </trkpt>
      <trkpt lat="45.17268" lon="5.63613">
        <ele>1054.84622</ele>
        <time>2018-08-29T16:03:20Z</time>
      </trkpt>
      <trkpt lat="45.17262" lon="5.63619">
        <ele>1055.14574</ele>
        <time>2018-08-29T16:03:25Z</time>
      </trkpt>
      <trkpt lat="45.17259" lon="5.63623">
        <ele>1055.44542</ele>
        <time>2018-08-29T16:03:28Z</time>
      </trkpt>
      <trkpt lat="45.17254" lon="5.63629">
        <ele>1055.84502</ele>
        <time>2018-08-29T16:03:32Z</time>
      </trkpt>
      <trkpt lat="45.17249" lon="5.63633">
        <ele>1056.44464</ele>
        <time>2018-08-29T16:03:36Z</time>
      </trkpt>
      <trkpt lat="45.17244" lon="5.63639">
        <ele>1056.8441933333</ele>
        <time>2018-08-29T16:03:40Z</time>
      </trkpt>
      <trkpt lat="45.17238" lon="5.63643">
        <ele>1057.54378</ele>
        <time>2018-08-29T16:03:44Z</time>
      </trkpt>
      <trkpt lat="45.17232" lon="5.63648">
        <ele>1058.2433666667</ele>
        <time>2018-08-29T16:03:48Z</time>
      </trkpt>
      <trkpt lat="45.17225" lon="5.63649">
        <ele>1058.9430533333</ele>
        <time>2018-08-29T16:03:52Z</time>
      </trkpt>
      <trkpt lat="45.17217" lon="5.6365">
        <ele>1060.1426533333</ele>
        <time>2018-08-29T16:03:57Z</time>
      </trkpt>
      <trkpt lat="45.17212" lon="5.63651">
        <ele>1061.0424333333</ele>
        <time>2018-08-29T16:04:00Z</time>
      </trkpt>
      <trkpt lat="45.17203" lon="5.63652">
        <ele>1061.9420733333</ele>
        <time>2018-08-29T16:04:05Z</time>
      </trkpt>
      <trkpt lat="45.17196" lon="5.63652">
        <ele>1063.1417733333</ele>
        <time>2018-08-29T16:04:10Z</time>
      </trkpt>
      <trkpt lat="45.17188" lon="5.63651">
        <ele>1063.7415</ele>
        <time>2018-08-29T16:04:14Z</time>
      </trkpt>
      <trkpt lat="45.17186" lon="5.63645">
        <ele>1064.3416066667</ele>
        <time>2018-08-29T16:04:18Z</time>
      </trkpt>
      <trkpt lat="45.1719" lon="5.6364">
        <ele>1064.742</ele>
        <time>2018-08-29T16:04:22Z</time>
      </trkpt>
      <trkpt lat="45.17195" lon="5.63634">
        <ele>1065.1424266667</ele>
        <time>2018-08-29T16:04:26Z</time>
      </trkpt>
      <trkpt lat="45.17199" lon="5.63626">
        <ele>1065.9429333333</ele>
        <time>2018-08-29T16:04:30Z</time>
      </trkpt>
      <trkpt lat="45.17203" lon="5.63618">
        <ele>1066.2434</ele>
        <time>2018-08-29T16:04:34Z</time>
      </trkpt>
      <trkpt lat="45.17208" lon="5.63611">
        <ele>1066.74388</ele>
        <time>2018-08-29T16:04:38Z</time>
      </trkpt>
      <trkpt lat="45.17213" lon="5.63601">
        <ele>1067.5444733333</ele>
        <time>2018-08-29T16:04:43Z</time>
      </trkpt>
      <trkpt lat="45.17216" lon="5.63591">
        <ele>1067.9450133333</ele>
        <time>2018-08-29T16:04:48Z</time>
      </trkpt>
      <trkpt lat="45.17217" lon="5.63585">
        <ele>1068.2452666667</ele>
        <time>2018-08-29T16:04:51Z</time>
      </trkpt>
      <trkpt lat="45.17218" lon="5.63577">
        <ele>1068.3456666667</ele>
        <time>2018-08-29T16:04:55Z</time>
      </trkpt>
      <trkpt lat="45.1722" lon="5.6357">
        <ele>1068.1459733333</ele>
        <time>2018-08-29T16:04:58Z</time>
      </trkpt>
      <trkpt lat="45.17221" lon="5.63561">
        <ele>1067.9463666667</ele>
        <time>2018-08-29T16:05:02Z</time>
      </trkpt>
      <trkpt lat="45.17221" lon="5.63555">
        <ele>1067.94664</ele>
        <time>2018-08-29T16:05:05Z</time>
      </trkpt>
      <trkpt lat="45.17224" lon="5.63543">
        <ele>1067.94724</ele>
        <time>2018-08-29T16:05:10Z</time>
      </trkpt>
      <trkpt lat="45.17227" lon="5.63534">
        <ele>1068.0477333333</ele>
        <time>2018-08-29T16:05:14Z</time>
      </trkpt>
      <trkpt lat="45.17228" lon="5.63528">
        <ele>1068.0479933333</ele>
        <time>2018-08-29T16:05:17Z</time>
      </trkpt>
      <trkpt lat="45.17231" lon="5.63516">
        <ele>1068.5486</ele>
        <time>2018-08-29T16:05:22Z</time>
      </trkpt>
      <trkpt lat="45.1723" lon="5.63507">
        <ele>1068.8489066667</ele>
        <time>2018-08-29T16:05:26Z</time>
      </trkpt>
      <trkpt lat="45.17233" lon="5.63499">
        <ele>1069.3493466667</ele>
        <time>2018-08-29T16:05:30Z</time>
      </trkpt>
      <trkpt lat="45.1724" lon="5.6349">
        <ele>1069.7499933333</ele>
        <time>2018-08-29T16:05:34Z</time>
      </trkpt>
      <trkpt lat="45.17244" lon="5.6348">
        <ele>1070.0505466667</ele>
        <time>2018-08-29T16:05:38Z</time>
      </trkpt>
      <trkpt lat="45.17248" lon="5.63467">
        <ele>1070.4512333333</ele>
        <time>2018-08-29T16:05:43Z</time>
      </trkpt>
      <trkpt lat="45.17248" lon="5.63458">
        <ele>1070.7516066667</ele>
        <time>2018-08-29T16:05:47Z</time>
      </trkpt>
      <trkpt lat="45.17248" lon="5.63447">
        <ele>1071.1520533333</ele>
        <time>2018-08-29T16:05:52Z</time>
      </trkpt>
      <trkpt lat="45.17249" lon="5.63436">
        <ele>1071.3525133333</ele>
        <time>2018-08-29T16:05:56Z</time>
      </trkpt>
      <trkpt lat="45.17249" lon="5.63429">
        <ele>1071.9528266667</ele>
        <time>2018-08-29T16:06:00Z</time>
      </trkpt>
      <trkpt lat="45.17247" lon="5.63418">
        <ele>1072.4531533333</ele>
        <time>2018-08-29T16:06:04Z</time>
      </trkpt>
      <trkpt lat="45.17247" lon="5.63408">
        <ele>1073.3535733333</ele>
        <time>2018-08-29T16:06:08Z</time>
      </trkpt>
      <trkpt lat="45.17245" lon="5.63395">
        <ele>1074.4540133333</ele>
        <time>2018-08-29T16:06:13Z</time>
      </trkpt>
      <trkpt lat="45.17244" lon="5.63389">
        <ele>1075.1542133333</ele>
        <time>2018-08-29T16:06:16Z</time>
      </trkpt>
      <trkpt lat="45.17243" lon="5.6338">
        <ele>1075.95452</ele>
        <time>2018-08-29T16:06:20Z</time>
      </trkpt>
      <trkpt lat="45.17243" lon="5.63372">
        <ele>1076.35484</ele>
        <time>2018-08-29T16:06:23Z</time>
      </trkpt>
      <trkpt lat="45.17242" lon="5.63362">
        <ele>1076.9552066667</ele>
        <time>2018-08-29T16:06:27Z</time>
      </trkpt>
      <trkpt lat="45.17239" lon="5.63352">
        <ele>1077.1554933333</ele>
        <time>2018-08-29T16:06:31Z</time>
      </trkpt>
      <trkpt lat="45.1724" lon="5.63341">
        <ele>1077.9559533333</ele>
        <time>2018-08-29T16:06:36Z</time>
      </trkpt>
      <trkpt lat="45.17239" lon="5.63332">
        <ele>1078.7563133333</ele>
        <time>2018-08-29T16:06:40Z</time>
      </trkpt>
      <trkpt lat="45.1724" lon="5.6332">
        <ele>1079.75682</ele>
        <time>2018-08-29T16:06:45Z</time>
      </trkpt>
      <trkpt lat="45.17241" lon="5.63307">
        <ele>1080.9573266667</ele>
        <time>2018-08-29T16:06:50Z</time>
      </trkpt>
      <trkpt lat="45.17241" lon="5.63297">
        <ele>1081.65776</ele>
        <time>2018-08-29T16:06:54Z</time>
      </trkpt>
      <trkpt lat="45.17241" lon="5.63286">
        <ele>1081.85822</ele>
        <time>2018-08-29T16:06:58Z</time>
      </trkpt>
      <trkpt lat="45.17242" lon="5.63274">
        <ele>1082.2587066667</ele>
        <time>2018-08-29T16:07:03Z</time>
      </trkpt>
      <trkpt lat="45.17242" lon="5.63264">
        <ele>1082.4591266667</ele>
        <time>2018-08-29T16:07:07Z</time>
      </trkpt>
      <trkpt lat="45.17242" lon="5.63256">
        <ele>1082.75946</ele>
        <time>2018-08-29T16:07:11Z</time>
      </trkpt>
      <trkpt lat="45.17243" lon="5.6325">
        <ele>1083.1597466667</ele>
        <time>2018-08-29T16:07:14Z</time>
      </trkpt>
      <trkpt lat="45.17244" lon="5.63241">
        <ele>1083.5601066667</ele>
        <time>2018-08-29T16:07:18Z</time>
      </trkpt>
      <trkpt lat="45.17246" lon="5.63231">
        <ele>1083.96062</ele>
        <time>2018-08-29T16:07:22Z</time>
      </trkpt>
      <trkpt lat="45.17248" lon="5.63221">
        <ele>1084.2610733333</ele>
        <time>2018-08-29T16:07:26Z</time>
      </trkpt>
      <trkpt lat="45.17246" lon="5.63212">
        <ele>1085.1613533333</ele>
        <time>2018-08-29T16:07:30Z</time>
      </trkpt>
      <trkpt lat="45.17246" lon="5.63202">
        <ele>1085.8617466667</ele>
        <time>2018-08-29T16:07:34Z</time>
      </trkpt>
      <trkpt lat="45.17247" lon="5.63193">
        <ele>1086.66216</ele>
        <time>2018-08-29T16:07:38Z</time>
      </trkpt>
      <trkpt lat="45.17247" lon="5.63183">
        <ele>1087.7625533333</ele>
        <time>2018-08-29T16:07:42Z</time>
      </trkpt>
      <trkpt lat="45.17248" lon="5.63172">
        <ele>1089.8630533333</ele>
        <time>2018-08-29T16:07:46Z</time>
      </trkpt>
      <trkpt lat="45.17249" lon="5.63159">
        <ele>1092.6635866667</ele>
        <time>2018-08-29T16:07:51Z</time>
      </trkpt>
      <trkpt lat="45.17248" lon="5.63147">
        <ele>1094.7640333333</ele>
        <time>2018-08-29T16:07:55Z</time>
      </trkpt>
      <trkpt lat="45.17248" lon="5.63136">
        <ele>1096.2644466667</ele>
        <time>2018-08-29T16:07:59Z</time>
      </trkpt>
      <trkpt lat="45.17247" lon="5.63124">
        <ele>1097.8649133333</ele>
        <time>2018-08-29T16:08:04Z</time>
      </trkpt>
      <trkpt lat="45.17246" lon="5.63113">
        <ele>1098.6653066667</ele>
        <time>2018-08-29T16:08:08Z</time>
      </trkpt>
      <trkpt lat="45.17245" lon="5.63103">
        <ele>1099.1656733333</ele>
        <time>2018-08-29T16:08:12Z</time>
      </trkpt>
      <trkpt lat="45.17243" lon="5.63094">
        <ele>1099.7659733333</ele>
        <time>2018-08-29T16:08:16Z</time>
      </trkpt>
      <trkpt lat="45.1724" lon="5.63084">
        <ele>1100.9662533333</ele>
        <time>2018-08-29T16:08:20Z</time>
      </trkpt>
      <trkpt lat="45.17236" lon="5.63075">
        <ele>1102.1664733333</ele>
        <time>2018-08-29T16:08:24Z</time>
      </trkpt>
      <trkpt lat="45.17232" lon="5.63066">
        <ele>1103.1666333333</ele>
        <time>2018-08-29T16:08:28Z</time>
      </trkpt>
      <trkpt lat="45.17227" lon="5.63058">
        <ele>1104.3667666667</ele>
        <time>2018-08-29T16:08:32Z</time>
      </trkpt>
      <trkpt lat="45.17218" lon="5.63051">
        <ele>1105.1666933333</ele>
        <time>2018-08-29T16:08:37Z</time>
      </trkpt>
      <trkpt lat="45.1721" lon="5.63048">
        <ele>1106.0665133333</ele>
        <time>2018-08-29T16:08:41Z</time>
      </trkpt>
      <trkpt lat="45.17203" lon="5.63044">
        <ele>1106.66636</ele>
        <time>2018-08-29T16:08:45Z</time>
      </trkpt>
      <trkpt lat="45.17192" lon="5.63043">
        <ele>1107.26596</ele>
        <time>2018-08-29T16:08:50Z</time>
      </trkpt>
      <trkpt lat="45.17183" lon="5.63047">
        <ele>1107.26546</ele>
        <time>2018-08-29T16:08:54Z</time>
      </trkpt>
      <trkpt lat="45.17172" lon="5.6305">
        <ele>1108.2648866667</ele>
        <time>2018-08-29T16:08:59Z</time>
      </trkpt>
      <trkpt lat="45.17165" lon="5.63053">
        <ele>1108.1644866667</ele>
        <time>2018-08-29T16:09:02Z</time>
      </trkpt>
      <trkpt lat="45.17155" lon="5.63057">
        <ele>1107.96392</ele>
        <time>2018-08-29T16:09:07Z</time>
      </trkpt>
      <trkpt lat="45.17146" lon="5.63059">
        <ele>1107.8634933333</ele>
        <time>2018-08-29T16:09:11Z</time>
      </trkpt>
      <trkpt lat="45.17135" lon="5.6306">
        <ele>1107.863</ele>
        <time>2018-08-29T16:09:16Z</time>
      </trkpt>
      <trkpt lat="45.17125" lon="5.63058">
        <ele>1108.5626933333</ele>
        <time>2018-08-29T16:09:20Z</time>
      </trkpt>
      <trkpt lat="45.17112" lon="5.63066">
        <ele>1110.9618466667</ele>
        <time>2018-08-29T16:09:25Z</time>
      </trkpt>
      <trkpt lat="45.17103" lon="5.63072">
        <ele>1110.86122</ele>
        <time>2018-08-29T16:09:29Z</time>
      </trkpt>
      <trkpt lat="45.17088" lon="5.6307">
        <ele>1111.5607266667</ele>
        <time>2018-08-29T16:09:34Z</time>
      </trkpt>
      <trkpt lat="45.17079" lon="5.63063">
        <ele>1110.26062</ele>
        <time>2018-08-29T16:09:38Z</time>
      </trkpt>
      <trkpt lat="45.17068" lon="5.63052">
        <ele>1110.8606333333</ele>
        <time>2018-08-29T16:09:43Z</time>
      </trkpt>
      <trkpt lat="45.17061" lon="5.6304">
        <ele>1111.1608133333</ele>
        <time>2018-08-29T16:09:47Z</time>
      </trkpt>
      <trkpt lat="45.17055" lon="5.63028">
        <ele>1113.2610866667</ele>
        <time>2018-08-29T16:09:52Z</time>
      </trkpt>
      <trkpt lat="45.17051" lon="5.63026">
        <ele>1114.1610133333</ele>
        <time>2018-08-29T16:09:56Z</time>
      </trkpt>
      <trkpt lat="45.17052" lon="5.63024">
        <ele>1115.2611133333</ele>
        <time>2018-08-29T16:11:12Z</time>
      </trkpt>
      <trkpt lat="45.17049" lon="5.63016">
        <ele>1115.1613266667</ele>
        <time>2018-08-29T16:11:16Z</time>
      </trkpt>
      <trkpt lat="45.17045" lon="5.63008">
        <ele>1115.06146</ele>
        <time>2018-08-29T16:11:20Z</time>
      </trkpt>
      <trkpt lat="45.17038" lon="5.63002">
        <ele>1114.46144</ele>
        <time>2018-08-29T16:11:25Z</time>
      </trkpt>
      <trkpt lat="45.1703" lon="5.63004">
        <ele>1113.7610533333</ele>
        <time>2018-08-29T16:11:29Z</time>
      </trkpt>
      <trkpt lat="45.17024" lon="5.63005">
        <ele>1113.4607533333</ele>
        <time>2018-08-29T16:11:32Z</time>
      </trkpt>
      <trkpt lat="45.17015" lon="5.63007">
        <ele>1113.0603266667</ele>
        <time>2018-08-29T16:11:36Z</time>
      </trkpt>
      <trkpt lat="45.17006" lon="5.63009">
        <ele>1112.7598933333</ele>
        <time>2018-08-29T16:11:40Z</time>
      </trkpt>
      <trkpt lat="45.16998" lon="5.63011">
        <ele>1111.9594866667</ele>
        <time>2018-08-29T16:11:44Z</time>
      </trkpt>
      <trkpt lat="45.16986" lon="5.63017">
        <ele>1113.4587866667</ele>
        <time>2018-08-29T16:11:49Z</time>
      </trkpt>
      <trkpt lat="45.16978" lon="5.63018">
        <ele>1112.9584066667</ele>
        <time>2018-08-29T16:11:53Z</time>
      </trkpt>
      <trkpt lat="45.16969" lon="5.63019">
        <ele>1112.9580133333</ele>
        <time>2018-08-29T16:11:57Z</time>
      </trkpt>
      <trkpt lat="45.16963" lon="5.63019">
        <ele>1113.05776</ele>
        <time>2018-08-29T16:12:00Z</time>
      </trkpt>
      <trkpt lat="45.16954" lon="5.63019">
        <ele>1114.4574333333</ele>
        <time>2018-08-29T16:12:04Z</time>
      </trkpt>
      <trkpt lat="45.16946" lon="5.6302">
        <ele>1114.95704</ele>
        <time>2018-08-29T16:12:08Z</time>
      </trkpt>
      <trkpt lat="45.16941" lon="5.63021">
        <ele>1114.9567733333</ele>
        <time>2018-08-29T16:12:11Z</time>
      </trkpt>
      <trkpt lat="45.16935" lon="5.63022">
        <ele>1115.1565066667</ele>
        <time>2018-08-29T16:12:14Z</time>
      </trkpt>
      <trkpt lat="45.16926" lon="5.63024">
        <ele>1116.0560933333</ele>
        <time>2018-08-29T16:12:18Z</time>
      </trkpt>
      <trkpt lat="45.16916" lon="5.63025">
        <ele>1117.2556466667</ele>
        <time>2018-08-29T16:12:23Z</time>
      </trkpt>
      <trkpt lat="45.16908" lon="5.63027">
        <ele>1117.75526</ele>
        <time>2018-08-29T16:12:27Z</time>
      </trkpt>
      <trkpt lat="45.169" lon="5.63027">
        <ele>1118.6549333333</ele>
        <time>2018-08-29T16:12:31Z</time>
      </trkpt>
      <trkpt lat="45.1689" lon="5.63029">
        <ele>1119.1544466667</ele>
        <time>2018-08-29T16:12:36Z</time>
      </trkpt>
      <trkpt lat="45.16882" lon="5.63031">
        <ele>1120.0540466667</ele>
        <time>2018-08-29T16:12:40Z</time>
      </trkpt>
      <trkpt lat="45.16873" lon="5.63032">
        <ele>1120.65364</ele>
        <time>2018-08-29T16:12:44Z</time>
      </trkpt>
      <trkpt lat="45.16863" lon="5.63032">
        <ele>1121.2532333333</ele>
        <time>2018-08-29T16:12:49Z</time>
      </trkpt>
      <trkpt lat="45.16857" lon="5.63034">
        <ele>1121.65292</ele>
        <time>2018-08-29T16:12:52Z</time>
      </trkpt>
      <trkpt lat="45.16848" lon="5.63036">
        <ele>1121.4525</ele>
        <time>2018-08-29T16:12:56Z</time>
      </trkpt>
      <trkpt lat="45.16839" lon="5.63035">
        <ele>1121.65216</ele>
        <time>2018-08-29T16:13:00Z</time>
      </trkpt>
      <trkpt lat="45.1683" lon="5.63036">
        <ele>1122.0517666667</ele>
        <time>2018-08-29T16:13:04Z</time>
      </trkpt>
      <trkpt lat="45.16824" lon="5.63037">
        <ele>1122.2514733333</ele>
        <time>2018-08-29T16:13:07Z</time>
      </trkpt>
      <trkpt lat="45.16813" lon="5.63038">
        <ele>1122.8509733333</ele>
        <time>2018-08-29T16:13:12Z</time>
      </trkpt>
      <trkpt lat="45.16804" lon="5.6304">
        <ele>1123.75058</ele>
        <time>2018-08-29T16:13:16Z</time>
      </trkpt>
      <trkpt lat="45.16794" lon="5.6304">
        <ele>1124.15018</ele>
        <time>2018-08-29T16:13:21Z</time>
      </trkpt>
      <trkpt lat="45.16788" lon="5.6304">
        <ele>1124.64994</ele>
        <time>2018-08-29T16:13:24Z</time>
      </trkpt>
      <trkpt lat="45.16783" lon="5.63039">
        <ele>1125.14974</ele>
        <time>2018-08-29T16:13:27Z</time>
      </trkpt>
      <trkpt lat="45.16773" lon="5.63043">
        <ele>1126.6492066667</ele>
        <time>2018-08-29T16:13:32Z</time>
      </trkpt>
      <trkpt lat="45.16764" lon="5.63046">
        <ele>1127.1487133333</ele>
        <time>2018-08-29T16:13:37Z</time>
      </trkpt>
      <trkpt lat="45.16758" lon="5.63047">
        <ele>1127.54844</ele>
        <time>2018-08-29T16:13:40Z</time>
      </trkpt>
      <trkpt lat="45.16751" lon="5.63051">
        <ele>1127.2480266667</ele>
        <time>2018-08-29T16:13:44Z</time>
      </trkpt>
      <trkpt lat="45.16742" lon="5.63053">
        <ele>1127.2475733333</ele>
        <time>2018-08-29T16:13:49Z</time>
      </trkpt>
      <trkpt lat="45.16733" lon="5.63056">
        <ele>1128.04708</ele>
        <time>2018-08-29T16:13:54Z</time>
      </trkpt>
      <trkpt lat="45.16726" lon="5.63058">
        <ele>1128.3467066667</ele>
        <time>2018-08-29T16:13:58Z</time>
      </trkpt>
      <trkpt lat="45.16719" lon="5.63061">
        <ele>1128.1463066667</ele>
        <time>2018-08-29T16:14:02Z</time>
      </trkpt>
      <trkpt lat="45.1671" lon="5.63063">
        <ele>1128.6458866667</ele>
        <time>2018-08-29T16:14:07Z</time>
      </trkpt>
      <trkpt lat="45.16702" lon="5.63067">
        <ele>1129.0453933333</ele>
        <time>2018-08-29T16:14:12Z</time>
      </trkpt>
      <trkpt lat="45.16695" lon="5.63069">
        <ele>1129.44502</ele>
        <time>2018-08-29T16:14:16Z</time>
      </trkpt>
      <trkpt lat="45.16684" lon="5.63072">
        <ele>1130.7445066667</ele>
        <time>2018-08-29T16:14:21Z</time>
      </trkpt>
      <trkpt lat="45.16675" lon="5.63072">
        <ele>1130.9441266667</ele>
        <time>2018-08-29T16:14:26Z</time>
      </trkpt>
      <trkpt lat="45.16669" lon="5.63069">
        <ele>1131.5440066667</ele>
        <time>2018-08-29T16:14:29Z</time>
      </trkpt>
      <trkpt lat="45.16662" lon="5.6306">
        <ele>1132.74408</ele>
        <time>2018-08-29T16:14:34Z</time>
      </trkpt>
      <trkpt lat="45.16659" lon="5.6305">
        <ele>1133.84436</ele>
        <time>2018-08-29T16:14:38Z</time>
      </trkpt>
      <trkpt lat="45.16658" lon="5.63038">
        <ele>1134.8447866667</ele>
        <time>2018-08-29T16:14:42Z</time>
      </trkpt>
      <trkpt lat="45.16658" lon="5.63027">
        <ele>1136.1452666667</ele>
        <time>2018-08-29T16:14:46Z</time>
      </trkpt>
      <trkpt lat="45.16659" lon="5.63015">
        <ele>1137.24576</ele>
        <time>2018-08-29T16:14:50Z</time>
      </trkpt>
      <trkpt lat="45.16659" lon="5.63006">
        <ele>1138.54612</ele>
        <time>2018-08-29T16:14:53Z</time>
      </trkpt>
      <trkpt lat="45.16659" lon="5.62994">
        <ele>1138.3465733333</ele>
        <time>2018-08-29T16:14:57Z</time>
      </trkpt>
      <trkpt lat="45.16659" lon="5.62983">
        <ele>1139.3470466667</ele>
        <time>2018-08-29T16:15:01Z</time>
      </trkpt>
      <trkpt lat="45.16659" lon="5.62971">
        <ele>1139.7475333333</ele>
        <time>2018-08-29T16:15:05Z</time>
      </trkpt>
      <trkpt lat="45.1666" lon="5.62956">
        <ele>1140.1481466667</ele>
        <time>2018-08-29T16:15:10Z</time>
      </trkpt>
      <trkpt lat="45.16662" lon="5.62944">
        <ele>1140.54874</ele>
        <time>2018-08-29T16:15:15Z</time>
      </trkpt>
      <trkpt lat="45.16663" lon="5.62933">
        <ele>1140.3492333333</ele>
        <time>2018-08-29T16:15:19Z</time>
      </trkpt>
      <trkpt lat="45.16664" lon="5.62924">
        <ele>1140.24962</ele>
        <time>2018-08-29T16:15:22Z</time>
      </trkpt>
      <trkpt lat="45.16667" lon="5.62911">
        <ele>1140.2502266667</ele>
        <time>2018-08-29T16:15:26Z</time>
      </trkpt>
      <trkpt lat="45.16669" lon="5.62899">
        <ele>1141.0508</ele>
        <time>2018-08-29T16:15:30Z</time>
      </trkpt>
      <trkpt lat="45.16669" lon="5.62885">
        <ele>1141.15136</ele>
        <time>2018-08-29T16:15:34Z</time>
      </trkpt>
      <trkpt lat="45.16659" lon="5.62889">
        <ele>1141.3507866667</ele>
        <time>2018-08-29T16:15:39Z</time>
      </trkpt>
      <trkpt lat="45.16652" lon="5.62899">
        <ele>1141.15012</ele>
        <time>2018-08-29T16:15:43Z</time>
      </trkpt>
      <trkpt lat="45.16646" lon="5.62911">
        <ele>1141.7493866667</ele>
        <time>2018-08-29T16:15:47Z</time>
      </trkpt>
      <trkpt lat="45.16642" lon="5.62921">
        <ele>1141.5488266667</ele>
        <time>2018-08-29T16:15:50Z</time>
      </trkpt>
      <trkpt lat="45.16637" lon="5.6294">
        <ele>1142.1479066667</ele>
        <time>2018-08-29T16:15:55Z</time>
      </trkpt>
      <trkpt lat="45.16635" lon="5.62959">
        <ele>1143.1470466667</ele>
        <time>2018-08-29T16:16:00Z</time>
      </trkpt>
      <trkpt lat="45.16633" lon="5.62975">
        <ele>1143.8463333333</ele>
        <time>2018-08-29T16:16:04Z</time>
      </trkpt>
      <trkpt lat="45.1663" lon="5.62992">
        <ele>1144.94552</ele>
        <time>2018-08-29T16:16:09Z</time>
      </trkpt>
      <trkpt lat="45.16626" lon="5.63005">
        <ele>1145.24484</ele>
        <time>2018-08-29T16:16:13Z</time>
      </trkpt>
      <trkpt lat="45.16619" lon="5.63018">
        <ele>1145.2440466667</ele>
        <time>2018-08-29T16:16:18Z</time>
      </trkpt>
      <trkpt lat="45.16612" lon="5.63026">
        <ele>1145.4434533333</ele>
        <time>2018-08-29T16:16:22Z</time>
      </trkpt>
      <trkpt lat="45.16605" lon="5.63035">
        <ele>1145.6428066667</ele>
        <time>2018-08-29T16:16:26Z</time>
      </trkpt>
      <trkpt lat="45.166" lon="5.63044">
        <ele>1146.3422333333</ele>
        <time>2018-08-29T16:16:30Z</time>
      </trkpt>
      <trkpt lat="45.16594" lon="5.63054">
        <ele>1147.5415933333</ele>
        <time>2018-08-29T16:16:34Z</time>
      </trkpt>
      <trkpt lat="45.16589" lon="5.63064">
        <ele>1148.54098</ele>
        <time>2018-08-29T16:16:38Z</time>
      </trkpt>
      <trkpt lat="45.16585" lon="5.63074">
        <ele>1149.14046</ele>
        <time>2018-08-29T16:16:42Z</time>
      </trkpt>
      <trkpt lat="45.16583" lon="5.63086">
        <ele>1150.1398866667</ele>
        <time>2018-08-29T16:16:46Z</time>
      </trkpt>
      <trkpt lat="45.16582" lon="5.631">
        <ele>1150.83926</ele>
        <time>2018-08-29T16:16:51Z</time>
      </trkpt>
      <trkpt lat="45.16582" lon="5.63111">
        <ele>1153.3388533333</ele>
        <time>2018-08-29T16:16:55Z</time>
      </trkpt>
      <trkpt lat="45.16587" lon="5.63126">
        <ele>1154.3384666667</ele>
        <time>2018-08-29T16:17:00Z</time>
      </trkpt>
      <trkpt lat="45.16596" lon="5.63137">
        <ele>1154.2383733333</ele>
        <time>2018-08-29T16:17:04Z</time>
      </trkpt>
      <trkpt lat="45.16607" lon="5.63145">
        <ele>1154.43848</ele>
        <time>2018-08-29T16:17:08Z</time>
      </trkpt>
      <trkpt lat="45.16621" lon="5.63155">
        <ele>1154.93862</ele>
        <time>2018-08-29T16:17:13Z</time>
      </trkpt>
      <trkpt lat="45.16628" lon="5.63165">
        <ele>1155.6385533333</ele>
        <time>2018-08-29T16:17:16Z</time>
      </trkpt>
      <trkpt lat="45.1664" lon="5.63176">
        <ele>1155.4385933333</ele>
        <time>2018-08-29T16:17:20Z</time>
      </trkpt>
      <trkpt lat="45.16653" lon="5.63188">
        <ele>1155.4386</ele>
        <time>2018-08-29T16:17:24Z</time>
      </trkpt>
      <trkpt lat="45.16668" lon="5.63201">
        <ele>1155.1386533333</ele>
        <time>2018-08-29T16:17:29Z</time>
      </trkpt>
      <trkpt lat="45.16677" lon="5.63209">
        <ele>1155.5387066667</ele>
        <time>2018-08-29T16:17:32Z</time>
      </trkpt>
      <trkpt lat="45.16693" lon="5.63223">
        <ele>1155.5388066667</ele>
        <time>2018-08-29T16:17:37Z</time>
      </trkpt>
      <trkpt lat="45.16709" lon="5.63236">
        <ele>1155.6388933333</ele>
        <time>2018-08-29T16:17:42Z</time>
      </trkpt>
      <trkpt lat="45.16721" lon="5.63247">
        <ele>1155.9389533333</ele>
        <time>2018-08-29T16:17:46Z</time>
      </trkpt>
      <trkpt lat="45.16733" lon="5.63256">
        <ele>1155.7391066667</ele>
        <time>2018-08-29T16:17:50Z</time>
      </trkpt>
      <trkpt lat="45.1675" lon="5.63265">
        <ele>1156.3394266667</ele>
        <time>2018-08-29T16:17:55Z</time>
      </trkpt>
      <trkpt lat="45.1676" lon="5.6327">
        <ele>1156.5395933333</ele>
        <time>2018-08-29T16:17:58Z</time>
      </trkpt>
      <trkpt lat="45.16772" lon="5.63278">
        <ele>1156.8397466667</ele>
        <time>2018-08-29T16:18:02Z</time>
      </trkpt>
      <trkpt lat="45.16782" lon="5.6329">
        <ele>1157.4396933333</ele>
        <time>2018-08-29T16:18:06Z</time>
      </trkpt>
      <trkpt lat="45.16797" lon="5.63305">
        <ele>1157.8396933333</ele>
        <time>2018-08-29T16:18:11Z</time>
      </trkpt>
      <trkpt lat="45.16808" lon="5.63317">
        <ele>1157.8396333333</ele>
        <time>2018-08-29T16:18:15Z</time>
      </trkpt>
      <trkpt lat="45.16816" lon="5.63332">
        <ele>1157.4393933333</ele>
        <time>2018-08-29T16:18:19Z</time>
      </trkpt>
      <trkpt lat="45.16823" lon="5.63344">
        <ele>1157.33916</ele>
        <time>2018-08-29T16:18:22Z</time>
      </trkpt>
      <trkpt lat="45.16823" lon="5.63361">
        <ele>1156.83848</ele>
        <time>2018-08-29T16:18:26Z</time>
      </trkpt>
      <trkpt lat="45.16815" lon="5.63365">
        <ele>1157.3380266667</ele>
        <time>2018-08-29T16:18:30Z</time>
      </trkpt>
      <trkpt lat="45.16809" lon="5.63362">
        <ele>1158.1378933333</ele>
        <time>2018-08-29T16:18:34Z</time>
      </trkpt>
      <trkpt lat="45.16804" lon="5.63359">
        <ele>1158.9378</ele>
        <time>2018-08-29T16:18:38Z</time>
      </trkpt>
      <trkpt lat="45.16798" lon="5.63355">
        <ele>1159.5377466667</ele>
        <time>2018-08-29T16:18:42Z</time>
      </trkpt>
      <trkpt lat="45.16791" lon="5.63351">
        <ele>1160.5375866667</ele>
        <time>2018-08-29T16:18:47Z</time>
      </trkpt>
      <trkpt lat="45.16783" lon="5.6335">
        <ele>1161.8373266667</ele>
        <time>2018-08-29T16:18:51Z</time>
      </trkpt>
      <trkpt lat="45.16778" lon="5.63349">
        <ele>1162.63716</ele>
        <time>2018-08-29T16:18:54Z</time>
      </trkpt>
      <trkpt lat="45.16773" lon="5.63347">
        <ele>1163.63702</ele>
        <time>2018-08-29T16:18:58Z</time>
      </trkpt>
      <trkpt lat="45.16767" lon="5.63345">
        <ele>1165.03686</ele>
        <time>2018-08-29T16:19:02Z</time>
      </trkpt>
      <trkpt lat="45.16759" lon="5.63344">
        <ele>1166.3366066667</ele>
        <time>2018-08-29T16:19:07Z</time>
      </trkpt>
      <trkpt lat="45.16751" lon="5.63341">
        <ele>1167.5364</ele>
        <time>2018-08-29T16:19:11Z</time>
      </trkpt>
      <trkpt lat="45.16744" lon="5.63338">
        <ele>1168.53624</ele>
        <time>2018-08-29T16:19:16Z</time>
      </trkpt>
      <trkpt lat="45.16738" lon="5.63336">
        <ele>1169.1360933333</ele>
        <time>2018-08-29T16:19:20Z</time>
      </trkpt>
      <trkpt lat="45.16733" lon="5.63334">
        <ele>1169.9359733333</ele>
        <time>2018-08-29T16:19:24Z</time>
      </trkpt>
      <trkpt lat="45.16725" lon="5.63331">
        <ele>1170.4357733333</ele>
        <time>2018-08-29T16:19:28Z</time>
      </trkpt>
      <trkpt lat="45.16715" lon="5.63328">
        <ele>1171.6355</ele>
        <time>2018-08-29T16:19:33Z</time>
      </trkpt>
      <trkpt lat="45.16707" lon="5.63325">
        <ele>1172.8352933333</ele>
        <time>2018-08-29T16:19:37Z</time>
      </trkpt>
      <trkpt lat="45.16696" lon="5.63321">
        <ele>1175.83498</ele>
        <time>2018-08-29T16:19:42Z</time>
      </trkpt>
      <trkpt lat="45.16687" lon="5.63316">
        <ele>1178.3348466667</ele>
        <time>2018-08-29T16:19:46Z</time>
      </trkpt>
      <trkpt lat="45.16678" lon="5.63312">
        <ele>1180.43464</ele>
        <time>2018-08-29T16:19:50Z</time>
      </trkpt>
      <trkpt lat="45.16669" lon="5.63306">
        <ele>1182.5345066667</ele>
        <time>2018-08-29T16:19:55Z</time>
      </trkpt>
      <trkpt lat="45.16658" lon="5.63302">
        <ele>1181.9342533333</ele>
        <time>2018-08-29T16:20:00Z</time>
      </trkpt>
      <trkpt lat="45.16648" lon="5.63298">
        <ele>1183.1340066667</ele>
        <time>2018-08-29T16:20:04Z</time>
      </trkpt>
      <trkpt lat="45.1664" lon="5.63295">
        <ele>1182.9338</ele>
        <time>2018-08-29T16:20:08Z</time>
      </trkpt>
      <trkpt lat="45.1663" lon="5.63292">
        <ele>1180.7335466667</ele>
        <time>2018-08-29T16:20:12Z</time>
      </trkpt>
      <trkpt lat="45.16621" lon="5.63288">
        <ele>1180.5333333333</ele>
        <time>2018-08-29T16:20:16Z</time>
      </trkpt>
      <trkpt lat="45.16613" lon="5.63286">
        <ele>1180.5330933333</ele>
        <time>2018-08-29T16:20:20Z</time>
      </trkpt>
      <trkpt lat="45.16604" lon="5.6328">
        <ele>1179.9329333333</ele>
        <time>2018-08-29T16:20:25Z</time>
      </trkpt>
      <trkpt lat="45.16594" lon="5.63277">
        <ele>1180.8326733333</ele>
        <time>2018-08-29T16:20:30Z</time>
      </trkpt>
      <trkpt lat="45.16588" lon="5.63275">
        <ele>1181.63252</ele>
        <time>2018-08-29T16:20:34Z</time>
      </trkpt>
      <trkpt lat="45.1658" lon="5.63272">
        <ele>1182.2323133333</ele>
        <time>2018-08-29T16:20:39Z</time>
      </trkpt>
      <trkpt lat="45.16574" lon="5.63269">
        <ele>1182.63218</ele>
        <time>2018-08-29T16:20:43Z</time>
      </trkpt>
      <trkpt lat="45.16567" lon="5.63268">
        <ele>1183.3319533333</ele>
        <time>2018-08-29T16:20:47Z</time>
      </trkpt>
      <trkpt lat="45.1656" lon="5.63265">
        <ele>1184.4318066667</ele>
        <time>2018-08-29T16:20:51Z</time>
      </trkpt>
      <trkpt lat="45.16552" lon="5.63262">
        <ele>1185.4316333333</ele>
        <time>2018-08-29T16:20:56Z</time>
      </trkpt>
      <trkpt lat="45.16547" lon="5.6326">
        <ele>1186.4314466667</ele>
        <time>2018-08-29T16:21:00Z</time>
      </trkpt>
      <trkpt lat="45.16539" lon="5.63259">
        <ele>1187.1311866667</ele>
        <time>2018-08-29T16:21:05Z</time>
      </trkpt>
      <trkpt lat="45.16534" lon="5.63258">
        <ele>1187.73106</ele>
        <time>2018-08-29T16:21:08Z</time>
      </trkpt>
      <trkpt lat="45.16528" lon="5.63257">
        <ele>1188.4308266667</ele>
        <time>2018-08-29T16:21:13Z</time>
      </trkpt>
      <trkpt lat="45.16525" lon="5.63255">
        <ele>1189.13082</ele>
        <time>2018-08-29T16:21:16Z</time>
      </trkpt>
      <trkpt lat="45.16522" lon="5.63255">
        <ele>1190.0306666667</ele>
        <time>2018-08-29T16:21:20Z</time>
      </trkpt>
      <trkpt lat="45.16515" lon="5.63253">
        <ele>1191.2304866667</ele>
        <time>2018-08-29T16:21:25Z</time>
      </trkpt>
      <trkpt lat="45.1651" lon="5.63251">
        <ele>1191.7303466667</ele>
        <time>2018-08-29T16:21:29Z</time>
      </trkpt>
      <trkpt lat="45.16506" lon="5.6325">
        <ele>1192.1302133333</ele>
        <time>2018-08-29T16:21:32Z</time>
      </trkpt>
      <trkpt lat="45.16501" lon="5.63248">
        <ele>1193.2301133333</ele>
        <time>2018-08-29T16:21:36Z</time>
      </trkpt>
      <trkpt lat="45.16496" lon="5.63246">
        <ele>1193.53002</ele>
        <time>2018-08-29T16:21:39Z</time>
      </trkpt>
      <trkpt lat="45.16488" lon="5.63242">
        <ele>1194.62986</ele>
        <time>2018-08-29T16:21:44Z</time>
      </trkpt>
      <trkpt lat="45.16483" lon="5.63237">
        <ele>1195.52984</ele>
        <time>2018-08-29T16:21:48Z</time>
      </trkpt>
      <trkpt lat="45.16477" lon="5.63234">
        <ele>1196.32972</ele>
        <time>2018-08-29T16:21:52Z</time>
      </trkpt>
      <trkpt lat="45.16472" lon="5.63229">
        <ele>1196.8297266667</ele>
        <time>2018-08-29T16:21:56Z</time>
      </trkpt>
      <trkpt lat="45.16466" lon="5.63223">
        <ele>1197.1297333333</ele>
        <time>2018-08-29T16:22:01Z</time>
      </trkpt>
      <trkpt lat="45.16462" lon="5.63216">
        <ele>1197.3298333333</ele>
        <time>2018-08-29T16:22:06Z</time>
      </trkpt>
      <trkpt lat="45.16456" lon="5.63209">
        <ele>1198.3299066667</ele>
        <time>2018-08-29T16:22:11Z</time>
      </trkpt>
      <trkpt lat="45.16452" lon="5.63208">
        <ele>1198.92978</ele>
        <time>2018-08-29T16:22:14Z</time>
      </trkpt>
      <trkpt lat="45.16448" lon="5.63205">
        <ele>1199.3297066667</ele>
        <time>2018-08-29T16:22:18Z</time>
      </trkpt>
      <trkpt lat="45.16443" lon="5.63196">
        <ele>1199.9298933333</ele>
        <time>2018-08-29T16:22:22Z</time>
      </trkpt>
      <trkpt lat="45.16439" lon="5.6319">
        <ele>1200.3299333333</ele>
        <time>2018-08-29T16:22:26Z</time>
      </trkpt>
      <trkpt lat="45.16434" lon="5.63185">
        <ele>1200.72996</ele>
        <time>2018-08-29T16:22:30Z</time>
      </trkpt>
      <trkpt lat="45.16429" lon="5.63181">
        <ele>1201.32992</ele>
        <time>2018-08-29T16:22:35Z</time>
      </trkpt>
      <trkpt lat="45.16426" lon="5.63179">
        <ele>1201.7298933333</ele>
        <time>2018-08-29T16:22:38Z</time>
      </trkpt>
      <trkpt lat="45.1642" lon="5.63175">
        <ele>1202.3298</ele>
        <time>2018-08-29T16:22:43Z</time>
      </trkpt>
      <trkpt lat="45.16417" lon="5.63172">
        <ele>1202.6298066667</ele>
        <time>2018-08-29T16:22:46Z</time>
      </trkpt>
      <trkpt lat="45.16411" lon="5.63169">
        <ele>1202.8296533333</ele>
        <time>2018-08-29T16:22:50Z</time>
      </trkpt>
      <trkpt lat="45.16404" lon="5.63165">
        <ele>1203.62956</ele>
        <time>2018-08-29T16:22:55Z</time>
      </trkpt>
      <trkpt lat="45.16398" lon="5.63162">
        <ele>1204.5294133333</ele>
        <time>2018-08-29T16:22:59Z</time>
      </trkpt>
      <trkpt lat="45.1639" lon="5.63156">
        <ele>1205.3293733333</ele>
        <time>2018-08-29T16:23:04Z</time>
      </trkpt>
      <trkpt lat="45.16385" lon="5.63152">
        <ele>1205.52934</ele>
        <time>2018-08-29T16:23:07Z</time>
      </trkpt>
      <trkpt lat="45.16377" lon="5.63142">
        <ele>1206.7294266667</ele>
        <time>2018-08-29T16:23:12Z</time>
      </trkpt>
      <trkpt lat="45.16372" lon="5.63134">
        <ele>1207.7295066667</ele>
        <time>2018-08-29T16:23:16Z</time>
      </trkpt>
      <trkpt lat="45.16366" lon="5.63129">
        <ele>1208.72948</ele>
        <time>2018-08-29T16:23:20Z</time>
      </trkpt>
      <trkpt lat="45.1636" lon="5.63124">
        <ele>1208.32944</ele>
        <time>2018-08-29T16:23:24Z</time>
      </trkpt>
      <trkpt lat="45.16353" lon="5.63116">
        <ele>1207.7294533333</ele>
        <time>2018-08-29T16:23:29Z</time>
      </trkpt>
      <trkpt lat="45.16349" lon="5.63113">
        <ele>1207.92944</ele>
        <time>2018-08-29T16:23:32Z</time>
      </trkpt>
      <trkpt lat="45.16342" lon="5.63108">
        <ele>1208.6293533333</ele>
        <time>2018-08-29T16:23:37Z</time>
      </trkpt>
      <trkpt lat="45.16338" lon="5.63107">
        <ele>1209.0292466667</ele>
        <time>2018-08-29T16:23:40Z</time>
      </trkpt>
      <trkpt lat="45.16333" lon="5.63104">
        <ele>1209.62916</ele>
        <time>2018-08-29T16:23:44Z</time>
      </trkpt>
      <trkpt lat="45.16328" lon="5.63101">
        <ele>1210.1290733333</ele>
        <time>2018-08-29T16:23:49Z</time>
      </trkpt>
      <trkpt lat="45.1632" lon="5.631">
        <ele>1210.82882</ele>
        <time>2018-08-29T16:23:54Z</time>
      </trkpt>
      <trkpt lat="45.16314" lon="5.63096">
        <ele>1211.42872</ele>
        <time>2018-08-29T16:23:58Z</time>
      </trkpt>
      <trkpt lat="45.16308" lon="5.63094">
        <ele>1212.22854</ele>
        <time>2018-08-29T16:24:02Z</time>
      </trkpt>
      <trkpt lat="45.163" lon="5.63088">
        <ele>1213.8284733333</ele>
        <time>2018-08-29T16:24:07Z</time>
      </trkpt>
      <trkpt lat="45.16293" lon="5.63082">
        <ele>1215.02846</ele>
        <time>2018-08-29T16:24:11Z</time>
      </trkpt>
      <trkpt lat="45.16287" lon="5.63079">
        <ele>1215.4283133333</ele>
        <time>2018-08-29T16:24:14Z</time>
      </trkpt>
      <trkpt lat="45.16279" lon="5.63076">
        <ele>1215.72812</ele>
        <time>2018-08-29T16:24:17Z</time>
      </trkpt>
      <trkpt lat="45.16262" lon="5.6307">
        <ele>1216.02766</ele>
        <time>2018-08-29T16:24:22Z</time>
      </trkpt>
      <trkpt lat="45.16247" lon="5.63066">
        <ele>1216.6272733333</ele>
        <time>2018-08-29T16:24:26Z</time>
      </trkpt>
      <trkpt lat="45.16235" lon="5.63059">
        <ele>1217.5270333333</ele>
        <time>2018-08-29T16:24:30Z</time>
      </trkpt>
      <trkpt lat="45.16218" lon="5.63049">
        <ele>1218.3267666667</ele>
        <time>2018-08-29T16:24:35Z</time>
      </trkpt>
      <trkpt lat="45.16203" lon="5.6304">
        <ele>1218.6265266667</ele>
        <time>2018-08-29T16:24:39Z</time>
      </trkpt>
      <trkpt lat="45.16186" lon="5.63033">
        <ele>1218.4261066667</ele>
        <time>2018-08-29T16:24:43Z</time>
      </trkpt>
      <trkpt lat="45.16167" lon="5.63023">
        <ele>1218.8257466667</ele>
        <time>2018-08-29T16:24:47Z</time>
      </trkpt>
      <trkpt lat="45.16141" lon="5.62998">
        <ele>1218.4257133333</ele>
        <time>2018-08-29T16:24:52Z</time>
      </trkpt>
      <trkpt lat="45.16122" lon="5.62976">
        <ele>1217.72584</ele>
        <time>2018-08-29T16:24:56Z</time>
      </trkpt>
      <trkpt lat="45.16106" lon="5.62936">
        <ele>1214.5268</ele>
        <time>2018-08-29T16:25:01Z</time>
      </trkpt>
      <trkpt lat="45.16104" lon="5.629">
        <ele>1213.32814</ele>
        <time>2018-08-29T16:25:06Z</time>
      </trkpt>
      <trkpt lat="45.16102" lon="5.6288">
        <ele>1212.6288933333</ele>
        <time>2018-08-29T16:25:10Z</time>
      </trkpt>
      <trkpt lat="45.161" lon="5.62866">
        <ele>1212.1293466667</ele>
        <time>2018-08-29T16:25:14Z</time>
      </trkpt>
      <trkpt lat="45.16096" lon="5.62854">
        <ele>1211.32968</ele>
        <time>2018-08-29T16:25:18Z</time>
      </trkpt>
      <trkpt lat="45.16091" lon="5.62842">
        <ele>1210.62998</ele>
        <time>2018-08-29T16:25:22Z</time>
      </trkpt>
      <trkpt lat="45.16088" lon="5.62828">
        <ele>1209.4304266667</ele>
        <time>2018-08-29T16:25:26Z</time>
      </trkpt>
      <trkpt lat="45.16082" lon="5.62813">
        <ele>1208.2307933333</ele>
        <time>2018-08-29T16:25:30Z</time>
      </trkpt>
      <trkpt lat="45.16078" lon="5.62796">
        <ele>1207.1312733333</ele>
        <time>2018-08-29T16:25:34Z</time>
      </trkpt>
      <trkpt lat="45.16074" lon="5.62776">
        <ele>1205.83194</ele>
        <time>2018-08-29T16:25:38Z</time>
      </trkpt>
      <trkpt lat="45.16069" lon="5.62749">
        <ele>1204.9327733333</ele>
        <time>2018-08-29T16:25:42Z</time>
      </trkpt>
      <trkpt lat="45.16065" lon="5.62724">
        <ele>1204.5336666667</ele>
        <time>2018-08-29T16:25:46Z</time>
      </trkpt>
      <trkpt lat="45.16062" lon="5.62705">
        <ele>1204.03428</ele>
        <time>2018-08-29T16:25:49Z</time>
      </trkpt>
      <trkpt lat="45.16055" lon="5.62675">
        <ele>1202.9352133333</ele>
        <time>2018-08-29T16:25:54Z</time>
      </trkpt>
      <trkpt lat="45.16051" lon="5.62645">
        <ele>1201.9362466667</ele>
        <time>2018-08-29T16:25:58Z</time>
      </trkpt>
      <trkpt lat="45.16047" lon="5.62612">
        <ele>1200.6374266667</ele>
        <time>2018-08-29T16:26:02Z</time>
      </trkpt>
      <trkpt lat="45.1604" lon="5.62575">
        <ele>1199.2385733333</ele>
        <time>2018-08-29T16:26:06Z</time>
      </trkpt>
      <trkpt lat="45.16025" lon="5.62543">
        <ele>1199.7392866667</ele>
        <time>2018-08-29T16:26:10Z</time>
      </trkpt>
      <trkpt lat="45.16008" lon="5.62512">
        <ele>1201.63984</ele>
        <time>2018-08-29T16:26:15Z</time>
      </trkpt>
      <trkpt lat="45.15994" lon="5.62491">
        <ele>1203.4401466667</ele>
        <time>2018-08-29T16:26:19Z</time>
      </trkpt>
      <trkpt lat="45.15986" lon="5.62477">
        <ele>1203.7403533333</ele>
        <time>2018-08-29T16:26:22Z</time>
      </trkpt>
      <trkpt lat="45.15979" lon="5.62461">
        <ele>1203.6407266667</ele>
        <time>2018-08-29T16:26:26Z</time>
      </trkpt>
      <trkpt lat="45.15969" lon="5.62443">
        <ele>1203.7410466667</ele>
        <time>2018-08-29T16:26:31Z</time>
      </trkpt>
      <trkpt lat="45.15962" lon="5.6243">
        <ele>1203.5412866667</ele>
        <time>2018-08-29T16:26:35Z</time>
      </trkpt>
      <trkpt lat="45.15952" lon="5.62412">
        <ele>1204.6415733333</ele>
        <time>2018-08-29T16:26:40Z</time>
      </trkpt>
      <trkpt lat="45.15942" lon="5.62398">
        <ele>1205.54176</ele>
        <time>2018-08-29T16:26:44Z</time>
      </trkpt>
      <trkpt lat="45.15933" lon="5.62382">
        <ele>1207.2420266667</ele>
        <time>2018-08-29T16:26:48Z</time>
      </trkpt>
      <trkpt lat="45.15919" lon="5.62358">
        <ele>1207.34242</ele>
        <time>2018-08-29T16:26:53Z</time>
      </trkpt>
      <trkpt lat="45.1591" lon="5.6234">
        <ele>1207.0427733333</ele>
        <time>2018-08-29T16:26:56Z</time>
      </trkpt>
      <trkpt lat="45.15886" lon="5.62313">
        <ele>1206.74294</ele>
        <time>2018-08-29T16:27:01Z</time>
      </trkpt>
      <trkpt lat="45.15864" lon="5.62303">
        <ele>1206.4424466667</ele>
        <time>2018-08-29T16:27:05Z</time>
      </trkpt>
      <trkpt lat="45.15839" lon="5.62302">
        <ele>1206.44148</ele>
        <time>2018-08-29T16:27:10Z</time>
      </trkpt>
      <trkpt lat="45.15811" lon="5.62305">
        <ele>1206.24024</ele>
        <time>2018-08-29T16:27:15Z</time>
      </trkpt>
      <trkpt lat="45.15795" lon="5.62306">
        <ele>1206.13958</ele>
        <time>2018-08-29T16:27:18Z</time>
      </trkpt>
      <trkpt lat="45.1577" lon="5.62307">
        <ele>1205.9385333333</ele>
        <time>2018-08-29T16:27:23Z</time>
      </trkpt>
      <trkpt lat="45.15748" lon="5.62311">
        <ele>1206.3374866667</ele>
        <time>2018-08-29T16:27:27Z</time>
      </trkpt>
      <trkpt lat="45.15728" lon="5.62316">
        <ele>1205.5364733333</ele>
        <time>2018-08-29T16:27:30Z</time>
      </trkpt>
      <trkpt lat="45.15699" lon="5.62333">
        <ele>1203.7346266667</ele>
        <time>2018-08-29T16:27:34Z</time>
      </trkpt>
      <trkpt lat="45.15666" lon="5.62371">
        <ele>1202.0318</ele>
        <time>2018-08-29T16:27:39Z</time>
      </trkpt>
      <trkpt lat="45.15654" lon="5.62391">
        <ele>1201.9305266667</ele>
        <time>2018-08-29T16:27:42Z</time>
      </trkpt>
      <trkpt lat="45.15648" lon="5.62405">
        <ele>1201.1297</ele>
        <time>2018-08-29T16:27:46Z</time>
      </trkpt>
      <trkpt lat="45.15642" lon="5.62415">
        <ele>1201.8291</ele>
        <time>2018-08-29T16:27:50Z</time>
      </trkpt>
      <trkpt lat="45.15639" lon="5.62422">
        <ele>1202.1286466667</ele>
        <time>2018-08-29T16:27:54Z</time>
      </trkpt>
      <trkpt lat="45.15634" lon="5.62431">
        <ele>1203.6280866667</ele>
        <time>2018-08-29T16:27:58Z</time>
      </trkpt>
      <trkpt lat="45.15629" lon="5.62438">
        <ele>1205.1276466667</ele>
        <time>2018-08-29T16:28:02Z</time>
      </trkpt>
      <trkpt lat="45.15626" lon="5.62443">
        <ele>1205.6273</ele>
        <time>2018-08-29T16:28:06Z</time>
      </trkpt>
      <trkpt lat="45.15623" lon="5.62448">
        <ele>1206.42698</ele>
        <time>2018-08-29T16:28:09Z</time>
      </trkpt>
      <trkpt lat="45.15618" lon="5.62455">
        <ele>1207.4265333333</ele>
        <time>2018-08-29T16:28:13Z</time>
      </trkpt>
      <trkpt lat="45.15615" lon="5.62461">
        <ele>1208.02618</ele>
        <time>2018-08-29T16:28:16Z</time>
      </trkpt>
      <trkpt lat="45.15612" lon="5.62467">
        <ele>1208.22582</ele>
        <time>2018-08-29T16:28:20Z</time>
      </trkpt>
      <trkpt lat="45.15608" lon="5.62472">
        <ele>1208.6254333333</ele>
        <time>2018-08-29T16:28:24Z</time>
      </trkpt>
      <trkpt lat="45.15606" lon="5.62479">
        <ele>1209.12508</ele>
        <time>2018-08-29T16:28:27Z</time>
      </trkpt>
      <trkpt lat="45.15604" lon="5.62487">
        <ele>1209.7246866667</ele>
        <time>2018-08-29T16:28:30Z</time>
      </trkpt>
      <trkpt lat="45.156" lon="5.62494">
        <ele>1210.5242333333</ele>
        <time>2018-08-29T16:28:34Z</time>
      </trkpt>
      <trkpt lat="45.15597" lon="5.62501">
        <ele>1211.52384</ele>
        <time>2018-08-29T16:28:38Z</time>
      </trkpt>
      <trkpt lat="45.15594" lon="5.62507">
        <ele>1212.1234733333</ele>
        <time>2018-08-29T16:28:42Z</time>
      </trkpt>
      <trkpt lat="45.15591" lon="5.62515">
        <ele>1213.3230466667</ele>
        <time>2018-08-29T16:28:46Z</time>
      </trkpt>
      <trkpt lat="45.15588" lon="5.62522">
        <ele>1214.02264</ele>
        <time>2018-08-29T16:28:50Z</time>
      </trkpt>
      <trkpt lat="45.15584" lon="5.62529">
        <ele>1214.6222133333</ele>
        <time>2018-08-29T16:28:54Z</time>
      </trkpt>
      <trkpt lat="45.1558" lon="5.62535">
        <ele>1215.4218133333</ele>
        <time>2018-08-29T16:28:58Z</time>
      </trkpt>
      <trkpt lat="45.15575" lon="5.62542">
        <ele>1216.82132</ele>
        <time>2018-08-29T16:29:03Z</time>
      </trkpt>
      <trkpt lat="45.15569" lon="5.62549">
        <ele>1218.3208</ele>
        <time>2018-08-29T16:29:08Z</time>
      </trkpt>
      <trkpt lat="45.15563" lon="5.62556">
        <ele>1219.9203133333</ele>
        <time>2018-08-29T16:29:12Z</time>
      </trkpt>
      <trkpt lat="45.15557" lon="5.6256">
        <ele>1221.71986</ele>
        <time>2018-08-29T16:29:17Z</time>
      </trkpt>
      <trkpt lat="45.15551" lon="5.62568">
        <ele>1223.0193466667</ele>
        <time>2018-08-29T16:29:22Z</time>
      </trkpt>
      <trkpt lat="45.15548" lon="5.62576">
        <ele>1224.01886</ele>
        <time>2018-08-29T16:29:26Z</time>
      </trkpt>
      <trkpt lat="45.15543" lon="5.62588">
        <ele>1225.5182333333</ele>
        <time>2018-08-29T16:29:31Z</time>
      </trkpt>
      <trkpt lat="45.15539" lon="5.62594">
        <ele>1226.9178133333</ele>
        <time>2018-08-29T16:29:35Z</time>
      </trkpt>
      <trkpt lat="45.15534" lon="5.62603">
        <ele>1227.9172666667</ele>
        <time>2018-08-29T16:29:40Z</time>
      </trkpt>
      <trkpt lat="45.1553" lon="5.62609">
        <ele>1228.9168266667</ele>
        <time>2018-08-29T16:29:44Z</time>
      </trkpt>
      <trkpt lat="45.15526" lon="5.62617">
        <ele>1229.91634</ele>
        <time>2018-08-29T16:29:49Z</time>
      </trkpt>
      <trkpt lat="45.15524" lon="5.62623">
        <ele>1230.8160333333</ele>
        <time>2018-08-29T16:29:52Z</time>
      </trkpt>
      <trkpt lat="45.1552" lon="5.6263">
        <ele>1231.6155933333</ele>
        <time>2018-08-29T16:29:57Z</time>
      </trkpt>
      <trkpt lat="45.15516" lon="5.62636">
        <ele>1232.3152066667</ele>
        <time>2018-08-29T16:30:00Z</time>
      </trkpt>
      <trkpt lat="45.15514" lon="5.62646">
        <ele>1233.11472</ele>
        <time>2018-08-29T16:30:04Z</time>
      </trkpt>
      <trkpt lat="45.1551" lon="5.62652">
        <ele>1234.3143466667</ele>
        <time>2018-08-29T16:30:08Z</time>
      </trkpt>
      <trkpt lat="45.15507" lon="5.62659">
        <ele>1235.5139133333</ele>
        <time>2018-08-29T16:30:12Z</time>
      </trkpt>
      <trkpt lat="45.15503" lon="5.6267">
        <ele>1237.01334</ele>
        <time>2018-08-29T16:30:17Z</time>
      </trkpt>
      <trkpt lat="45.15502" lon="5.62677">
        <ele>1237.91302</ele>
        <time>2018-08-29T16:30:20Z</time>
      </trkpt>
      <trkpt lat="45.15501" lon="5.62686">
        <ele>1238.5126066667</ele>
        <time>2018-08-29T16:30:24Z</time>
      </trkpt>
      <trkpt lat="45.15502" lon="5.62696">
        <ele>1239.0122333333</ele>
        <time>2018-08-29T16:30:28Z</time>
      </trkpt>
      <trkpt lat="45.15501" lon="5.62707">
        <ele>1239.4117533333</ele>
        <time>2018-08-29T16:30:32Z</time>
      </trkpt>
      <trkpt lat="45.155" lon="5.62719">
        <ele>1240.01124</ele>
        <time>2018-08-29T16:30:37Z</time>
      </trkpt>
      <trkpt lat="45.155" lon="5.6273">
        <ele>1240.9107733333</ele>
        <time>2018-08-29T16:30:42Z</time>
      </trkpt>
      <trkpt lat="45.15497" lon="5.62738">
        <ele>1241.71034</ele>
        <time>2018-08-29T16:30:46Z</time>
      </trkpt>
      <trkpt lat="45.1549" lon="5.62746">
        <ele>1242.6097533333</ele>
        <time>2018-08-29T16:30:51Z</time>
      </trkpt>
      <trkpt lat="45.15485" lon="5.6275">
        <ele>1243.6093933333</ele>
        <time>2018-08-29T16:30:55Z</time>
      </trkpt>
      <trkpt lat="45.15475" lon="5.62754">
        <ele>1245.1088666667</ele>
        <time>2018-08-29T16:31:00Z</time>
      </trkpt>
      <trkpt lat="45.15469" lon="5.6276">
        <ele>1246.1083466667</ele>
        <time>2018-08-29T16:31:04Z</time>
      </trkpt>
      <trkpt lat="45.1546" lon="5.62763">
        <ele>1247.10786</ele>
        <time>2018-08-29T16:31:08Z</time>
      </trkpt>
      <trkpt lat="45.15445" lon="5.62767">
        <ele>1248.00714</ele>
        <time>2018-08-29T16:31:13Z</time>
      </trkpt>
      <trkpt lat="45.15434" lon="5.62767">
        <ele>1248.8067066667</ele>
        <time>2018-08-29T16:31:17Z</time>
      </trkpt>
      <trkpt lat="45.1542" lon="5.62767">
        <ele>1249.40614</ele>
        <time>2018-08-29T16:31:22Z</time>
      </trkpt>
      <trkpt lat="45.15416" lon="5.62769">
        <ele>1250.1059133333</ele>
        <time>2018-08-29T16:31:26Z</time>
      </trkpt>
      <trkpt lat="45.15416" lon="5.62769">
        <ele>1250.2058866667</ele>
        <time>2018-08-29T16:32:48Z</time>
      </trkpt>
      <trkpt lat="45.15407" lon="5.62761">
        <ele>1246.0058466667</ele>
        <time>2018-08-29T16:32:52Z</time>
      </trkpt>
      <trkpt lat="45.15401" lon="5.62759">
        <ele>1246.7056866667</ele>
        <time>2018-08-29T16:32:56Z</time>
      </trkpt>
      <trkpt lat="45.15389" lon="5.6276">
        <ele>1247.1051533333</ele>
        <time>2018-08-29T16:33:00Z</time>
      </trkpt>
      <trkpt lat="45.15373" lon="5.62752">
        <ele>1247.7048333333</ele>
        <time>2018-08-29T16:33:04Z</time>
      </trkpt>
      <trkpt lat="45.15356" lon="5.62728">
        <ele>1247.9051133333</ele>
        <time>2018-08-29T16:33:09Z</time>
      </trkpt>
      <trkpt lat="45.15347" lon="5.62698">
        <ele>1247.20596</ele>
        <time>2018-08-29T16:33:13Z</time>
      </trkpt>
      <trkpt lat="45.15328" lon="5.6267">
        <ele>1246.50634</ele>
        <time>2018-08-29T16:33:18Z</time>
      </trkpt>
      <trkpt lat="45.15315" lon="5.62659">
        <ele>1246.1062333333</ele>
        <time>2018-08-29T16:33:22Z</time>
      </trkpt>
      <trkpt lat="45.15301" lon="5.62653">
        <ele>1246.1059266667</ele>
        <time>2018-08-29T16:33:26Z</time>
      </trkpt>
      <trkpt lat="45.1529" lon="5.62647">
        <ele>1246.0057066667</ele>
        <time>2018-08-29T16:33:30Z</time>
      </trkpt>
      <trkpt lat="45.15282" lon="5.62636">
        <ele>1246.0058266667</ele>
        <time>2018-08-29T16:33:34Z</time>
      </trkpt>
      <trkpt lat="45.15273" lon="5.6262">
        <ele>1245.8061133333</ele>
        <time>2018-08-29T16:33:39Z</time>
      </trkpt>
      <trkpt lat="45.15264" lon="5.62606">
        <ele>1245.30632</ele>
        <time>2018-08-29T16:33:43Z</time>
      </trkpt>
      <trkpt lat="45.15247" lon="5.62593">
        <ele>1244.8061533333</ele>
        <time>2018-08-29T16:33:48Z</time>
      </trkpt>
      <trkpt lat="45.15228" lon="5.62588">
        <ele>1244.00562</ele>
        <time>2018-08-29T16:33:52Z</time>
      </trkpt>
      <trkpt lat="45.15198" lon="5.62581">
        <ele>1243.00468</ele>
        <time>2018-08-29T16:33:57Z</time>
      </trkpt>
      <trkpt lat="45.15173" lon="5.62574">
        <ele>1241.60398</ele>
        <time>2018-08-29T16:34:01Z</time>
      </trkpt>
      <trkpt lat="45.15141" lon="5.62585">
        <ele>1239.7022333333</ele>
        <time>2018-08-29T16:34:06Z</time>
      </trkpt>
      <trkpt lat="45.15118" lon="5.626">
        <ele>1237.60074</ele>
        <time>2018-08-29T16:34:10Z</time>
      </trkpt>
      <trkpt lat="45.15095" lon="5.62597">
        <ele>1235.99994</ele>
        <time>2018-08-29T16:34:14Z</time>
      </trkpt>
      <trkpt lat="45.15066" lon="5.62588">
        <ele>1233.5991066667</ele>
        <time>2018-08-29T16:34:19Z</time>
      </trkpt>
      <trkpt lat="45.15048" lon="5.62601">
        <ele>1231.7978666667</ele>
        <time>2018-08-29T16:34:22Z</time>
      </trkpt>
      <trkpt lat="45.15019" lon="5.62607">
        <ele>1229.7965</ele>
        <time>2018-08-29T16:34:26Z</time>
      </trkpt>
      <trkpt lat="45.14991" lon="5.62605">
        <ele>1227.2954266667</ele>
        <time>2018-08-29T16:34:30Z</time>
      </trkpt>
      <trkpt lat="45.1497" lon="5.62598">
        <ele>1225.3948866667</ele>
        <time>2018-08-29T16:34:33Z</time>
      </trkpt>
      <trkpt lat="45.14945" lon="5.62578">
        <ele>1223.1946466667</ele>
        <time>2018-08-29T16:34:37Z</time>
      </trkpt>
      <trkpt lat="45.14927" lon="5.6256">
        <ele>1221.3946866667</ele>
        <time>2018-08-29T16:34:40Z</time>
      </trkpt>
      <trkpt lat="45.149" lon="5.62547">
        <ele>1218.7941266667</ele>
        <time>2018-08-29T16:34:44Z</time>
      </trkpt>
      <trkpt lat="45.14875" lon="5.62551">
        <ele>1216.6929666667</ele>
        <time>2018-08-29T16:34:48Z</time>
      </trkpt>
      <trkpt lat="45.14847" lon="5.62563">
        <ele>1214.99138</ele>
        <time>2018-08-29T16:34:52Z</time>
      </trkpt>
      <trkpt lat="45.14812" lon="5.62564">
        <ele>1212.0899466667</ele>
        <time>2018-08-29T16:34:57Z</time>
      </trkpt>
      <trkpt lat="45.14783" lon="5.62558">
        <ele>1209.289</ele>
        <time>2018-08-29T16:35:01Z</time>
      </trkpt>
      <trkpt lat="45.14743" lon="5.62555">
        <ele>1205.9875333333</ele>
        <time>2018-08-29T16:35:06Z</time>
      </trkpt>
      <trkpt lat="45.14707" lon="5.62551">
        <ele>1203.38626</ele>
        <time>2018-08-29T16:35:10Z</time>
      </trkpt>
      <trkpt lat="45.14676" lon="5.62542">
        <ele>1201.2853466667</ele>
        <time>2018-08-29T16:35:14Z</time>
      </trkpt>
      <trkpt lat="45.14654" lon="5.62538">
        <ele>1199.88462</ele>
        <time>2018-08-29T16:35:17Z</time>
      </trkpt>
      <trkpt lat="45.14632" lon="5.62535">
        <ele>1198.38388</ele>
        <time>2018-08-29T16:35:20Z</time>
      </trkpt>
      <trkpt lat="45.14607" lon="5.62532">
        <ele>1196.283</ele>
        <time>2018-08-29T16:35:24Z</time>
      </trkpt>
      <trkpt lat="45.14586" lon="5.62525">
        <ele>1194.48244</ele>
        <time>2018-08-29T16:35:28Z</time>
      </trkpt>
      <trkpt lat="45.14564" lon="5.62509">
        <ele>1192.5822133333</ele>
        <time>2018-08-29T16:35:33Z</time>
      </trkpt>
      <trkpt lat="45.14543" lon="5.62494">
        <ele>1190.98198</ele>
        <time>2018-08-29T16:35:37Z</time>
      </trkpt>
      <trkpt lat="45.14512" lon="5.62482">
        <ele>1188.7811866667</ele>
        <time>2018-08-29T16:35:42Z</time>
      </trkpt>
      <trkpt lat="45.14481" lon="5.62481">
        <ele>1186.5799733333</ele>
        <time>2018-08-29T16:35:47Z</time>
      </trkpt>
      <trkpt lat="45.14458" lon="5.6248">
        <ele>1185.1790866667</ele>
        <time>2018-08-29T16:35:51Z</time>
      </trkpt>
      <trkpt lat="45.1443" lon="5.62475">
        <ele>1182.8781933333</ele>
        <time>2018-08-29T16:35:56Z</time>
      </trkpt>
      <trkpt lat="45.14405" lon="5.6247">
        <ele>1181.0774133333</ele>
        <time>2018-08-29T16:36:00Z</time>
      </trkpt>
      <trkpt lat="45.14376" lon="5.62458">
        <ele>1178.9766866667</ele>
        <time>2018-08-29T16:36:05Z</time>
      </trkpt>
      <trkpt lat="45.14353" lon="5.62454">
        <ele>1177.0759266667</ele>
        <time>2018-08-29T16:36:09Z</time>
      </trkpt>
      <trkpt lat="45.14328" lon="5.62444">
        <ele>1175.6753866667</ele>
        <time>2018-08-29T16:36:14Z</time>
      </trkpt>
      <trkpt lat="45.14308" lon="5.62435">
        <ele>1174.9749266667</ele>
        <time>2018-08-29T16:36:19Z</time>
      </trkpt>
      <trkpt lat="45.14296" lon="5.62426">
        <ele>1175.0748</ele>
        <time>2018-08-29T16:36:23Z</time>
      </trkpt>
      <trkpt lat="45.14285" lon="5.62415">
        <ele>1175.1747733333</ele>
        <time>2018-08-29T16:36:27Z</time>
      </trkpt>
      <trkpt lat="45.14271" lon="5.62399">
        <ele>1175.4748733333</ele>
        <time>2018-08-29T16:36:32Z</time>
      </trkpt>
      <trkpt lat="45.1426" lon="5.62385">
        <ele>1175.2750066667</ele>
        <time>2018-08-29T16:36:36Z</time>
      </trkpt>
      <trkpt lat="45.14249" lon="5.62369">
        <ele>1175.7752066667</ele>
        <time>2018-08-29T16:36:40Z</time>
      </trkpt>
      <trkpt lat="45.14238" lon="5.62353">
        <ele>1176.3754066667</ele>
        <time>2018-08-29T16:36:44Z</time>
      </trkpt>
      <trkpt lat="45.14226" lon="5.62336">
        <ele>1177.3755933333</ele>
        <time>2018-08-29T16:36:48Z</time>
      </trkpt>
      <trkpt lat="45.14211" lon="5.6232">
        <ele>1177.87562</ele>
        <time>2018-08-29T16:36:53Z</time>
      </trkpt>
      <trkpt lat="45.14195" lon="5.62305">
        <ele>1178.6756</ele>
        <time>2018-08-29T16:36:58Z</time>
      </trkpt>
      <trkpt lat="45.14183" lon="5.62292">
        <ele>1179.17564</ele>
        <time>2018-08-29T16:37:02Z</time>
      </trkpt>
      <trkpt lat="45.14171" lon="5.62278">
        <ele>1179.7757333333</ele>
        <time>2018-08-29T16:37:06Z</time>
      </trkpt>
      <trkpt lat="45.14159" lon="5.62263">
        <ele>1179.97582</ele>
        <time>2018-08-29T16:37:10Z</time>
      </trkpt>
      <trkpt lat="45.14146" lon="5.62245">
        <ele>1181.0760533333</ele>
        <time>2018-08-29T16:37:14Z</time>
      </trkpt>
      <trkpt lat="45.14133" lon="5.62216">
        <ele>1181.8766866667</ele>
        <time>2018-08-29T16:37:19Z</time>
      </trkpt>
      <trkpt lat="45.14123" lon="5.62182">
        <ele>1183.77764</ele>
        <time>2018-08-29T16:37:24Z</time>
      </trkpt>
      <trkpt lat="45.14112" lon="5.62159">
        <ele>1184.2781133333</ele>
        <time>2018-08-29T16:37:28Z</time>
      </trkpt>
      <trkpt lat="45.14101" lon="5.62138">
        <ele>1184.8785266667</ele>
        <time>2018-08-29T16:37:32Z</time>
      </trkpt>
      <trkpt lat="45.14089" lon="5.6212">
        <ele>1185.2787733333</ele>
        <time>2018-08-29T16:37:36Z</time>
      </trkpt>
      <trkpt lat="45.14071" lon="5.62103">
        <ele>1185.0787133333</ele>
        <time>2018-08-29T16:37:41Z</time>
      </trkpt>
      <trkpt lat="45.14059" lon="5.62093">
        <ele>1185.5786333333</ele>
        <time>2018-08-29T16:37:45Z</time>
      </trkpt>
      <trkpt lat="45.14048" lon="5.6208">
        <ele>1185.67874</ele>
        <time>2018-08-29T16:37:50Z</time>
      </trkpt>
      <trkpt lat="45.14039" lon="5.62067">
        <ele>1185.87886</ele>
        <time>2018-08-29T16:37:55Z</time>
      </trkpt>
      <trkpt lat="45.14034" lon="5.62059">
        <ele>1186.079</ele>
        <time>2018-08-29T16:37:58Z</time>
      </trkpt>
      <trkpt lat="45.14028" lon="5.62044">
        <ele>1186.77938</ele>
        <time>2018-08-29T16:38:03Z</time>
      </trkpt>
      <trkpt lat="45.14024" lon="5.62031">
        <ele>1187.47972</ele>
        <time>2018-08-29T16:38:07Z</time>
      </trkpt>
      <trkpt lat="45.14018" lon="5.62014">
        <ele>1187.68016</ele>
        <time>2018-08-29T16:38:12Z</time>
      </trkpt>
      <trkpt lat="45.14013" lon="5.62">
        <ele>1188.5805266667</ele>
        <time>2018-08-29T16:38:16Z</time>
      </trkpt>
      <trkpt lat="45.14008" lon="5.61987">
        <ele>1189.08086</ele>
        <time>2018-08-29T16:38:20Z</time>
      </trkpt>
      <trkpt lat="45.14004" lon="5.61974">
        <ele>1189.0811733333</ele>
        <time>2018-08-29T16:38:24Z</time>
      </trkpt>
      <trkpt lat="45.14001" lon="5.61957">
        <ele>1189.18176</ele>
        <time>2018-08-29T16:38:29Z</time>
      </trkpt>
      <trkpt lat="45.13994" lon="5.6194">
        <ele>1189.4821533333</ele>
        <time>2018-08-29T16:38:34Z</time>
      </trkpt>
      <trkpt lat="45.13986" lon="5.61924">
        <ele>1189.0824866667</ele>
        <time>2018-08-29T16:38:39Z</time>
      </trkpt>
      <trkpt lat="45.13981" lon="5.6191">
        <ele>1188.68282</ele>
        <time>2018-08-29T16:38:43Z</time>
      </trkpt>
      <trkpt lat="45.13976" lon="5.61897">
        <ele>1188.2831533333</ele>
        <time>2018-08-29T16:38:47Z</time>
      </trkpt>
      <trkpt lat="45.13971" lon="5.61888">
        <ele>1187.4832933333</ele>
        <time>2018-08-29T16:38:50Z</time>
      </trkpt>
      <trkpt lat="45.13964" lon="5.61875">
        <ele>1187.8835666667</ele>
        <time>2018-08-29T16:38:54Z</time>
      </trkpt>
      <trkpt lat="45.13958" lon="5.61862">
        <ele>1187.6838533333</ele>
        <time>2018-08-29T16:38:58Z</time>
      </trkpt>
      <trkpt lat="45.13953" lon="5.61847">
        <ele>1187.2842533333</ele>
        <time>2018-08-29T16:39:02Z</time>
      </trkpt>
      <trkpt lat="45.13948" lon="5.61826">
        <ele>1187.4848466667</ele>
        <time>2018-08-29T16:39:07Z</time>
      </trkpt>
      <trkpt lat="45.1394" lon="5.61804">
        <ele>1188.28544</ele>
        <time>2018-08-29T16:39:12Z</time>
      </trkpt>
      <trkpt lat="45.13937" lon="5.61791">
        <ele>1188.8858266667</ele>
        <time>2018-08-29T16:39:15Z</time>
      </trkpt>
      <trkpt lat="45.13934" lon="5.61772">
        <ele>1188.7864666667</ele>
        <time>2018-08-29T16:39:19Z</time>
      </trkpt>
      <trkpt lat="45.1393" lon="5.61747">
        <ele>1189.2873266667</ele>
        <time>2018-08-29T16:39:24Z</time>
      </trkpt>
      <trkpt lat="45.1393" lon="5.61727">
        <ele>1189.38812</ele>
        <time>2018-08-29T16:39:28Z</time>
      </trkpt>
      <trkpt lat="45.13929" lon="5.61705">
        <ele>1189.4889333333</ele>
        <time>2018-08-29T16:39:32Z</time>
      </trkpt>
      <trkpt lat="45.13932" lon="5.61684">
        <ele>1189.3899333333</ele>
        <time>2018-08-29T16:39:36Z</time>
      </trkpt>
      <trkpt lat="45.13933" lon="5.61663">
        <ele>1189.0908066667</ele>
        <time>2018-08-29T16:39:40Z</time>
      </trkpt>
      <trkpt lat="45.13935" lon="5.6164">
        <ele>1187.89182</ele>
        <time>2018-08-29T16:39:44Z</time>
      </trkpt>
      <trkpt lat="45.13943" lon="5.6162">
        <ele>1187.09294</ele>
        <time>2018-08-29T16:39:48Z</time>
      </trkpt>
      <trkpt lat="45.13952" lon="5.61603">
        <ele>1186.2939666667</ele>
        <time>2018-08-29T16:39:52Z</time>
      </trkpt>
      <trkpt lat="45.13964" lon="5.61587">
        <ele>1185.89506</ele>
        <time>2018-08-29T16:39:56Z</time>
      </trkpt>
      <trkpt lat="45.13975" lon="5.61572">
        <ele>1186.69612</ele>
        <time>2018-08-29T16:40:00Z</time>
      </trkpt>
      <trkpt lat="45.13984" lon="5.61552">
        <ele>1187.4972466667</ele>
        <time>2018-08-29T16:40:05Z</time>
      </trkpt>
      <trkpt lat="45.13988" lon="5.6154">
        <ele>1187.9979133333</ele>
        <time>2018-08-29T16:40:08Z</time>
      </trkpt>
      <trkpt lat="45.13996" lon="5.61521">
        <ele>1190.099</ele>
        <time>2018-08-29T16:40:13Z</time>
      </trkpt>
      <trkpt lat="45.14001" lon="5.6151">
        <ele>1190.2996466667</ele>
        <time>2018-08-29T16:40:16Z</time>
      </trkpt>
      <trkpt lat="45.14008" lon="5.61493">
        <ele>1191.0005866667</ele>
        <time>2018-08-29T16:40:21Z</time>
      </trkpt>
      <trkpt lat="45.14015" lon="5.61477">
        <ele>1191.9015133333</ele>
        <time>2018-08-29T16:40:26Z</time>
      </trkpt>
      <trkpt lat="45.1402" lon="5.61465">
        <ele>1193.4021933333</ele>
        <time>2018-08-29T16:40:30Z</time>
      </trkpt>
      <trkpt lat="45.14027" lon="5.61451">
        <ele>1194.1030466667</ele>
        <time>2018-08-29T16:40:35Z</time>
      </trkpt>
      <trkpt lat="45.14034" lon="5.61437">
        <ele>1194.9038733333</ele>
        <time>2018-08-29T16:40:39Z</time>
      </trkpt>
      <trkpt lat="45.14043" lon="5.61417">
        <ele>1195.0050333333</ele>
        <time>2018-08-29T16:40:44Z</time>
      </trkpt>
      <trkpt lat="45.14045" lon="5.61401">
        <ele>1195.80578</ele>
        <time>2018-08-29T16:40:48Z</time>
      </trkpt>
      <trkpt lat="45.1405" lon="5.61387">
        <ele>1197.1065</ele>
        <time>2018-08-29T16:40:52Z</time>
      </trkpt>
      <trkpt lat="45.14052" lon="5.61371">
        <ele>1197.4072533333</ele>
        <time>2018-08-29T16:40:57Z</time>
      </trkpt>
      <trkpt lat="45.14055" lon="5.61353">
        <ele>1198.5080466667</ele>
        <time>2018-08-29T16:41:02Z</time>
      </trkpt>
      <trkpt lat="45.14055" lon="5.61338">
        <ele>1199.60866</ele>
        <time>2018-08-29T16:41:06Z</time>
      </trkpt>
      <trkpt lat="45.14056" lon="5.6132">
        <ele>1200.0094666667</ele>
        <time>2018-08-29T16:41:11Z</time>
      </trkpt>
      <trkpt lat="45.14057" lon="5.61301">
        <ele>1201.2102266667</ele>
        <time>2018-08-29T16:41:15Z</time>
      </trkpt>
      <trkpt lat="45.14057" lon="5.61289">
        <ele>1201.7107066667</ele>
        <time>2018-08-29T16:41:18Z</time>
      </trkpt>
      <trkpt lat="45.14056" lon="5.61275">
        <ele>1202.41124</ele>
        <time>2018-08-29T16:41:22Z</time>
      </trkpt>
      <trkpt lat="45.14055" lon="5.61259">
        <ele>1203.11182</ele>
        <time>2018-08-29T16:41:26Z</time>
      </trkpt>
      <trkpt lat="45.14052" lon="5.61237">
        <ele>1203.7126</ele>
        <time>2018-08-29T16:41:31Z</time>
      </trkpt>
      <trkpt lat="45.14045" lon="5.61212">
        <ele>1203.41332</ele>
        <time>2018-08-29T16:41:36Z</time>
      </trkpt>
      <trkpt lat="45.14037" lon="5.61183">
        <ele>1202.8141466667</ele>
        <time>2018-08-29T16:41:41Z</time>
      </trkpt>
      <trkpt lat="45.14034" lon="5.61164">
        <ele>1203.1147733333</ele>
        <time>2018-08-29T16:41:44Z</time>
      </trkpt>
      <trkpt lat="45.14025" lon="5.61141">
        <ele>1202.91536</ele>
        <time>2018-08-29T16:41:48Z</time>
      </trkpt>
      <trkpt lat="45.14017" lon="5.61116">
        <ele>1202.4160533333</ele>
        <time>2018-08-29T16:41:52Z</time>
      </trkpt>
      <trkpt lat="45.14005" lon="5.61094">
        <ele>1202.3164666667</ele>
        <time>2018-08-29T16:41:56Z</time>
      </trkpt>
      <trkpt lat="45.13991" lon="5.61074">
        <ele>1202.1167066667</ele>
        <time>2018-08-29T16:42:00Z</time>
      </trkpt>
      <trkpt lat="45.1397" lon="5.61052">
        <ele>1201.61672</ele>
        <time>2018-08-29T16:42:05Z</time>
      </trkpt>
      <trkpt lat="45.13955" lon="5.61041">
        <ele>1201.71656</ele>
        <time>2018-08-29T16:42:08Z</time>
      </trkpt>
      <trkpt lat="45.13939" lon="5.61027">
        <ele>1201.6165</ele>
        <time>2018-08-29T16:42:12Z</time>
      </trkpt>
      <trkpt lat="45.13923" lon="5.61009">
        <ele>1201.5165533333</ele>
        <time>2018-08-29T16:42:16Z</time>
      </trkpt>
      <trkpt lat="45.13896" lon="5.60993">
        <ele>1201.01612</ele>
        <time>2018-08-29T16:42:21Z</time>
      </trkpt>
      <trkpt lat="45.13879" lon="5.60982">
        <ele>1200.6158866667</ele>
        <time>2018-08-29T16:42:24Z</time>
      </trkpt>
      <trkpt lat="45.13855" lon="5.60971">
        <ele>1200.0153733333</ele>
        <time>2018-08-29T16:42:28Z</time>
      </trkpt>
      <trkpt lat="45.13832" lon="5.60963">
        <ele>1199.7147733333</ele>
        <time>2018-08-29T16:42:32Z</time>
      </trkpt>
      <trkpt lat="45.13811" lon="5.60957">
        <ele>1199.8141466667</ele>
        <time>2018-08-29T16:42:36Z</time>
      </trkpt>
      <trkpt lat="45.1379" lon="5.60954">
        <ele>1199.5134533333</ele>
        <time>2018-08-29T16:42:40Z</time>
      </trkpt>
      <trkpt lat="45.13767" lon="5.60952">
        <ele>1199.21258</ele>
        <time>2018-08-29T16:42:44Z</time>
      </trkpt>
      <trkpt lat="45.13747" lon="5.60951">
        <ele>1199.0118666667</ele>
        <time>2018-08-29T16:42:47Z</time>
      </trkpt>
      <trkpt lat="45.13727" lon="5.60955">
        <ele>1198.8108866667</ele>
        <time>2018-08-29T16:42:50Z</time>
      </trkpt>
      <trkpt lat="45.13703" lon="5.6096">
        <ele>1198.5097066667</ele>
        <time>2018-08-29T16:42:54Z</time>
      </trkpt>
      <trkpt lat="45.13685" lon="5.60959">
        <ele>1197.80906</ele>
        <time>2018-08-29T16:42:58Z</time>
      </trkpt>
      <trkpt lat="45.1366" lon="5.60967">
        <ele>1196.7077266667</ele>
        <time>2018-08-29T16:43:02Z</time>
      </trkpt>
      <trkpt lat="45.13633" lon="5.60979">
        <ele>1196.2061733333</ele>
        <time>2018-08-29T16:43:06Z</time>
      </trkpt>
      <trkpt lat="45.13606" lon="5.60991">
        <ele>1195.9046266667</ele>
        <time>2018-08-29T16:43:11Z</time>
      </trkpt>
      <trkpt lat="45.13593" lon="5.60998">
        <ele>1194.9037866667</ele>
        <time>2018-08-29T16:43:15Z</time>
      </trkpt>
      <trkpt lat="45.13576" lon="5.61011">
        <ele>1193.4026333333</ele>
        <time>2018-08-29T16:43:20Z</time>
      </trkpt>
      <trkpt lat="45.13555" lon="5.61014">
        <ele>1192.1016066667</ele>
        <time>2018-08-29T16:43:25Z</time>
      </trkpt>
      <trkpt lat="45.13538" lon="5.61028">
        <ele>1190.7004</ele>
        <time>2018-08-29T16:43:29Z</time>
      </trkpt>
      <trkpt lat="45.13517" lon="5.61036">
        <ele>1188.8992466667</ele>
        <time>2018-08-29T16:43:34Z</time>
      </trkpt>
      <trkpt lat="45.13505" lon="5.61038">
        <ele>1187.4986733333</ele>
        <time>2018-08-29T16:43:38Z</time>
      </trkpt>
      <trkpt lat="45.13484" lon="5.61028">
        <ele>1185.49826</ele>
        <time>2018-08-29T16:43:43Z</time>
      </trkpt>
      <trkpt lat="45.13471" lon="5.61018">
        <ele>1184.3981266667</ele>
        <time>2018-08-29T16:43:46Z</time>
      </trkpt>
      <trkpt lat="45.13449" lon="5.6101">
        <ele>1182.3975666667</ele>
        <time>2018-08-29T16:43:51Z</time>
      </trkpt>
      <trkpt lat="45.13433" lon="5.61011">
        <ele>1180.8969</ele>
        <time>2018-08-29T16:43:55Z</time>
      </trkpt>
      <trkpt lat="45.13427" lon="5.61014">
        <ele>1179.69652</ele>
        <time>2018-08-29T16:43:58Z</time>
      </trkpt>
      <trkpt lat="45.13407" lon="5.61018">
        <ele>1177.39554</ele>
        <time>2018-08-29T16:44:03Z</time>
      </trkpt>
      <trkpt lat="45.13381" lon="5.61009">
        <ele>1174.89488</ele>
        <time>2018-08-29T16:44:08Z</time>
      </trkpt>
      <trkpt lat="45.1336" lon="5.60998">
        <ele>1172.99448</ele>
        <time>2018-08-29T16:44:12Z</time>
      </trkpt>
      <trkpt lat="45.13347" lon="5.6099">
        <ele>1171.1943</ele>
        <time>2018-08-29T16:44:17Z</time>
      </trkpt>
      <trkpt lat="45.13332" lon="5.60982">
        <ele>1169.0940066667</ele>
        <time>2018-08-29T16:44:22Z</time>
      </trkpt>
      <trkpt lat="45.1332" lon="5.60974">
        <ele>1167.4938466667</ele>
        <time>2018-08-29T16:44:26Z</time>
      </trkpt>
      <trkpt lat="45.13307" lon="5.60967">
        <ele>1165.9936066667</ele>
        <time>2018-08-29T16:44:31Z</time>
      </trkpt>
      <trkpt lat="45.13294" lon="5.60958">
        <ele>1164.69344</ele>
        <time>2018-08-29T16:44:36Z</time>
      </trkpt>
      <trkpt lat="45.13282" lon="5.60956">
        <ele>1163.49304</ele>
        <time>2018-08-29T16:44:40Z</time>
      </trkpt>
      <trkpt lat="45.13272" lon="5.60955">
        <ele>1162.2926866667</ele>
        <time>2018-08-29T16:44:44Z</time>
      </trkpt>
      <trkpt lat="45.13261" lon="5.60955">
        <ele>1161.09222</ele>
        <time>2018-08-29T16:44:48Z</time>
      </trkpt>
      <trkpt lat="45.13251" lon="5.6095">
        <ele>1159.8920466667</ele>
        <time>2018-08-29T16:44:52Z</time>
      </trkpt>
      <trkpt lat="45.13235" lon="5.60944">
        <ele>1158.6916733333</ele>
        <time>2018-08-29T16:44:57Z</time>
      </trkpt>
      <trkpt lat="45.13227" lon="5.60942">
        <ele>1158.0913866667</ele>
        <time>2018-08-29T16:45:00Z</time>
      </trkpt>
      <trkpt lat="45.13215" lon="5.60939">
        <ele>1156.89104</ele>
        <time>2018-08-29T16:45:05Z</time>
      </trkpt>
      <trkpt lat="45.13199" lon="5.60933">
        <ele>1155.6906333333</ele>
        <time>2018-08-29T16:45:10Z</time>
      </trkpt>
      <trkpt lat="45.1318" lon="5.60927">
        <ele>1153.7901333333</ele>
        <time>2018-08-29T16:45:15Z</time>
      </trkpt>
      <trkpt lat="45.13165" lon="5.60919">
        <ele>1152.0898466667</ele>
        <time>2018-08-29T16:45:19Z</time>
      </trkpt>
      <trkpt lat="45.13157" lon="5.60913">
        <ele>1150.8897466667</ele>
        <time>2018-08-29T16:45:22Z</time>
      </trkpt>
      <trkpt lat="45.13147" lon="5.60913">
        <ele>1149.68938</ele>
        <time>2018-08-29T16:45:25Z</time>
      </trkpt>
      <trkpt lat="45.13128" lon="5.60902">
        <ele>1147.6890066667</ele>
        <time>2018-08-29T16:45:30Z</time>
      </trkpt>
      <trkpt lat="45.13116" lon="5.60891">
        <ele>1146.2890333333</ele>
        <time>2018-08-29T16:45:34Z</time>
      </trkpt>
      <trkpt lat="45.13108" lon="5.60885">
        <ele>1145.0889533333</ele>
        <time>2018-08-29T16:45:37Z</time>
      </trkpt>
      <trkpt lat="45.13098" lon="5.60876">
        <ele>1143.5888866667</ele>
        <time>2018-08-29T16:45:40Z</time>
      </trkpt>
      <trkpt lat="45.13089" lon="5.60861">
        <ele>1141.98912</ele>
        <time>2018-08-29T16:45:44Z</time>
      </trkpt>
      <trkpt lat="45.13077" lon="5.60835">
        <ele>1140.68968</ele>
        <time>2018-08-29T16:45:48Z</time>
      </trkpt>
      <trkpt lat="45.13068" lon="5.60815">
        <ele>1138.7901066667</ele>
        <time>2018-08-29T16:45:52Z</time>
      </trkpt>
      <trkpt lat="45.13066" lon="5.60793">
        <ele>1136.3909333333</ele>
        <time>2018-08-29T16:45:56Z</time>
      </trkpt>
      <trkpt lat="45.13077" lon="5.60779">
        <ele>1134.2919</ele>
        <time>2018-08-29T16:46:00Z</time>
      </trkpt>
      <trkpt lat="45.13095" lon="5.60767">
        <ele>1131.7931133333</ele>
        <time>2018-08-29T16:46:05Z</time>
      </trkpt>
      <trkpt lat="45.13104" lon="5.60761">
        <ele>1130.1937</ele>
        <time>2018-08-29T16:46:08Z</time>
      </trkpt>
      <trkpt lat="45.13113" lon="5.60747">
        <ele>1124.99464</ele>
        <time>2018-08-29T16:46:12Z</time>
      </trkpt>
      <trkpt lat="45.13124" lon="5.60728">
        <ele>1117.1958466667</ele>
        <time>2018-08-29T16:46:17Z</time>
      </trkpt>
      <trkpt lat="45.1313" lon="5.60715">
        <ele>1112.2965933333</ele>
        <time>2018-08-29T16:46:20Z</time>
      </trkpt>
      <trkpt lat="45.13135" lon="5.60699">
        <ele>1107.4974533333</ele>
        <time>2018-08-29T16:46:24Z</time>
      </trkpt>
      <trkpt lat="45.13141" lon="5.60679">
        <ele>1100.89848</ele>
        <time>2018-08-29T16:46:28Z</time>
      </trkpt>
      <trkpt lat="45.13149" lon="5.6065">
        <ele>1092.2999933333</ele>
        <time>2018-08-29T16:46:33Z</time>
      </trkpt>
      <trkpt lat="45.13157" lon="5.60632">
        <ele>1087.70098</ele>
        <time>2018-08-29T16:46:36Z</time>
      </trkpt>
      <trkpt lat="45.13164" lon="5.60611">
        <ele>1081.8021333333</ele>
        <time>2018-08-29T16:46:40Z</time>
      </trkpt>
      <trkpt lat="45.13173" lon="5.60587">
        <ele>1077.30344</ele>
        <time>2018-08-29T16:46:44Z</time>
      </trkpt>
      <trkpt lat="45.13182" lon="5.60561">
        <ele>1071.6048333333</ele>
        <time>2018-08-29T16:46:49Z</time>
      </trkpt>
      <trkpt lat="45.13188" lon="5.60541">
        <ele>1066.5058666667</ele>
        <time>2018-08-29T16:46:53Z</time>
      </trkpt>
      <trkpt lat="45.13193" lon="5.60528">
        <ele>1062.5065933333</ele>
        <time>2018-08-29T16:46:56Z</time>
      </trkpt>
      <trkpt lat="45.13197" lon="5.60508">
        <ele>1058.5075933333</ele>
        <time>2018-08-29T16:47:00Z</time>
      </trkpt>
      <trkpt lat="45.13205" lon="5.60483">
        <ele>1054.6088933333</ele>
        <time>2018-08-29T16:47:04Z</time>
      </trkpt>
      <trkpt lat="45.13218" lon="5.60464">
        <ele>1051.01018</ele>
        <time>2018-08-29T16:47:08Z</time>
      </trkpt>
      <trkpt lat="45.13229" lon="5.60449">
        <ele>1046.1112333333</ele>
        <time>2018-08-29T16:47:12Z</time>
      </trkpt>
      <trkpt lat="45.13233" lon="5.60436">
        <ele>1042.11188</ele>
        <time>2018-08-29T16:47:16Z</time>
      </trkpt>
      <trkpt lat="45.13228" lon="5.60418">
        <ele>1038.2123933333</ele>
        <time>2018-08-29T16:47:20Z</time>
      </trkpt>
      <trkpt lat="45.13219" lon="5.60401">
        <ele>1034.3127133333</ele>
        <time>2018-08-29T16:47:24Z</time>
      </trkpt>
      <trkpt lat="45.13205" lon="5.6038">
        <ele>1031.41298</ele>
        <time>2018-08-29T16:47:28Z</time>
      </trkpt>
      <trkpt lat="45.13187" lon="5.60363">
        <ele>1028.3129666667</ele>
        <time>2018-08-29T16:47:32Z</time>
      </trkpt>
      <trkpt lat="45.1317" lon="5.60343">
        <ele>1026.1130866667</ele>
        <time>2018-08-29T16:47:36Z</time>
      </trkpt>
      <trkpt lat="45.13152" lon="5.60318">
        <ele>1024.2133666667</ele>
        <time>2018-08-29T16:47:40Z</time>
      </trkpt>
      <trkpt lat="45.1312" lon="5.60276">
        <ele>1021.9137933333</ele>
        <time>2018-08-29T16:47:45Z</time>
      </trkpt>
      <trkpt lat="45.1309" lon="5.60236">
        <ele>1020.1141733333</ele>
        <time>2018-08-29T16:47:50Z</time>
      </trkpt>
      <trkpt lat="45.13064" lon="5.60207">
        <ele>1018.8143</ele>
        <time>2018-08-29T16:47:54Z</time>
      </trkpt>
      <trkpt lat="45.13039" lon="5.60177">
        <ele>1018.4144866667</ele>
        <time>2018-08-29T16:47:58Z</time>
      </trkpt>
      <trkpt lat="45.13013" lon="5.60151">
        <ele>1017.51448</ele>
        <time>2018-08-29T16:48:02Z</time>
      </trkpt>
      <trkpt lat="45.12979" lon="5.60116">
        <ele>1015.7145333333</ele>
        <time>2018-08-29T16:48:07Z</time>
      </trkpt>
      <trkpt lat="45.12945" lon="5.601">
        <ele>1014.1137733333</ele>
        <time>2018-08-29T16:48:11Z</time>
      </trkpt>
      <trkpt lat="45.12899" lon="5.60091">
        <ele>1010.9123333333</ele>
        <time>2018-08-29T16:48:16Z</time>
      </trkpt>
      <trkpt lat="45.12863" lon="5.60091">
        <ele>1008.6109066667</ele>
        <time>2018-08-29T16:48:20Z</time>
      </trkpt>
      <trkpt lat="45.12837" lon="5.6008">
        <ele>1007.0103066667</ele>
        <time>2018-08-29T16:48:23Z</time>
      </trkpt>
      <trkpt lat="45.12794" lon="5.60046">
        <ele>1003.4099</ele>
        <time>2018-08-29T16:48:28Z</time>
      </trkpt>
      <trkpt lat="45.12748" lon="5.60014">
        <ele>1000.4093533333</ele>
        <time>2018-08-29T16:48:33Z</time>
      </trkpt>
      <trkpt lat="45.12719" lon="5.59991">
        <ele>999.10910666667</ele>
        <time>2018-08-29T16:48:37Z</time>
      </trkpt>
      <trkpt lat="45.12707" lon="5.59988">
        <ele>997.20874666667</ele>
        <time>2018-08-29T16:48:41Z</time>
      </trkpt>
      <trkpt lat="45.127" lon="5.5999">
        <ele>994.5084</ele>
        <time>2018-08-29T16:48:46Z</time>
      </trkpt>
      <trkpt lat="45.12703" lon="5.5999">
        <ele>991.10854</ele>
        <time>2018-08-29T16:49:09Z</time>
      </trkpt>
      <trkpt lat="45.12709" lon="5.59986">
        <ele>990.80894666667</ele>
        <time>2018-08-29T16:49:13Z</time>
      </trkpt>
      <trkpt lat="45.12705" lon="5.59985">
        <ele>990.50879333333</ele>
        <time>2018-08-29T16:49:42Z</time>
      </trkpt>
      <trkpt lat="45.12706" lon="5.59982">
        <ele>990.40898</ele>
        <time>2018-08-29T16:50:04Z</time>
      </trkpt>
      <trkpt lat="45.12701" lon="5.59986">
        <ele>990.60861333333</ele>
        <time>2018-08-29T16:50:08Z</time>
      </trkpt>
      <trkpt lat="45.12698" lon="5.59984">
        <ele>991.00855333333</ele>
        <time>2018-08-29T16:50:36Z</time>
      </trkpt>
      <trkpt lat="45.12698" lon="5.59971">
        <ele>990.70908</ele>
        <time>2018-08-29T16:50:40Z</time>
      </trkpt>
      <trkpt lat="45.12711" lon="5.59946">
        <ele>989.91062</ele>
        <time>2018-08-29T16:50:44Z</time>
      </trkpt>
      <trkpt lat="45.12722" lon="5.59928">
        <ele>989.01176</ele>
        <time>2018-08-29T16:50:48Z</time>
      </trkpt>
      <trkpt lat="45.12727" lon="5.59913">
        <ele>988.81254666667</ele>
        <time>2018-08-29T16:50:52Z</time>
      </trkpt>
      <trkpt lat="45.12737" lon="5.59886">
        <ele>988.51404</ele>
        <time>2018-08-29T16:50:56Z</time>
      </trkpt>
      <trkpt lat="45.12755" lon="5.59853">
        <ele>987.71608</ele>
        <time>2018-08-29T16:51:00Z</time>
      </trkpt>
      <trkpt lat="45.12777" lon="5.59822">
        <ele>986.71819333333</ele>
        <time>2018-08-29T16:51:04Z</time>
      </trkpt>
      <trkpt lat="45.12803" lon="5.59798">
        <ele>985.62018666667</ele>
        <time>2018-08-29T16:51:08Z</time>
      </trkpt>
      <trkpt lat="45.12818" lon="5.59761">
        <ele>984.22228666667</ele>
        <time>2018-08-29T16:51:12Z</time>
      </trkpt>
      <trkpt lat="45.12826" lon="5.59713">
        <ele>983.12452</ele>
        <time>2018-08-29T16:51:16Z</time>
      </trkpt>
      <trkpt lat="45.12836" lon="5.59666">
        <ele>983.0268</ele>
        <time>2018-08-29T16:51:20Z</time>
      </trkpt>
      <trkpt lat="45.12853" lon="5.59612">
        <ele>981.12964</ele>
        <time>2018-08-29T16:51:25Z</time>
      </trkpt>
      <trkpt lat="45.12866" lon="5.59582">
        <ele>980.03135333333</ele>
        <time>2018-08-29T16:51:28Z</time>
      </trkpt>
      <trkpt lat="45.12875" lon="5.59543">
        <ele>979.3333</ele>
        <time>2018-08-29T16:51:32Z</time>
      </trkpt>
      <trkpt lat="45.12899" lon="5.59505">
        <ele>977.33574666667</ele>
        <time>2018-08-29T16:51:37Z</time>
      </trkpt>
      <trkpt lat="45.12912" lon="5.59491">
        <ele>975.33687333333</ele>
        <time>2018-08-29T16:51:40Z</time>
      </trkpt>
      <trkpt lat="45.12936" lon="5.59492">
        <ele>973.53776</ele>
        <time>2018-08-29T16:51:45Z</time>
      </trkpt>
      <trkpt lat="45.12956" lon="5.59505">
        <ele>972.93802666667</ele>
        <time>2018-08-29T16:51:49Z</time>
      </trkpt>
      <trkpt lat="45.1299" lon="5.59526">
        <ele>971.83856666667</ele>
        <time>2018-08-29T16:51:54Z</time>
      </trkpt>
      <trkpt lat="45.13018" lon="5.59538">
        <ele>971.03919333333</ele>
        <time>2018-08-29T16:51:58Z</time>
      </trkpt>
      <trkpt lat="45.13044" lon="5.59544">
        <ele>970.63998666667</ele>
        <time>2018-08-29T16:52:02Z</time>
      </trkpt>
      <trkpt lat="45.13068" lon="5.59547">
        <ele>971.54084666667</ele>
        <time>2018-08-29T16:52:06Z</time>
      </trkpt>
      <trkpt lat="45.13089" lon="5.5955">
        <ele>972.74155333333</ele>
        <time>2018-08-29T16:52:10Z</time>
      </trkpt>
      <trkpt lat="45.13108" lon="5.59551">
        <ele>974.74228666667</ele>
        <time>2018-08-29T16:52:14Z</time>
      </trkpt>
      <trkpt lat="45.13128" lon="5.59553">
        <ele>974.84300666667</ele>
        <time>2018-08-29T16:52:18Z</time>
      </trkpt>
      <trkpt lat="45.13149" lon="5.59555">
        <ele>973.44373333333</ele>
        <time>2018-08-29T16:52:22Z</time>
      </trkpt>
      <trkpt lat="45.13168" lon="5.5956">
        <ele>971.34432</ele>
        <time>2018-08-29T16:52:26Z</time>
      </trkpt>
      <trkpt lat="45.13188" lon="5.59565">
        <ele>969.2449</ele>
        <time>2018-08-29T16:52:30Z</time>
      </trkpt>
      <trkpt lat="45.13207" lon="5.59572">
        <ele>967.64540666667</ele>
        <time>2018-08-29T16:52:34Z</time>
      </trkpt>
      <trkpt lat="45.13227" lon="5.59583">
        <ele>965.54578666667</ele>
        <time>2018-08-29T16:52:38Z</time>
      </trkpt>
      <trkpt lat="45.13262" lon="5.596">
        <ele>965.34648</ele>
        <time>2018-08-29T16:52:43Z</time>
      </trkpt>
      <trkpt lat="45.13284" lon="5.59621">
        <ele>964.64652666667</ele>
        <time>2018-08-29T16:52:46Z</time>
      </trkpt>
      <trkpt lat="45.13309" lon="5.59654">
        <ele>963.34619333333</ele>
        <time>2018-08-29T16:52:50Z</time>
      </trkpt>
      <trkpt lat="45.13333" lon="5.59679">
        <ele>962.74618</ele>
        <time>2018-08-29T16:52:54Z</time>
      </trkpt>
      <trkpt lat="45.13355" lon="5.59688">
        <ele>962.4467</ele>
        <time>2018-08-29T16:52:58Z</time>
      </trkpt>
      <trkpt lat="45.13373" lon="5.59691">
        <ele>962.04729333333</ele>
        <time>2018-08-29T16:53:02Z</time>
      </trkpt>
      <trkpt lat="45.13388" lon="5.59692">
        <ele>961.84781333333</ele>
        <time>2018-08-29T16:53:06Z</time>
      </trkpt>
      <trkpt lat="45.13401" lon="5.59696">
        <ele>962.24820666667</ele>
        <time>2018-08-29T16:53:10Z</time>
      </trkpt>
      <trkpt lat="45.13411" lon="5.59699">
        <ele>961.24848666667</ele>
        <time>2018-08-29T16:53:14Z</time>
      </trkpt>
      <trkpt lat="45.13416" lon="5.59702">
        <ele>960.94854666667</ele>
        <time>2018-08-29T16:53:18Z</time>
      </trkpt>
      <trkpt lat="45.13423" lon="5.59705">
        <ele>960.24872</ele>
        <time>2018-08-29T16:53:22Z</time>
      </trkpt>
      <trkpt lat="45.13434" lon="5.59712">
        <ele>959.94887333333</ele>
        <time>2018-08-29T16:53:26Z</time>
      </trkpt>
      <trkpt lat="45.13446" lon="5.59722">
        <ele>959.64895333333</ele>
        <time>2018-08-29T16:53:30Z</time>
      </trkpt>
      <trkpt lat="45.13459" lon="5.59735">
        <ele>959.54894666667</ele>
        <time>2018-08-29T16:53:34Z</time>
      </trkpt>
      <trkpt lat="45.13471" lon="5.5975">
        <ele>959.24887333333</ele>
        <time>2018-08-29T16:53:38Z</time>
      </trkpt>
      <trkpt lat="45.13485" lon="5.59762">
        <ele>959.64891333333</ele>
        <time>2018-08-29T16:53:42Z</time>
      </trkpt>
      <trkpt lat="45.13498" lon="5.59773">
        <ele>959.64898</ele>
        <time>2018-08-29T16:53:46Z</time>
      </trkpt>
      <trkpt lat="45.13511" lon="5.59784">
        <ele>959.54911333333</ele>
        <time>2018-08-29T16:53:50Z</time>
      </trkpt>
      <trkpt lat="45.13525" lon="5.59794">
        <ele>959.54920666667</ele>
        <time>2018-08-29T16:53:54Z</time>
      </trkpt>
      <trkpt lat="45.13536" lon="5.59804">
        <ele>959.74928666667</ele>
        <time>2018-08-29T16:53:58Z</time>
      </trkpt>
      <trkpt lat="45.13549" lon="5.59813">
        <ele>960.04943333333</ele>
        <time>2018-08-29T16:54:02Z</time>
      </trkpt>
      <trkpt lat="45.13562" lon="5.59825">
        <ele>959.94946666667</ele>
        <time>2018-08-29T16:54:07Z</time>
      </trkpt>
      <trkpt lat="45.13578" lon="5.59838">
        <ele>959.04958</ele>
        <time>2018-08-29T16:54:12Z</time>
      </trkpt>
      <trkpt lat="45.1359" lon="5.59847">
        <ele>959.24973333333</ele>
        <time>2018-08-29T16:54:16Z</time>
      </trkpt>
      <trkpt lat="45.13604" lon="5.59843">
        <ele>960.35044666667</ele>
        <time>2018-08-29T16:54:20Z</time>
      </trkpt>
      <trkpt lat="45.13616" lon="5.59826">
        <ele>960.45161333333</ele>
        <time>2018-08-29T16:54:24Z</time>
      </trkpt>
      <trkpt lat="45.13631" lon="5.59804">
        <ele>960.55305333333</ele>
        <time>2018-08-29T16:54:28Z</time>
      </trkpt>
      <trkpt lat="45.13646" lon="5.59779">
        <ele>960.75468666667</ele>
        <time>2018-08-29T16:54:32Z</time>
      </trkpt>
      <trkpt lat="45.13669" lon="5.59753">
        <ele>960.85663333333</ele>
        <time>2018-08-29T16:54:37Z</time>
      </trkpt>
      <trkpt lat="45.13682" lon="5.59739">
        <ele>960.75774</ele>
        <time>2018-08-29T16:54:40Z</time>
      </trkpt>
      <trkpt lat="45.13699" lon="5.59721">
        <ele>960.85912666667</ele>
        <time>2018-08-29T16:54:44Z</time>
      </trkpt>
      <trkpt lat="45.13712" lon="5.59701">
        <ele>960.36041333333</ele>
        <time>2018-08-29T16:54:48Z</time>
      </trkpt>
      <trkpt lat="45.13723" lon="5.59682">
        <ele>959.76162</ele>
        <time>2018-08-29T16:54:52Z</time>
      </trkpt>
      <trkpt lat="45.13736" lon="5.59666">
        <ele>959.46279333333</ele>
        <time>2018-08-29T16:54:56Z</time>
      </trkpt>
      <trkpt lat="45.1375" lon="5.59645">
        <ele>958.66417333333</ele>
        <time>2018-08-29T16:55:00Z</time>
      </trkpt>
      <trkpt lat="45.13762" lon="5.59618">
        <ele>957.66576</ele>
        <time>2018-08-29T16:55:04Z</time>
      </trkpt>
      <trkpt lat="45.13771" lon="5.59589">
        <ele>956.96725333333</ele>
        <time>2018-08-29T16:55:08Z</time>
      </trkpt>
      <trkpt lat="45.13773" lon="5.59558">
        <ele>956.46862666667</ele>
        <time>2018-08-29T16:55:12Z</time>
      </trkpt>
      <trkpt lat="45.13774" lon="5.59522">
        <ele>956.37009333333</ele>
        <time>2018-08-29T16:55:16Z</time>
      </trkpt>
      <trkpt lat="45.13776" lon="5.59481">
        <ele>956.67178666667</ele>
        <time>2018-08-29T16:55:20Z</time>
      </trkpt>
      <trkpt lat="45.13773" lon="5.59447">
        <ele>956.57306</ele>
        <time>2018-08-29T16:55:24Z</time>
      </trkpt>
      <trkpt lat="45.13784" lon="5.59438">
        <ele>956.77382</ele>
        <time>2018-08-29T16:55:28Z</time>
      </trkpt>
      <trkpt lat="45.13797" lon="5.59451">
        <ele>956.37386666667</ele>
        <time>2018-08-29T16:55:32Z</time>
      </trkpt>
      <trkpt lat="45.13812" lon="5.59462">
        <ele>956.07399333333</ele>
        <time>2018-08-29T16:55:36Z</time>
      </trkpt>
      <trkpt lat="45.1383" lon="5.59472">
        <ele>955.67433333333</ele>
        <time>2018-08-29T16:55:40Z</time>
      </trkpt>
      <trkpt lat="45.13854" lon="5.59481">
        <ele>955.47491333333</ele>
        <time>2018-08-29T16:55:44Z</time>
      </trkpt>
      <trkpt lat="45.1388" lon="5.59488">
        <ele>955.07567333333</ele>
        <time>2018-08-29T16:55:48Z</time>
      </trkpt>
      <trkpt lat="45.13908" lon="5.59496">
        <ele>954.47648666667</ele>
        <time>2018-08-29T16:55:52Z</time>
      </trkpt>
      <trkpt lat="45.13935" lon="5.59509">
        <ele>953.47704</ele>
        <time>2018-08-29T16:55:56Z</time>
      </trkpt>
      <trkpt lat="45.1396" lon="5.59518">
        <ele>952.47766666667</ele>
        <time>2018-08-29T16:56:00Z</time>
      </trkpt>
      <trkpt lat="45.13985" lon="5.59523">
        <ele>950.77846</ele>
        <time>2018-08-29T16:56:04Z</time>
      </trkpt>
      <trkpt lat="45.14007" lon="5.59519">
        <ele>951.07949333333</ele>
        <time>2018-08-29T16:56:08Z</time>
      </trkpt>
      <trkpt lat="45.14013" lon="5.59504">
        <ele>950.58038</ele>
        <time>2018-08-29T16:56:12Z</time>
      </trkpt>
      <trkpt lat="45.14014" lon="5.59479">
        <ele>949.68136666667</ele>
        <time>2018-08-29T16:56:16Z</time>
      </trkpt>
      <trkpt lat="45.14012" lon="5.59443">
        <ele>948.58273333333</ele>
        <time>2018-08-29T16:56:20Z</time>
      </trkpt>
      <trkpt lat="45.14009" lon="5.59411">
        <ele>947.18395333333</ele>
        <time>2018-08-29T16:56:24Z</time>
      </trkpt>
      <trkpt lat="45.14" lon="5.5938">
        <ele>945.88480666667</ele>
        <time>2018-08-29T16:56:28Z</time>
      </trkpt>
      <trkpt lat="45.13995" lon="5.59353">
        <ele>944.58571333333</ele>
        <time>2018-08-29T16:56:32Z</time>
      </trkpt>
      <trkpt lat="45.13992" lon="5.59324">
        <ele>942.68670666667</ele>
        <time>2018-08-29T16:56:36Z</time>
      </trkpt>
      <trkpt lat="45.13997" lon="5.59292">
        <ele>940.18818666667</ele>
        <time>2018-08-29T16:56:40Z</time>
      </trkpt>
      <trkpt lat="45.14006" lon="5.59262">
        <ele>937.18975333333</ele>
        <time>2018-08-29T16:56:44Z</time>
      </trkpt>
      <trkpt lat="45.14013" lon="5.5924">
        <ele>933.19091333333</ele>
        <time>2018-08-29T16:56:48Z</time>
      </trkpt>
      <trkpt lat="45.14012" lon="5.59226">
        <ele>929.79143333333</ele>
        <time>2018-08-29T16:56:52Z</time>
      </trkpt>
      <trkpt lat="45.14006" lon="5.59211">
        <ele>926.29180666667</ele>
        <time>2018-08-29T16:56:56Z</time>
      </trkpt>
      <trkpt lat="45.1401" lon="5.59191">
        <ele>922.29274</ele>
        <time>2018-08-29T16:57:00Z</time>
      </trkpt>
      <trkpt lat="45.14022" lon="5.5917">
        <ele>918.09406666667</ele>
        <time>2018-08-29T16:57:04Z</time>
      </trkpt>
      <trkpt lat="45.14036" lon="5.59168">
        <ele>915.69472666667</ele>
        <time>2018-08-29T16:57:08Z</time>
      </trkpt>
      <trkpt lat="45.14054" lon="5.5918">
        <ele>913.29496</ele>
        <time>2018-08-29T16:57:12Z</time>
      </trkpt>
      <trkpt lat="45.14072" lon="5.59192">
        <ele>909.89521333333</ele>
        <time>2018-08-29T16:57:16Z</time>
      </trkpt>
      <trkpt lat="45.14089" lon="5.59207">
        <ele>907.09525333333</ele>
        <time>2018-08-29T16:57:20Z</time>
      </trkpt>
      <trkpt lat="45.14102" lon="5.59231">
        <ele>902.59485333333</ele>
        <time>2018-08-29T16:57:24Z</time>
      </trkpt>
      <trkpt lat="45.14128" lon="5.59253">
        <ele>900.19499333333</ele>
        <time>2018-08-29T16:57:28Z</time>
      </trkpt>
      <trkpt lat="45.14157" lon="5.59272">
        <ele>897.99539333333</ele>
        <time>2018-08-29T16:57:32Z</time>
      </trkpt>
      <trkpt lat="45.14184" lon="5.59291">
        <ele>895.29572666667</ele>
        <time>2018-08-29T16:57:36Z</time>
      </trkpt>
      <trkpt lat="45.14213" lon="5.59312">
        <ele>893.19603333333</ele>
        <time>2018-08-29T16:57:40Z</time>
      </trkpt>
      <trkpt lat="45.14237" lon="5.59342">
        <ele>891.49582</ele>
        <time>2018-08-29T16:57:44Z</time>
      </trkpt>
      <trkpt lat="45.14245" lon="5.59382">
        <ele>889.59451333333</ele>
        <time>2018-08-29T16:57:48Z</time>
      </trkpt>
      <trkpt lat="45.14257" lon="5.59419">
        <ele>887.59352666667</ele>
        <time>2018-08-29T16:57:52Z</time>
      </trkpt>
      <trkpt lat="45.14273" lon="5.59456">
        <ele>885.69268666667</ele>
        <time>2018-08-29T16:57:56Z</time>
      </trkpt>
      <trkpt lat="45.1428" lon="5.59503">
        <ele>883.89108666667</ele>
        <time>2018-08-29T16:58:00Z</time>
      </trkpt>
      <trkpt lat="45.14295" lon="5.59543">
        <ele>881.79006666667</ele>
        <time>2018-08-29T16:58:04Z</time>
      </trkpt>
      <trkpt lat="45.1431" lon="5.59583">
        <ele>879.88910666667</ele>
        <time>2018-08-29T16:58:08Z</time>
      </trkpt>
      <trkpt lat="45.14327" lon="5.59636">
        <ele>877.48764666667</ele>
        <time>2018-08-29T16:58:13Z</time>
      </trkpt>
      <trkpt lat="45.14338" lon="5.59669">
        <ele>876.38678</ele>
        <time>2018-08-29T16:58:16Z</time>
      </trkpt>
      <trkpt lat="45.14354" lon="5.5971">
        <ele>874.78576666667</ele>
        <time>2018-08-29T16:58:20Z</time>
      </trkpt>
      <trkpt lat="45.14376" lon="5.59739">
        <ele>873.18550666667</ele>
        <time>2018-08-29T16:58:24Z</time>
      </trkpt>
      <trkpt lat="45.14416" lon="5.59751">
        <ele>871.38662666667</ele>
        <time>2018-08-29T16:58:28Z</time>
      </trkpt>
      <trkpt lat="45.14456" lon="5.59756">
        <ele>869.68799333333</ele>
        <time>2018-08-29T16:58:32Z</time>
      </trkpt>
      <trkpt lat="45.14491" lon="5.59757">
        <ele>867.98936666667</ele>
        <time>2018-08-29T16:58:36Z</time>
      </trkpt>
      <trkpt lat="45.14527" lon="5.59759">
        <ele>866.49071333333</ele>
        <time>2018-08-29T16:58:40Z</time>
      </trkpt>
      <trkpt lat="45.14562" lon="5.59762">
        <ele>864.89202666667</ele>
        <time>2018-08-29T16:58:44Z</time>
      </trkpt>
      <trkpt lat="45.14601" lon="5.59793">
        <ele>862.99234</ele>
        <time>2018-08-29T16:58:49Z</time>
      </trkpt>
      <trkpt lat="45.14623" lon="5.5984">
        <ele>861.39134666667</ele>
        <time>2018-08-29T16:58:54Z</time>
      </trkpt>
      <trkpt lat="45.14629" lon="5.59887">
        <ele>860.78968</ele>
        <time>2018-08-29T16:58:58Z</time>
      </trkpt>
      <trkpt lat="45.14641" lon="5.59925">
        <ele>859.78860666667</ele>
        <time>2018-08-29T16:59:02Z</time>
      </trkpt>
      <trkpt lat="45.14659" lon="5.59955">
        <ele>858.78815333333</ele>
        <time>2018-08-29T16:59:06Z</time>
      </trkpt>
      <trkpt lat="45.14675" lon="5.59985">
        <ele>858.08759333333</ele>
        <time>2018-08-29T16:59:10Z</time>
      </trkpt>
      <trkpt lat="45.14694" lon="5.60009">
        <ele>856.98742</ele>
        <time>2018-08-29T16:59:14Z</time>
      </trkpt>
      <trkpt lat="45.14721" lon="5.60027">
        <ele>855.78776666667</ele>
        <time>2018-08-29T16:59:18Z</time>
      </trkpt>
      <trkpt lat="45.14739" lon="5.60046">
        <ele>854.88775333333</ele>
        <time>2018-08-29T16:59:22Z</time>
      </trkpt>
      <trkpt lat="45.14766" lon="5.60057">
        <ele>854.18838</ele>
        <time>2018-08-29T16:59:26Z</time>
      </trkpt>
      <trkpt lat="45.14797" lon="5.60053">
        <ele>853.68978</ele>
        <time>2018-08-29T16:59:30Z</time>
      </trkpt>
      <trkpt lat="45.14824" lon="5.60047">
        <ele>852.5911</ele>
        <time>2018-08-29T16:59:34Z</time>
      </trkpt>
      <trkpt lat="45.14837" lon="5.6005">
        <ele>851.89147333333</ele>
        <time>2018-08-29T16:59:38Z</time>
      </trkpt>
      <trkpt lat="45.14876" lon="5.6004">
        <ele>851.39343333333</ele>
        <time>2018-08-29T16:59:42Z</time>
      </trkpt>
      <trkpt lat="45.14905" lon="5.60052">
        <ele>849.99412666667</ele>
        <time>2018-08-29T16:59:46Z</time>
      </trkpt>
      <trkpt lat="45.1493" lon="5.60059">
        <ele>848.89485333333</ele>
        <time>2018-08-29T16:59:50Z</time>
      </trkpt>
      <trkpt lat="45.14972" lon="5.60048">
        <ele>847.99696</ele>
        <time>2018-08-29T16:59:54Z</time>
      </trkpt>
      <trkpt lat="45.15003" lon="5.6005">
        <ele>846.39812</ele>
        <time>2018-08-29T16:59:58Z</time>
      </trkpt>
      <trkpt lat="45.15033" lon="5.60067">
        <ele>845.89862</ele>
        <time>2018-08-29T17:00:02Z</time>
      </trkpt>
      <trkpt lat="45.15062" lon="5.60082">
        <ele>845.4992</ele>
        <time>2018-08-29T17:00:06Z</time>
      </trkpt>
      <trkpt lat="45.15089" lon="5.60108">
        <ele>844.39922666667</ele>
        <time>2018-08-29T17:00:10Z</time>
      </trkpt>
      <trkpt lat="45.15108" lon="5.60139">
        <ele>843.59877333333</ele>
        <time>2018-08-29T17:00:14Z</time>
      </trkpt>
      <trkpt lat="45.15123" lon="5.60171">
        <ele>842.49806</ele>
        <time>2018-08-29T17:00:18Z</time>
      </trkpt>
      <trkpt lat="45.15145" lon="5.60196">
        <ele>840.99796</ele>
        <time>2018-08-29T17:00:22Z</time>
      </trkpt>
      <trkpt lat="45.15169" lon="5.60225">
        <ele>839.19775333333</ele>
        <time>2018-08-29T17:00:26Z</time>
      </trkpt>
      <trkpt lat="45.152" lon="5.60259">
        <ele>836.99766666667</ele>
        <time>2018-08-29T17:00:31Z</time>
      </trkpt>
      <trkpt lat="45.15222" lon="5.60283">
        <ele>836.59756</ele>
        <time>2018-08-29T17:00:34Z</time>
      </trkpt>
      <trkpt lat="45.1525" lon="5.60308">
        <ele>835.89767333333</ele>
        <time>2018-08-29T17:00:38Z</time>
      </trkpt>
      <trkpt lat="45.15278" lon="5.60336">
        <ele>835.09765333333</ele>
        <time>2018-08-29T17:00:42Z</time>
      </trkpt>
      <trkpt lat="45.15303" lon="5.60369">
        <ele>834.49736</ele>
        <time>2018-08-29T17:00:46Z</time>
      </trkpt>
      <trkpt lat="45.15335" lon="5.6041">
        <ele>833.49699333333</ele>
        <time>2018-08-29T17:00:51Z</time>
      </trkpt>
      <trkpt lat="45.15356" lon="5.60435">
        <ele>833.09686666667</ele>
        <time>2018-08-29T17:00:54Z</time>
      </trkpt>
      <trkpt lat="45.15374" lon="5.60479">
        <ele>832.39583333333</ele>
        <time>2018-08-29T17:00:58Z</time>
      </trkpt>
      <trkpt lat="45.15393" lon="5.6052">
        <ele>831.3949</ele>
        <time>2018-08-29T17:01:02Z</time>
      </trkpt>
      <trkpt lat="45.15412" lon="5.60555">
        <ele>829.9943</ele>
        <time>2018-08-29T17:01:06Z</time>
      </trkpt>
      <trkpt lat="45.15435" lon="5.60584">
        <ele>828.79403333333</ele>
        <time>2018-08-29T17:01:10Z</time>
      </trkpt>
      <trkpt lat="45.15463" lon="5.606">
        <ele>828.29452</ele>
        <time>2018-08-29T17:01:14Z</time>
      </trkpt>
      <trkpt lat="45.15498" lon="5.60617">
        <ele>827.79522666667</ele>
        <time>2018-08-29T17:01:18Z</time>
      </trkpt>
      <trkpt lat="45.15534" lon="5.60627">
        <ele>826.69626666667</ele>
        <time>2018-08-29T17:01:22Z</time>
      </trkpt>
      <trkpt lat="45.1557" lon="5.60637">
        <ele>825.29733333333</ele>
        <time>2018-08-29T17:01:26Z</time>
      </trkpt>
      <trkpt lat="45.15603" lon="5.60642">
        <ele>823.59841333333</ele>
        <time>2018-08-29T17:01:30Z</time>
      </trkpt>
      <trkpt lat="45.15633" lon="5.60655">
        <ele>822.39908666667</ele>
        <time>2018-08-29T17:01:34Z</time>
      </trkpt>
      <trkpt lat="45.1567" lon="5.60676">
        <ele>821.79972666667</ele>
        <time>2018-08-29T17:01:38Z</time>
      </trkpt>
      <trkpt lat="45.15706" lon="5.60695">
        <ele>820.90042666667</ele>
        <time>2018-08-29T17:01:42Z</time>
      </trkpt>
      <trkpt lat="45.15727" lon="5.60717">
        <ele>819.50038</ele>
        <time>2018-08-29T17:01:46Z</time>
      </trkpt>
      <trkpt lat="45.15748" lon="5.60739">
        <ele>818.40036666667</ele>
        <time>2018-08-29T17:01:50Z</time>
      </trkpt>
      <trkpt lat="45.15775" lon="5.60754">
        <ele>817.40080666667</ele>
        <time>2018-08-29T17:01:54Z</time>
      </trkpt>
      <trkpt lat="45.15799" lon="5.60764">
        <ele>816.60138666667</ele>
        <time>2018-08-29T17:01:58Z</time>
      </trkpt>
      <trkpt lat="45.15816" lon="5.60775">
        <ele>815.80160666667</ele>
        <time>2018-08-29T17:02:01Z</time>
      </trkpt>
      <trkpt lat="45.15842" lon="5.60787">
        <ele>814.50219333333</ele>
        <time>2018-08-29T17:02:06Z</time>
      </trkpt>
      <trkpt lat="45.15866" lon="5.60799">
        <ele>813.70268</ele>
        <time>2018-08-29T17:02:10Z</time>
      </trkpt>
      <trkpt lat="45.15891" lon="5.60811">
        <ele>812.80322666667</ele>
        <time>2018-08-29T17:02:14Z</time>
      </trkpt>
      <trkpt lat="45.15921" lon="5.60831">
        <ele>812.10362666667</ele>
        <time>2018-08-29T17:02:19Z</time>
      </trkpt>
      <trkpt lat="45.15944" lon="5.6084">
        <ele>811.30415333333</ele>
        <time>2018-08-29T17:02:22Z</time>
      </trkpt>
      <trkpt lat="45.15968" lon="5.60859">
        <ele>809.90434</ele>
        <time>2018-08-29T17:02:26Z</time>
      </trkpt>
      <trkpt lat="45.15994" lon="5.60876">
        <ele>808.60471333333</ele>
        <time>2018-08-29T17:02:30Z</time>
      </trkpt>
      <trkpt lat="45.16021" lon="5.60887">
        <ele>807.40533333333</ele>
        <time>2018-08-29T17:02:34Z</time>
      </trkpt>
      <trkpt lat="45.16053" lon="5.60897">
        <ele>806.50622</ele>
        <time>2018-08-29T17:02:38Z</time>
      </trkpt>
      <trkpt lat="45.16079" lon="5.60905">
        <ele>805.80698666667</ele>
        <time>2018-08-29T17:02:42Z</time>
      </trkpt>
      <trkpt lat="45.16091" lon="5.60924">
        <ele>805.6067</ele>
        <time>2018-08-29T17:02:46Z</time>
      </trkpt>
      <trkpt lat="45.16108" lon="5.60936">
        <ele>805.60687333333</ele>
        <time>2018-08-29T17:02:50Z</time>
      </trkpt>
      <trkpt lat="45.16135" lon="5.60943">
        <ele>805.20768</ele>
        <time>2018-08-29T17:02:54Z</time>
      </trkpt>
      <trkpt lat="45.16164" lon="5.60948">
        <ele>804.70866</ele>
        <time>2018-08-29T17:02:58Z</time>
      </trkpt>
      <trkpt lat="45.16196" lon="5.60959">
        <ele>804.10948666667</ele>
        <time>2018-08-29T17:03:02Z</time>
      </trkpt>
      <trkpt lat="45.16221" lon="5.60965">
        <ele>806.01021333333</ele>
        <time>2018-08-29T17:03:06Z</time>
      </trkpt>
      <trkpt lat="45.16246" lon="5.60973">
        <ele>810.71092666667</ele>
        <time>2018-08-29T17:03:10Z</time>
      </trkpt>
      <trkpt lat="45.16276" lon="5.60974">
        <ele>812.41208</ele>
        <time>2018-08-29T17:03:14Z</time>
      </trkpt>
      <trkpt lat="45.16305" lon="5.60975">
        <ele>817.5132</ele>
        <time>2018-08-29T17:03:18Z</time>
      </trkpt>
      <trkpt lat="45.16337" lon="5.60974">
        <ele>818.41453333333</ele>
        <time>2018-08-29T17:03:22Z</time>
      </trkpt>
      <trkpt lat="45.16366" lon="5.60982">
        <ele>816.01535333333</ele>
        <time>2018-08-29T17:03:26Z</time>
      </trkpt>
      <trkpt lat="45.1639" lon="5.60995">
        <ele>815.9158</ele>
        <time>2018-08-29T17:03:30Z</time>
      </trkpt>
      <trkpt lat="45.16412" lon="5.6101">
        <ele>815.81608</ele>
        <time>2018-08-29T17:03:34Z</time>
      </trkpt>
      <trkpt lat="45.16432" lon="5.61033">
        <ele>816.31598</ele>
        <time>2018-08-29T17:03:38Z</time>
      </trkpt>
      <trkpt lat="45.16453" lon="5.61058">
        <ele>817.11582</ele>
        <time>2018-08-29T17:03:42Z</time>
      </trkpt>
      <trkpt lat="45.16478" lon="5.6108">
        <ele>817.11590666667</ele>
        <time>2018-08-29T17:03:46Z</time>
      </trkpt>
      <trkpt lat="45.16506" lon="5.61094">
        <ele>816.71648666667</ele>
        <time>2018-08-29T17:03:50Z</time>
      </trkpt>
      <trkpt lat="45.16537" lon="5.61103">
        <ele>818.61733333333</ele>
        <time>2018-08-29T17:03:54Z</time>
      </trkpt>
      <trkpt lat="45.16569" lon="5.61106">
        <ele>820.61853333333</ele>
        <time>2018-08-29T17:03:58Z</time>
      </trkpt>
      <trkpt lat="45.16603" lon="5.61106">
        <ele>821.5199</ele>
        <time>2018-08-29T17:04:02Z</time>
      </trkpt>
      <trkpt lat="45.16637" lon="5.61116">
        <ele>821.22083333333</ele>
        <time>2018-08-29T17:04:06Z</time>
      </trkpt>
      <trkpt lat="45.16667" lon="5.61138">
        <ele>820.62117333333</ele>
        <time>2018-08-29T17:04:10Z</time>
      </trkpt>
      <trkpt lat="45.16693" lon="5.61166">
        <ele>820.92106</ele>
        <time>2018-08-29T17:04:14Z</time>
      </trkpt>
      <trkpt lat="45.16719" lon="5.61194">
        <ele>820.42098666667</ele>
        <time>2018-08-29T17:04:18Z</time>
      </trkpt>
      <trkpt lat="45.16746" lon="5.61216">
        <ele>820.4212</ele>
        <time>2018-08-29T17:04:22Z</time>
      </trkpt>
      <trkpt lat="45.16774" lon="5.61233">
        <ele>820.42166666667</ele>
        <time>2018-08-29T17:04:26Z</time>
      </trkpt>
      <trkpt lat="45.16804" lon="5.61246">
        <ele>819.82232</ele>
        <time>2018-08-29T17:04:30Z</time>
      </trkpt>
      <trkpt lat="45.16833" lon="5.61259">
        <ele>819.52298</ele>
        <time>2018-08-29T17:04:34Z</time>
      </trkpt>
      <trkpt lat="45.1686" lon="5.61272">
        <ele>819.52352666667</ele>
        <time>2018-08-29T17:04:38Z</time>
      </trkpt>
      <trkpt lat="45.16896" lon="5.61288">
        <ele>818.6243</ele>
        <time>2018-08-29T17:04:43Z</time>
      </trkpt>
      <trkpt lat="45.16917" lon="5.61303">
        <ele>817.72455333333</ele>
        <time>2018-08-29T17:04:46Z</time>
      </trkpt>
      <trkpt lat="45.16948" lon="5.61323">
        <ele>817.62502</ele>
        <time>2018-08-29T17:04:50Z</time>
      </trkpt>
      <trkpt lat="45.16975" lon="5.61341">
        <ele>817.62537333333</ele>
        <time>2018-08-29T17:04:54Z</time>
      </trkpt>
      <trkpt lat="45.17004" lon="5.61358">
        <ele>817.52584666667</ele>
        <time>2018-08-29T17:04:58Z</time>
      </trkpt>
      <trkpt lat="45.17035" lon="5.6137">
        <ele>816.5266</ele>
        <time>2018-08-29T17:05:02Z</time>
      </trkpt>
      <trkpt lat="45.17066" lon="5.6138">
        <ele>815.92743333333</ele>
        <time>2018-08-29T17:05:06Z</time>
      </trkpt>
      <trkpt lat="45.17096" lon="5.61381">
        <ele>815.92858</ele>
        <time>2018-08-29T17:05:10Z</time>
      </trkpt>
      <trkpt lat="45.17123" lon="5.61383">
        <ele>816.12963333333</ele>
        <time>2018-08-29T17:05:14Z</time>
      </trkpt>
      <trkpt lat="45.17156" lon="5.61388">
        <ele>814.63072</ele>
        <time>2018-08-29T17:05:19Z</time>
      </trkpt>
      <trkpt lat="45.17196" lon="5.6141">
        <ele>813.93146</ele>
        <time>2018-08-29T17:05:23Z</time>
      </trkpt>
      <trkpt lat="45.17237" lon="5.6144">
        <ele>813.03186666667</ele>
        <time>2018-08-29T17:05:28Z</time>
      </trkpt>
      <trkpt lat="45.17265" lon="5.61462">
        <ele>812.93213333333</ele>
        <time>2018-08-29T17:05:32Z</time>
      </trkpt>
      <trkpt lat="45.17306" lon="5.61478">
        <ele>812.93309333333</ele>
        <time>2018-08-29T17:05:37Z</time>
      </trkpt>
      <trkpt lat="45.17331" lon="5.61486">
        <ele>813.03380666667</ele>
        <time>2018-08-29T17:05:40Z</time>
      </trkpt>
      <trkpt lat="45.17373" lon="5.61506">
        <ele>813.33468666667</ele>
        <time>2018-08-29T17:05:45Z</time>
      </trkpt>
      <trkpt lat="45.17404" lon="5.61534">
        <ele>813.1348</ele>
        <time>2018-08-29T17:05:49Z</time>
      </trkpt>
      <trkpt lat="45.17425" lon="5.61572">
        <ele>813.03414666667</ele>
        <time>2018-08-29T17:05:53Z</time>
      </trkpt>
      <trkpt lat="45.17438" lon="5.61624">
        <ele>812.33258</ele>
        <time>2018-08-29T17:05:58Z</time>
      </trkpt>
      <trkpt lat="45.17447" lon="5.61663">
        <ele>811.03134666667</ele>
        <time>2018-08-29T17:06:02Z</time>
      </trkpt>
      <trkpt lat="45.17465" lon="5.61696">
        <ele>810.23074666667</ele>
        <time>2018-08-29T17:06:06Z</time>
      </trkpt>
      <trkpt lat="45.1748" lon="5.61729">
        <ele>809.33002</ele>
        <time>2018-08-29T17:06:10Z</time>
      </trkpt>
      <trkpt lat="45.17492" lon="5.61758">
        <ele>808.72935333333</ele>
        <time>2018-08-29T17:06:14Z</time>
      </trkpt>
      <trkpt lat="45.17508" lon="5.61779">
        <ele>808.52918</ele>
        <time>2018-08-29T17:06:18Z</time>
      </trkpt>
      <trkpt lat="45.17521" lon="5.618">
        <ele>807.02886666667</ele>
        <time>2018-08-29T17:06:22Z</time>
      </trkpt>
      <trkpt lat="45.17536" lon="5.61811">
        <ele>806.02901333333</ele>
        <time>2018-08-29T17:06:26Z</time>
      </trkpt>
      <trkpt lat="45.17553" lon="5.61817">
        <ele>806.22944</ele>
        <time>2018-08-29T17:06:30Z</time>
      </trkpt>
      <trkpt lat="45.17572" lon="5.61819">
        <ele>806.53014</ele>
        <time>2018-08-29T17:06:34Z</time>
      </trkpt>
      <trkpt lat="45.17591" lon="5.61816">
        <ele>807.03102666667</ele>
        <time>2018-08-29T17:06:38Z</time>
      </trkpt>
      <trkpt lat="45.17609" lon="5.6181">
        <ele>806.73196666667</ele>
        <time>2018-08-29T17:06:42Z</time>
      </trkpt>
      <trkpt lat="45.17628" lon="5.61808">
        <ele>806.43277333333</ele>
        <time>2018-08-29T17:06:46Z</time>
      </trkpt>
      <trkpt lat="45.17644" lon="5.61818">
        <ele>804.63304</ele>
        <time>2018-08-29T17:06:50Z</time>
      </trkpt>
      <trkpt lat="45.17657" lon="5.61836">
        <ele>803.23284</ele>
        <time>2018-08-29T17:06:54Z</time>
      </trkpt>
      <trkpt lat="45.17669" lon="5.61856">
        <ele>802.13252666667</ele>
        <time>2018-08-29T17:06:58Z</time>
      </trkpt>
      <trkpt lat="45.17684" lon="5.6187">
        <ele>801.03257333333</ele>
        <time>2018-08-29T17:07:02Z</time>
      </trkpt>
      <trkpt lat="45.17703" lon="5.61872">
        <ele>801.33321333333</ele>
        <time>2018-08-29T17:07:06Z</time>
      </trkpt>
      <trkpt lat="45.17722" lon="5.61872">
        <ele>800.53398666667</ele>
        <time>2018-08-29T17:07:10Z</time>
      </trkpt>
      <trkpt lat="45.17738" lon="5.61873">
        <ele>800.53458666667</ele>
        <time>2018-08-29T17:07:14Z</time>
      </trkpt>
      <trkpt lat="45.17749" lon="5.61871">
        <ele>802.33512666667</ele>
        <time>2018-08-29T17:07:18Z</time>
      </trkpt>
      <trkpt lat="45.17758" lon="5.61868">
        <ele>803.53558666667</ele>
        <time>2018-08-29T17:07:22Z</time>
      </trkpt>
      <trkpt lat="45.17766" lon="5.61864">
        <ele>805.03607333333</ele>
        <time>2018-08-29T17:07:26Z</time>
      </trkpt>
      <trkpt lat="45.17772" lon="5.61857">
        <ele>806.43660666667</ele>
        <time>2018-08-29T17:07:30Z</time>
      </trkpt>
      <trkpt lat="45.17778" lon="5.61852">
        <ele>807.43705333333</ele>
        <time>2018-08-29T17:07:34Z</time>
      </trkpt>
      <trkpt lat="45.17784" lon="5.61848">
        <ele>808.83741333333</ele>
        <time>2018-08-29T17:07:38Z</time>
      </trkpt>
      <trkpt lat="45.1779" lon="5.61845">
        <ele>810.33778666667</ele>
        <time>2018-08-29T17:07:42Z</time>
      </trkpt>
      <trkpt lat="45.17797" lon="5.61842">
        <ele>811.23819333333</ele>
        <time>2018-08-29T17:07:46Z</time>
      </trkpt>
      <trkpt lat="45.17804" lon="5.61839">
        <ele>811.93857333333</ele>
        <time>2018-08-29T17:07:50Z</time>
      </trkpt>
      <trkpt lat="45.1781" lon="5.6184">
        <ele>813.53882666667</ele>
        <time>2018-08-29T17:07:54Z</time>
      </trkpt>
      <trkpt lat="45.17817" lon="5.61842">
        <ele>814.33902666667</ele>
        <time>2018-08-29T17:07:58Z</time>
      </trkpt>
      <trkpt lat="45.17824" lon="5.61844">
        <ele>814.23919333333</ele>
        <time>2018-08-29T17:08:02Z</time>
      </trkpt>
      <trkpt lat="45.17831" lon="5.61845">
        <ele>814.13944666667</ele>
        <time>2018-08-29T17:08:06Z</time>
      </trkpt>
      <trkpt lat="45.17839" lon="5.61845">
        <ele>815.43976</ele>
        <time>2018-08-29T17:08:10Z</time>
      </trkpt>
      <trkpt lat="45.17845" lon="5.61846">
        <ele>815.83998666667</ele>
        <time>2018-08-29T17:08:14Z</time>
      </trkpt>
      <trkpt lat="45.17853" lon="5.61847">
        <ele>816.24024666667</ele>
        <time>2018-08-29T17:08:19Z</time>
      </trkpt>
      <trkpt lat="45.17857" lon="5.61847">
        <ele>817.34043333333</ele>
        <time>2018-08-29T17:08:22Z</time>
      </trkpt>
      <trkpt lat="45.17861" lon="5.61845">
        <ele>817.44064666667</ele>
        <time>2018-08-29T17:08:26Z</time>
      </trkpt>
      <trkpt lat="45.17867" lon="5.61845">
        <ele>816.94088</ele>
        <time>2018-08-29T17:08:30Z</time>
      </trkpt>
      <trkpt lat="45.17872" lon="5.61844">
        <ele>817.64112</ele>
        <time>2018-08-29T17:08:34Z</time>
      </trkpt>
      <trkpt lat="45.1788" lon="5.61842">
        <ele>819.04153333333</ele>
        <time>2018-08-29T17:08:38Z</time>
      </trkpt>
      <trkpt lat="45.17886" lon="5.61841">
        <ele>818.64180666667</ele>
        <time>2018-08-29T17:08:42Z</time>
      </trkpt>
      <trkpt lat="45.17891" lon="5.61839">
        <ele>818.34206</ele>
        <time>2018-08-29T17:08:46Z</time>
      </trkpt>
      <trkpt lat="45.17896" lon="5.61839">
        <ele>818.4423</ele>
        <time>2018-08-29T17:08:50Z</time>
      </trkpt>
      <trkpt lat="45.17904" lon="5.61838">
        <ele>819.04263333333</ele>
        <time>2018-08-29T17:08:54Z</time>
      </trkpt>
      <trkpt lat="45.1791" lon="5.61837">
        <ele>819.24292</ele>
        <time>2018-08-29T17:08:58Z</time>
      </trkpt>
      <trkpt lat="45.17917" lon="5.61836">
        <ele>819.14323333333</ele>
        <time>2018-08-29T17:09:02Z</time>
      </trkpt>
      <trkpt lat="45.17922" lon="5.61837">
        <ele>819.4434</ele>
        <time>2018-08-29T17:09:06Z</time>
      </trkpt>
      <trkpt lat="45.17928" lon="5.61839">
        <ele>820.14354</ele>
        <time>2018-08-29T17:09:10Z</time>
      </trkpt>
      <trkpt lat="45.17933" lon="5.61841">
        <ele>820.24368</ele>
        <time>2018-08-29T17:09:14Z</time>
      </trkpt>
      <trkpt lat="45.17939" lon="5.61842">
        <ele>820.74389333333</ele>
        <time>2018-08-29T17:09:18Z</time>
      </trkpt>
      <trkpt lat="45.17946" lon="5.61842">
        <ele>821.44416666667</ele>
        <time>2018-08-29T17:09:22Z</time>
      </trkpt>
      <trkpt lat="45.17953" lon="5.6184">
        <ele>822.64452</ele>
        <time>2018-08-29T17:09:26Z</time>
      </trkpt>
      <trkpt lat="45.17962" lon="5.61837">
        <ele>823.14499333333</ele>
        <time>2018-08-29T17:09:30Z</time>
      </trkpt>
      <trkpt lat="45.17974" lon="5.61834">
        <ele>823.64558</ele>
        <time>2018-08-29T17:09:34Z</time>
      </trkpt>
      <trkpt lat="45.17981" lon="5.61834">
        <ele>823.44586666667</ele>
        <time>2018-08-29T17:09:38Z</time>
      </trkpt>
      <trkpt lat="45.17989" lon="5.61835">
        <ele>824.54615333333</ele>
        <time>2018-08-29T17:09:42Z</time>
      </trkpt>
      <trkpt lat="45.17998" lon="5.61833">
        <ele>824.74657333333</ele>
        <time>2018-08-29T17:09:46Z</time>
      </trkpt>
      <trkpt lat="45.18008" lon="5.6183">
        <ele>825.34713333333</ele>
        <time>2018-08-29T17:09:50Z</time>
      </trkpt>
      <trkpt lat="45.18016" lon="5.61826">
        <ele>825.7476</ele>
        <time>2018-08-29T17:09:54Z</time>
      </trkpt>
      <trkpt lat="45.18023" lon="5.61823">
        <ele>826.84799333333</ele>
        <time>2018-08-29T17:09:58Z</time>
      </trkpt>
      <trkpt lat="45.18032" lon="5.6182">
        <ele>828.14846666667</ele>
        <time>2018-08-29T17:10:02Z</time>
      </trkpt>
      <trkpt lat="45.18039" lon="5.61818">
        <ele>827.74886666667</ele>
        <time>2018-08-29T17:10:06Z</time>
      </trkpt>
      <trkpt lat="45.18048" lon="5.61816">
        <ele>827.84928666667</ele>
        <time>2018-08-29T17:10:10Z</time>
      </trkpt>
      <trkpt lat="45.18059" lon="5.61815">
        <ele>828.44976</ele>
        <time>2018-08-29T17:10:14Z</time>
      </trkpt>
      <trkpt lat="45.18069" lon="5.61815">
        <ele>828.15012666667</ele>
        <time>2018-08-29T17:10:18Z</time>
      </trkpt>
      <trkpt lat="45.1808" lon="5.61812">
        <ele>828.6507</ele>
        <time>2018-08-29T17:10:22Z</time>
      </trkpt>
      <trkpt lat="45.18087" lon="5.61812">
        <ele>830.05100666667</ele>
        <time>2018-08-29T17:10:26Z</time>
      </trkpt>
      <trkpt lat="45.18096" lon="5.6181">
        <ele>830.95141333333</ele>
        <time>2018-08-29T17:10:30Z</time>
      </trkpt>
      <trkpt lat="45.18103" lon="5.61808">
        <ele>833.05178</ele>
        <time>2018-08-29T17:10:34Z</time>
      </trkpt>
      <trkpt lat="45.18112" lon="5.61807">
        <ele>833.25219333333</ele>
        <time>2018-08-29T17:10:38Z</time>
      </trkpt>
      <trkpt lat="45.18121" lon="5.61804">
        <ele>835.45268666667</ele>
        <time>2018-08-29T17:10:42Z</time>
      </trkpt>
      <trkpt lat="45.18129" lon="5.61803">
        <ele>836.85303333333</ele>
        <time>2018-08-29T17:10:46Z</time>
      </trkpt>
      <trkpt lat="45.18136" lon="5.61799">
        <ele>836.45351333333</ele>
        <time>2018-08-29T17:10:50Z</time>
      </trkpt>
      <trkpt lat="45.18144" lon="5.61795">
        <ele>836.65396</ele>
        <time>2018-08-29T17:10:54Z</time>
      </trkpt>
      <trkpt lat="45.18153" lon="5.61792">
        <ele>837.95447333333</ele>
        <time>2018-08-29T17:10:58Z</time>
      </trkpt>
      <trkpt lat="45.18162" lon="5.61787">
        <ele>838.95499333333</ele>
        <time>2018-08-29T17:11:02Z</time>
      </trkpt>
      <trkpt lat="45.1817" lon="5.61783">
        <ele>839.95549333333</ele>
        <time>2018-08-29T17:11:06Z</time>
      </trkpt>
      <trkpt lat="45.18178" lon="5.61782">
        <ele>841.55586</ele>
        <time>2018-08-29T17:11:10Z</time>
      </trkpt>
      <trkpt lat="45.18186" lon="5.61781">
        <ele>842.6562</ele>
        <time>2018-08-29T17:11:14Z</time>
      </trkpt>
      <trkpt lat="45.18192" lon="5.61778">
        <ele>842.35656666667</ele>
        <time>2018-08-29T17:11:18Z</time>
      </trkpt>
      <trkpt lat="45.18198" lon="5.61779">
        <ele>842.05676</ele>
        <time>2018-08-29T17:11:22Z</time>
      </trkpt>
      <trkpt lat="45.18206" lon="5.61781">
        <ele>842.15698</ele>
        <time>2018-08-29T17:11:26Z</time>
      </trkpt>
      <trkpt lat="45.18214" lon="5.61779">
        <ele>842.25740666667</ele>
        <time>2018-08-29T17:11:30Z</time>
      </trkpt>
      <trkpt lat="45.18221" lon="5.6178">
        <ele>844.05762</ele>
        <time>2018-08-29T17:11:34Z</time>
      </trkpt>
      <trkpt lat="45.18228" lon="5.61784">
        <ele>845.65778</ele>
        <time>2018-08-29T17:11:38Z</time>
      </trkpt>
      <trkpt lat="45.18238" lon="5.61789">
        <ele>846.05798</ele>
        <time>2018-08-29T17:11:42Z</time>
      </trkpt>
      <trkpt lat="45.18247" lon="5.61793">
        <ele>847.05813333333</ele>
        <time>2018-08-29T17:11:46Z</time>
      </trkpt>
      <trkpt lat="45.18254" lon="5.618">
        <ele>848.55819333333</ele>
        <time>2018-08-29T17:11:50Z</time>
      </trkpt>
      <trkpt lat="45.18262" lon="5.61802">
        <ele>849.25838</ele>
        <time>2018-08-29T17:11:54Z</time>
      </trkpt>
      <trkpt lat="45.1827" lon="5.61804">
        <ele>849.65860666667</ele>
        <time>2018-08-29T17:11:58Z</time>
      </trkpt>
      <trkpt lat="45.18278" lon="5.61806">
        <ele>849.95889333333</ele>
        <time>2018-08-29T17:12:02Z</time>
      </trkpt>
      <trkpt lat="45.18288" lon="5.61808">
        <ele>850.15920666667</ele>
        <time>2018-08-29T17:12:06Z</time>
      </trkpt>
      <trkpt lat="45.18299" lon="5.61811">
        <ele>850.25950666667</ele>
        <time>2018-08-29T17:12:10Z</time>
      </trkpt>
      <trkpt lat="45.18309" lon="5.61814">
        <ele>850.3598</ele>
        <time>2018-08-29T17:12:14Z</time>
      </trkpt>
      <trkpt lat="45.18321" lon="5.61819">
        <ele>850.16008</ele>
        <time>2018-08-29T17:12:18Z</time>
      </trkpt>
      <trkpt lat="45.18334" lon="5.61824">
        <ele>850.36039333333</ele>
        <time>2018-08-29T17:12:22Z</time>
      </trkpt>
      <trkpt lat="45.18347" lon="5.61832">
        <ele>850.16059333333</ele>
        <time>2018-08-29T17:12:26Z</time>
      </trkpt>
      <trkpt lat="45.1836" lon="5.61841">
        <ele>850.26077333333</ele>
        <time>2018-08-29T17:12:30Z</time>
      </trkpt>
      <trkpt lat="45.18378" lon="5.61851">
        <ele>851.16104666667</ele>
        <time>2018-08-29T17:12:34Z</time>
      </trkpt>
      <trkpt lat="45.18397" lon="5.61866">
        <ele>851.16124</ele>
        <time>2018-08-29T17:12:38Z</time>
      </trkpt>
      <trkpt lat="45.18422" lon="5.6188">
        <ele>851.16166</ele>
        <time>2018-08-29T17:12:42Z</time>
      </trkpt>
      <trkpt lat="45.18449" lon="5.61881">
        <ele>851.26272666667</ele>
        <time>2018-08-29T17:12:46Z</time>
      </trkpt>
      <trkpt lat="45.18472" lon="5.61871">
        <ele>851.46405333333</ele>
        <time>2018-08-29T17:12:50Z</time>
      </trkpt>
      <trkpt lat="45.18492" lon="5.61852">
        <ele>851.66559333333</ele>
        <time>2018-08-29T17:12:55Z</time>
      </trkpt>
      <trkpt lat="45.18504" lon="5.61835">
        <ele>852.06677333333</ele>
        <time>2018-08-29T17:12:59Z</time>
      </trkpt>
      <trkpt lat="45.18517" lon="5.61803">
        <ele>852.16856</ele>
        <time>2018-08-29T17:13:04Z</time>
      </trkpt>
      <trkpt lat="45.18526" lon="5.61773">
        <ele>852.47014</ele>
        <time>2018-08-29T17:13:08Z</time>
      </trkpt>
      <trkpt lat="45.18543" lon="5.61742">
        <ele>852.57205333333</ele>
        <time>2018-08-29T17:13:13Z</time>
      </trkpt>
      <trkpt lat="45.18557" lon="5.61725">
        <ele>852.87327333333</ele>
        <time>2018-08-29T17:13:16Z</time>
      </trkpt>
      <trkpt lat="45.18573" lon="5.61708">
        <ele>853.0746</ele>
        <time>2018-08-29T17:13:20Z</time>
      </trkpt>
      <trkpt lat="45.18595" lon="5.61685">
        <ele>853.17642</ele>
        <time>2018-08-29T17:13:25Z</time>
      </trkpt>
      <trkpt lat="45.18607" lon="5.61675">
        <ele>853.17729333333</ele>
        <time>2018-08-29T17:13:28Z</time>
      </trkpt>
      <trkpt lat="45.18622" lon="5.61664">
        <ele>852.97832666667</ele>
        <time>2018-08-29T17:13:32Z</time>
      </trkpt>
      <trkpt lat="45.18641" lon="5.61645">
        <ele>853.27985333333</ele>
        <time>2018-08-29T17:13:36Z</time>
      </trkpt>
      <trkpt lat="45.18661" lon="5.61619">
        <ele>852.98168666667</ele>
        <time>2018-08-29T17:13:40Z</time>
      </trkpt>
      <trkpt lat="45.18675" lon="5.61595">
        <ele>852.28318</ele>
        <time>2018-08-29T17:13:44Z</time>
      </trkpt>
      <trkpt lat="45.18685" lon="5.61569">
        <ele>852.18465333333</ele>
        <time>2018-08-29T17:13:48Z</time>
      </trkpt>
      <trkpt lat="45.18688" lon="5.61543">
        <ele>851.78581333333</ele>
        <time>2018-08-29T17:13:52Z</time>
      </trkpt>
      <trkpt lat="45.18691" lon="5.61518">
        <ele>851.1869</ele>
        <time>2018-08-29T17:13:56Z</time>
      </trkpt>
      <trkpt lat="45.18702" lon="5.61501">
        <ele>851.18803333333</ele>
        <time>2018-08-29T17:14:00Z</time>
      </trkpt>
      <trkpt lat="45.18717" lon="5.61498">
        <ele>851.88876666667</ele>
        <time>2018-08-29T17:14:04Z</time>
      </trkpt>
      <trkpt lat="45.18731" lon="5.61506">
        <ele>853.38899333333</ele>
        <time>2018-08-29T17:14:08Z</time>
      </trkpt>
      <trkpt lat="45.18743" lon="5.61524">
        <ele>854.08876</ele>
        <time>2018-08-29T17:14:12Z</time>
      </trkpt>
      <trkpt lat="45.18752" lon="5.61545">
        <ele>854.88829333333</ele>
        <time>2018-08-29T17:14:16Z</time>
      </trkpt>
      <trkpt lat="45.18762" lon="5.61567">
        <ele>855.48778666667</ele>
        <time>2018-08-29T17:14:20Z</time>
      </trkpt>
      <trkpt lat="45.18776" lon="5.61592">
        <ele>856.48735333333</ele>
        <time>2018-08-29T17:14:24Z</time>
      </trkpt>
      <trkpt lat="45.18785" lon="5.6162">
        <ele>856.88657333333</ele>
        <time>2018-08-29T17:14:28Z</time>
      </trkpt>
      <trkpt lat="45.1879" lon="5.6165">
        <ele>857.48557333333</ele>
        <time>2018-08-29T17:14:32Z</time>
      </trkpt>
      <trkpt lat="45.18796" lon="5.61679">
        <ele>858.18468666667</ele>
        <time>2018-08-29T17:14:36Z</time>
      </trkpt>
      <trkpt lat="45.18805" lon="5.61706">
        <ele>858.48394</ele>
        <time>2018-08-29T17:14:40Z</time>
      </trkpt>
      <trkpt lat="45.18812" lon="5.61733">
        <ele>858.78315333333</ele>
        <time>2018-08-29T17:14:44Z</time>
      </trkpt>
      <trkpt lat="45.18816" lon="5.61762">
        <ele>858.48213333333</ele>
        <time>2018-08-29T17:14:48Z</time>
      </trkpt>
      <trkpt lat="45.1882" lon="5.61787">
        <ele>858.28131333333</ele>
        <time>2018-08-29T17:14:52Z</time>
      </trkpt>
      <trkpt lat="45.18825" lon="5.61808">
        <ele>857.78066666667</ele>
        <time>2018-08-29T17:14:56Z</time>
      </trkpt>
      <trkpt lat="45.18829" lon="5.61825">
        <ele>857.38017333333</ele>
        <time>2018-08-29T17:15:00Z</time>
      </trkpt>
      <trkpt lat="45.18836" lon="5.61845">
        <ele>857.17962666667</ele>
        <time>2018-08-29T17:15:04Z</time>
      </trkpt>
      <trkpt lat="45.18842" lon="5.6187">
        <ele>856.67885333333</ele>
        <time>2018-08-29T17:15:08Z</time>
      </trkpt>
      <trkpt lat="45.1885" lon="5.61905">
        <ele>859.17782</ele>
        <time>2018-08-29T17:15:12Z</time>
      </trkpt>
      <trkpt lat="45.18868" lon="5.61934">
        <ele>858.87736666667</ele>
        <time>2018-08-29T17:15:16Z</time>
      </trkpt>
      <trkpt lat="45.18897" lon="5.61959">
        <ele>857.67754</ele>
        <time>2018-08-29T17:15:20Z</time>
      </trkpt>
      <trkpt lat="45.1893" lon="5.61967">
        <ele>855.57850666667</ele>
        <time>2018-08-29T17:15:24Z</time>
      </trkpt>
      <trkpt lat="45.18958" lon="5.61966">
        <ele>853.77964666667</ele>
        <time>2018-08-29T17:15:28Z</time>
      </trkpt>
      <trkpt lat="45.18978" lon="5.61967">
        <ele>852.48046</ele>
        <time>2018-08-29T17:15:32Z</time>
      </trkpt>
      <trkpt lat="45.18995" lon="5.61967">
        <ele>853.28111333333</ele>
        <time>2018-08-29T17:15:36Z</time>
      </trkpt>
      <trkpt lat="45.19008" lon="5.6197">
        <ele>853.78153333333</ele>
        <time>2018-08-29T17:15:40Z</time>
      </trkpt>
      <trkpt lat="45.19024" lon="5.61979">
        <ele>857.3818</ele>
        <time>2018-08-29T17:15:44Z</time>
      </trkpt>
      <trkpt lat="45.1903" lon="5.61983">
        <ele>857.58188</ele>
        <time>2018-08-29T17:15:48Z</time>
      </trkpt>
      <trkpt lat="45.19034" lon="5.61982">
        <ele>857.68208666667</ele>
        <time>2018-08-29T17:15:54Z</time>
      </trkpt>
      <trkpt lat="45.19034" lon="5.6198">
        <ele>857.58216</ele>
        <time>2018-08-29T17:16:24Z</time>
      </trkpt>
      <trkpt lat="45.19029" lon="5.61977">
        <ele>856.38206666667</ele>
        <time>2018-08-29T17:16:28Z</time>
      </trkpt>
      <trkpt lat="45.19026" lon="5.61976">
        <ele>856.782</ele>
        <time>2018-08-29T17:16:52Z</time>
      </trkpt>
      <trkpt lat="45.19035" lon="5.61986">
        <ele>856.38198</ele>
        <time>2018-08-29T17:16:56Z</time>
      </trkpt>
      <trkpt lat="45.19033" lon="5.61984">
        <ele>856.38194666667</ele>
        <time>2018-08-29T17:17:10Z</time>
      </trkpt>
      <trkpt lat="45.19035" lon="5.61982">
        <ele>856.28211333333</ele>
        <time>2018-08-29T17:17:50Z</time>
      </trkpt>
      <trkpt lat="45.19039" lon="5.61979">
        <ele>856.18240666667</ele>
        <time>2018-08-29T17:18:10Z</time>
      </trkpt>
      <trkpt lat="45.19037" lon="5.61974">
        <ele>856.28252666667</ele>
        <time>2018-08-29T17:19:24Z</time>
      </trkpt>
      <trkpt lat="45.19032" lon="5.61973">
        <ele>856.18234</ele>
        <time>2018-08-29T17:19:28Z</time>
      </trkpt>
      <trkpt lat="45.19036" lon="5.61972">
        <ele>856.38256</ele>
        <time>2018-08-29T17:19:40Z</time>
      </trkpt>
      <trkpt lat="45.19039" lon="5.6197">
        <ele>856.28277333333</ele>
        <time>2018-08-29T17:19:46Z</time>
      </trkpt>
      <trkpt lat="45.19038" lon="5.61966">
        <ele>856.18287333333</ele>
        <time>2018-08-29T17:19:50Z</time>
      </trkpt>
      <trkpt lat="45.19036" lon="5.61969">
        <ele>856.18268</ele>
        <time>2018-08-29T17:19:56Z</time>
      </trkpt>
      <trkpt lat="45.19034" lon="5.61969">
        <ele>856.28260666667</ele>
        <time>2018-08-29T17:20:00Z</time>
      </trkpt>
      <trkpt lat="45.1904" lon="5.61955">
        <ele>856.38343333333</ele>
        <time>2018-08-29T17:20:04Z</time>
      </trkpt>
      <trkpt lat="45.19038" lon="5.61951">
        <ele>856.38346666667</ele>
        <time>2018-08-29T17:20:08Z</time>
      </trkpt>
      <trkpt lat="45.19032" lon="5.61959">
        <ele>856.48293333333</ele>
        <time>2018-08-29T17:20:12Z</time>
      </trkpt>
      <trkpt lat="45.19033" lon="5.61963">
        <ele>856.48278</ele>
        <time>2018-08-29T17:20:20Z</time>
      </trkpt>
      <trkpt lat="45.19042" lon="5.61962">
        <ele>856.48321333333</ele>
        <time>2018-08-29T17:20:25Z</time>
      </trkpt>
      <trkpt lat="45.19045" lon="5.61963">
        <ele>856.48329333333</ele>
        <time>2018-08-29T17:20:30Z</time>
      </trkpt>
      <trkpt lat="45.19049" lon="5.61967">
        <ele>856.38326666667</ele>
        <time>2018-08-29T17:20:34Z</time>
      </trkpt>
      <trkpt lat="45.19054" lon="5.61988">
        <ele>856.38262</ele>
        <time>2018-08-29T17:20:38Z</time>
      </trkpt>
      <trkpt lat="45.19054" lon="5.61988">
        <ele>856.38262</ele>
        <time>2018-08-29T17:20:38Z</time>
      </trkpt>
    </trkseg>
  </trk>
</gpx>